<?xml version="1.0" encoding="UTF-8" standalone="no" ?>
<gpx xmlns="http://www.topografix.com/GPX/1/1" xmlns:xsi="http://www.w3.org/2001/XMLSchema-instance" xsi:schemaLocation="http://www.topografix.com/GPX/1/1 http://www.topografix.com/GPX/1/1/gpx.xsd" version="1.1" creator="VisuGPX - https://www.visugpx.com">
  <metadata>
    <name>La Dérotchia des Evouettes</name>
    <desc><![CDATA[4étoiles 22km  1200 T3]]></desc>
  </metadata>
  <trk>
    <name><![CDATA[érotchia des Evouettes]]></name>
    <cmt><![CDATA[Type de parcours: Enduro]]></cmt>
    <trkseg>
      <trkpt lat="46.3624" lon="6.87715">
        <ele>341.3</ele>
        <time>2012-06-09T09:36:07.000Z</time>
      </trkpt>
      <trkpt lat="46.36245" lon="6.87704">
        <ele>341.18</ele>
        <time>2012-06-09T09:36:10.000Z</time>
      </trkpt>
      <trkpt lat="46.36246" lon="6.87691">
        <ele>341.186</ele>
        <time>2012-06-09T09:36:13.000Z</time>
      </trkpt>
      <trkpt lat="46.36244" lon="6.87676">
        <ele>341.2802</ele>
        <time>2012-06-09T09:36:17.000Z</time>
      </trkpt>
      <trkpt lat="46.36247" lon="6.87662">
        <ele>341.37614</ele>
        <time>2012-06-09T09:36:22.000Z</time>
      </trkpt>
      <trkpt lat="46.36245" lon="6.87648">
        <ele>341.203298</ele>
        <time>2012-06-09T09:36:27.000Z</time>
      </trkpt>
      <trkpt lat="46.36242" lon="6.87635">
        <ele>341.1423086</ele>
        <time>2012-06-09T09:36:32.000Z</time>
      </trkpt>
      <trkpt lat="46.36239" lon="6.8762">
        <ele>341.15961602</ele>
        <time>2012-06-09T09:36:37.000Z</time>
      </trkpt>
      <trkpt lat="46.36235" lon="6.87608">
        <ele>341.621731214</ele>
        <time>2012-06-09T09:36:41.000Z</time>
      </trkpt>
      <trkpt lat="46.36231" lon="6.87595">
        <ele>342.3952118498</ele>
        <time>2012-06-09T09:36:46.000Z</time>
      </trkpt>
      <trkpt lat="46.36226" lon="6.87581">
        <ele>343.29664829486</ele>
        <time>2012-06-09T09:36:51.000Z</time>
      </trkpt>
      <trkpt lat="46.36221" lon="6.8757">
        <ele>343.7776538064</ele>
        <time>2012-06-09T09:36:55.000Z</time>
      </trkpt>
      <trkpt lat="46.36216" lon="6.87557">
        <ele>344.92435766448</ele>
        <time>2012-06-09T09:37:01.000Z</time>
      </trkpt>
      <trkpt lat="46.36208" lon="6.87549">
        <ele>346.08705036514</ele>
        <time>2012-06-09T09:37:06.000Z</time>
      </trkpt>
      <trkpt lat="46.362" lon="6.87542">
        <ele>347.9209352556</ele>
        <time>2012-06-09T09:37:12.000Z</time>
      </trkpt>
      <trkpt lat="46.36195" lon="6.8753">
        <ele>349.47465467892</ele>
        <time>2012-06-09T09:37:18.000Z</time>
      </trkpt>
      <trkpt lat="46.36192" lon="6.87518">
        <ele>350.62225827524</ele>
        <time>2012-06-09T09:37:23.000Z</time>
      </trkpt>
      <trkpt lat="46.36189" lon="6.87504">
        <ele>351.48558079267</ele>
        <time>2012-06-09T09:37:29.000Z</time>
      </trkpt>
      <trkpt lat="46.36187" lon="6.8749">
        <ele>351.87990655487</ele>
        <time>2012-06-09T09:37:35.000Z</time>
      </trkpt>
      <trkpt lat="46.36185" lon="6.87476">
        <ele>352.06593458841</ele>
        <time>2012-06-09T09:37:41.000Z</time>
      </trkpt>
      <trkpt lat="46.36184" lon="6.87463">
        <ele>351.65615421189</ele>
        <time>2012-06-09T09:37:47.000Z</time>
      </trkpt>
      <trkpt lat="46.36183" lon="6.87449">
        <ele>351.27930794832</ele>
        <time>2012-06-09T09:37:53.000Z</time>
      </trkpt>
      <trkpt lat="46.36181" lon="6.87435">
        <ele>350.86551556382</ele>
        <time>2012-06-09T09:37:59.000Z</time>
      </trkpt>
      <trkpt lat="46.3618" lon="6.8742">
        <ele>350.81586089468</ele>
        <time>2012-06-09T09:38:06.000Z</time>
      </trkpt>
      <trkpt lat="46.36181" lon="6.87406">
        <ele>351.08110262627</ele>
        <time>2012-06-09T09:38:13.000Z</time>
      </trkpt>
      <trkpt lat="46.36184" lon="6.87391">
        <ele>351.71677183839</ele>
        <time>2012-06-09T09:38:20.000Z</time>
      </trkpt>
      <trkpt lat="46.36187" lon="6.87378">
        <ele>352.43174028687</ele>
        <time>2012-06-09T09:38:27.000Z</time>
      </trkpt>
      <trkpt lat="46.36192" lon="6.87365">
        <ele>353.68221820081</ele>
        <time>2012-06-09T09:38:34.000Z</time>
      </trkpt>
      <trkpt lat="46.36195" lon="6.87351">
        <ele>355.06755274057</ele>
        <time>2012-06-09T09:38:41.000Z</time>
      </trkpt>
      <trkpt lat="46.36201" lon="6.8734">
        <ele>356.4872869184</ele>
        <time>2012-06-09T09:38:48.000Z</time>
      </trkpt>
      <trkpt lat="46.362" lon="6.87326">
        <ele>357.60110084288</ele>
        <time>2012-06-09T09:38:55.000Z</time>
      </trkpt>
      <trkpt lat="46.36195" lon="6.87315">
        <ele>358.83077059001</ele>
        <time>2012-06-09T09:39:02.000Z</time>
      </trkpt>
      <trkpt lat="46.36186" lon="6.87315">
        <ele>360.17153941301</ele>
        <time>2012-06-09T09:39:09.000Z</time>
      </trkpt>
      <trkpt lat="46.36176" lon="6.87319">
        <ele>362.22007758911</ele>
        <time>2012-06-09T09:39:15.000Z</time>
      </trkpt>
      <trkpt lat="46.36161" lon="6.8732">
        <ele>365.48405431238</ele>
        <time>2012-06-09T09:39:22.000Z</time>
      </trkpt>
      <trkpt lat="46.36155" lon="6.87329">
        <ele>367.58883801866</ele>
        <time>2012-06-09T09:39:30.000Z</time>
      </trkpt>
      <trkpt lat="46.36145" lon="6.87331">
        <ele>369.21218661306</ele>
        <time>2012-06-09T09:39:38.000Z</time>
      </trkpt>
      <trkpt lat="46.36137" lon="6.87335">
        <ele>369.95853062914</ele>
        <time>2012-06-09T09:39:44.000Z</time>
      </trkpt>
      <trkpt lat="46.36129" lon="6.87343">
        <ele>370.5709714404</ele>
        <time>2012-06-09T09:39:52.000Z</time>
      </trkpt>
      <trkpt lat="46.36122" lon="6.87356">
        <ele>371.83968000828</ele>
        <time>2012-06-09T09:39:59.000Z</time>
      </trkpt>
      <trkpt lat="46.36116" lon="6.87365">
        <ele>373.5677760058</ele>
        <time>2012-06-09T09:40:06.000Z</time>
      </trkpt>
      <trkpt lat="46.36106" lon="6.87362">
        <ele>375.10744320406</ele>
        <time>2012-06-09T09:40:14.000Z</time>
      </trkpt>
      <trkpt lat="46.36099" lon="6.87353">
        <ele>376.45521024284</ele>
        <time>2012-06-09T09:40:21.000Z</time>
      </trkpt>
      <trkpt lat="46.36092" lon="6.87342">
        <ele>377.60864716999</ele>
        <time>2012-06-09T09:40:28.000Z</time>
      </trkpt>
      <trkpt lat="46.36085" lon="6.87333">
        <ele>378.47605301899</ele>
        <time>2012-06-09T09:40:35.000Z</time>
      </trkpt>
      <trkpt lat="46.36076" lon="6.8733">
        <ele>379.47323711329</ele>
        <time>2012-06-09T09:40:41.000Z</time>
      </trkpt>
      <trkpt lat="46.36066" lon="6.87331">
        <ele>380.44126597931</ele>
        <time>2012-06-09T09:40:47.000Z</time>
      </trkpt>
      <trkpt lat="46.36055" lon="6.87333">
        <ele>381.02888618551</ele>
        <time>2012-06-09T09:40:53.000Z</time>
      </trkpt>
      <trkpt lat="46.36045" lon="6.87335">
        <ele>381.38022032986</ele>
        <time>2012-06-09T09:40:58.000Z</time>
      </trkpt>
      <trkpt lat="46.36035" lon="6.87338">
        <ele>381.5661542309</ele>
        <time>2012-06-09T09:41:03.000Z</time>
      </trkpt>
      <trkpt lat="46.36027" lon="6.87336">
        <ele>383.10630796163</ele>
        <time>2012-06-09T09:41:06.000Z</time>
      </trkpt>
      <trkpt lat="46.36016" lon="6.87324">
        <ele>384.51441557314</ele>
        <time>2012-06-09T09:41:08.000Z</time>
      </trkpt>
      <trkpt lat="46.3601" lon="6.87334">
        <ele>385.2600909012</ele>
        <time>2012-06-09T09:41:13.000Z</time>
      </trkpt>
      <trkpt lat="46.36003" lon="6.87325">
        <ele>385.75206363084</ele>
        <time>2012-06-09T09:41:24.000Z</time>
      </trkpt>
      <trkpt lat="46.35999" lon="6.87311">
        <ele>385.58644454159</ele>
        <time>2012-06-09T09:41:30.000Z</time>
      </trkpt>
      <trkpt lat="46.35996" lon="6.87297">
        <ele>385.32051117911</ele>
        <time>2012-06-09T09:41:36.000Z</time>
      </trkpt>
      <trkpt lat="46.35992" lon="6.87284">
        <ele>385.52435782538</ele>
        <time>2012-06-09T09:41:42.000Z</time>
      </trkpt>
      <trkpt lat="46.35989" lon="6.87271">
        <ele>385.60705047776</ele>
        <time>2012-06-09T09:41:48.000Z</time>
      </trkpt>
      <trkpt lat="46.35986" lon="6.87256">
        <ele>385.78493533444</ele>
        <time>2012-06-09T09:41:55.000Z</time>
      </trkpt>
      <trkpt lat="46.35984" lon="6.87242">
        <ele>386.1194547341</ele>
        <time>2012-06-09T09:42:02.000Z</time>
      </trkpt>
      <trkpt lat="46.35982" lon="6.87228">
        <ele>386.44361831387</ele>
        <time>2012-06-09T09:42:09.000Z</time>
      </trkpt>
      <trkpt lat="46.35981" lon="6.87214">
        <ele>386.73053281971</ele>
        <time>2012-06-09T09:42:15.000Z</time>
      </trkpt>
      <trkpt lat="46.3598" lon="6.87201">
        <ele>387.3813729738</ele>
        <time>2012-06-09T09:42:21.000Z</time>
      </trkpt>
      <trkpt lat="46.35978" lon="6.87188">
        <ele>387.95696108166</ele>
        <time>2012-06-09T09:42:27.000Z</time>
      </trkpt>
      <trkpt lat="46.35977" lon="6.87175">
        <ele>388.50987275716</ele>
        <time>2012-06-09T09:42:33.000Z</time>
      </trkpt>
      <trkpt lat="46.35976" lon="6.87162">
        <ele>389.04691093001</ele>
        <time>2012-06-09T09:42:39.000Z</time>
      </trkpt>
      <trkpt lat="46.35974" lon="6.87147">
        <ele>389.87283765101</ele>
        <time>2012-06-09T09:42:46.000Z</time>
      </trkpt>
      <trkpt lat="46.35973" lon="6.87134">
        <ele>390.84098635571</ele>
        <time>2012-06-09T09:42:52.000Z</time>
      </trkpt>
      <trkpt lat="46.35976" lon="6.8712">
        <ele>391.72869044899</ele>
        <time>2012-06-09T09:42:59.000Z</time>
      </trkpt>
      <trkpt lat="46.3598" lon="6.87107">
        <ele>392.7400833143</ele>
        <time>2012-06-09T09:43:05.000Z</time>
      </trkpt>
      <trkpt lat="46.35984" lon="6.87094">
        <ele>394.22805832001</ele>
        <time>2012-06-09T09:43:12.000Z</time>
      </trkpt>
      <trkpt lat="46.35988" lon="6.87082">
        <ele>395.80964082401</ele>
        <time>2012-06-09T09:43:19.000Z</time>
      </trkpt>
      <trkpt lat="46.3599" lon="6.8707">
        <ele>397.5167485768</ele>
        <time>2012-06-09T09:43:26.000Z</time>
      </trkpt>
      <trkpt lat="46.35992" lon="6.87057">
        <ele>399.37172400376</ele>
        <time>2012-06-09T09:43:33.000Z</time>
      </trkpt>
      <trkpt lat="46.35994" lon="6.87043">
        <ele>401.42020680263</ele>
        <time>2012-06-09T09:43:41.000Z</time>
      </trkpt>
      <trkpt lat="46.35996" lon="6.8703">
        <ele>403.54414476184</ele>
        <time>2012-06-09T09:43:49.000Z</time>
      </trkpt>
      <trkpt lat="46.35998" lon="6.87015">
        <ele>405.21090133329</ele>
        <time>2012-06-09T09:43:57.000Z</time>
      </trkpt>
      <trkpt lat="46.35999" lon="6.87001">
        <ele>407.0076309333</ele>
        <time>2012-06-09T09:44:04.000Z</time>
      </trkpt>
      <trkpt lat="46.35999" lon="6.86987">
        <ele>408.74534165331</ele>
        <time>2012-06-09T09:44:12.000Z</time>
      </trkpt>
      <trkpt lat="46.35998" lon="6.86973">
        <ele>410.77173915732</ele>
        <time>2012-06-09T09:44:20.000Z</time>
      </trkpt>
      <trkpt lat="46.35999" lon="6.8696">
        <ele>412.85021741012</ele>
        <time>2012-06-09T09:44:27.000Z</time>
      </trkpt>
      <trkpt lat="46.36002" lon="6.86946">
        <ele>414.66515218709</ele>
        <time>2012-06-09T09:44:35.000Z</time>
      </trkpt>
      <trkpt lat="46.36005" lon="6.86932">
        <ele>416.95560653096</ele>
        <time>2012-06-09T09:44:44.000Z</time>
      </trkpt>
      <trkpt lat="46.36009" lon="6.86918">
        <ele>418.79892457167</ele>
        <time>2012-06-09T09:44:51.000Z</time>
      </trkpt>
      <trkpt lat="46.36017" lon="6.86908">
        <ele>420.86924720017</ele>
        <time>2012-06-09T09:44:59.000Z</time>
      </trkpt>
      <trkpt lat="46.36023" lon="6.86899">
        <ele>423.03847304012</ele>
        <time>2012-06-09T09:45:06.000Z</time>
      </trkpt>
      <trkpt lat="46.3603" lon="6.86888">
        <ele>425.42693112808</ele>
        <time>2012-06-09T09:45:13.000Z</time>
      </trkpt>
      <trkpt lat="46.36035" lon="6.86876">
        <ele>427.78885178966</ele>
        <time>2012-06-09T09:45:22.000Z</time>
      </trkpt>
      <trkpt lat="46.36039" lon="6.86863">
        <ele>430.16219625276</ele>
        <time>2012-06-09T09:45:29.000Z</time>
      </trkpt>
      <trkpt lat="46.36045" lon="6.8685">
        <ele>432.12353737693</ele>
        <time>2012-06-09T09:45:35.000Z</time>
      </trkpt>
      <trkpt lat="46.3605" lon="6.86838">
        <ele>433.01647616385</ele>
        <time>2012-06-09T09:45:41.000Z</time>
      </trkpt>
      <trkpt lat="46.36053" lon="6.86826">
        <ele>433.5215333147</ele>
        <time>2012-06-09T09:45:47.000Z</time>
      </trkpt>
      <trkpt lat="46.36052" lon="6.86812">
        <ele>434.11507332029</ele>
        <time>2012-06-09T09:45:55.000Z</time>
      </trkpt>
      <trkpt lat="46.36044" lon="6.86804">
        <ele>434.4705513242</ele>
        <time>2012-06-09T09:46:02.000Z</time>
      </trkpt>
      <trkpt lat="46.36034" lon="6.868">
        <ele>435.04938592694</ele>
        <time>2012-06-09T09:46:09.000Z</time>
      </trkpt>
      <trkpt lat="46.36024" lon="6.86797">
        <ele>435.03457014886</ele>
        <time>2012-06-09T09:46:16.000Z</time>
      </trkpt>
      <trkpt lat="46.36015" lon="6.86792">
        <ele>434.8441991042</ele>
        <time>2012-06-09T09:46:23.000Z</time>
      </trkpt>
      <trkpt lat="46.36006" lon="6.86789">
        <ele>434.71093937294</ele>
        <time>2012-06-09T09:46:30.000Z</time>
      </trkpt>
      <trkpt lat="46.35997" lon="6.86786">
        <ele>434.70765756106</ele>
        <time>2012-06-09T09:46:37.000Z</time>
      </trkpt>
      <trkpt lat="46.35991" lon="6.86776">
        <ele>434.64536029274</ele>
        <time>2012-06-09T09:46:44.000Z</time>
      </trkpt>
      <trkpt lat="46.35989" lon="6.86762">
        <ele>434.72175220492</ele>
        <time>2012-06-09T09:46:50.000Z</time>
      </trkpt>
      <trkpt lat="46.35989" lon="6.86749">
        <ele>435.37522654344</ele>
        <time>2012-06-09T09:46:57.000Z</time>
      </trkpt>
      <trkpt lat="46.35997" lon="6.86742">
        <ele>436.88265858041</ele>
        <time>2012-06-09T09:47:03.000Z</time>
      </trkpt>
      <trkpt lat="46.36007" lon="6.86744">
        <ele>437.48786100629</ele>
        <time>2012-06-09T09:47:13.000Z</time>
      </trkpt>
      <trkpt lat="46.36016" lon="6.86747">
        <ele>439.2615027044</ele>
        <time>2012-06-09T09:47:20.000Z</time>
      </trkpt>
      <trkpt lat="46.36025" lon="6.86754">
        <ele>441.49305189308</ele>
        <time>2012-06-09T09:47:26.000Z</time>
      </trkpt>
      <trkpt lat="46.36034" lon="6.86758">
        <ele>442.84513632516</ele>
        <time>2012-06-09T09:47:33.000Z</time>
      </trkpt>
      <trkpt lat="46.36042" lon="6.86763">
        <ele>444.57159542761</ele>
        <time>2012-06-09T09:47:39.000Z</time>
      </trkpt>
      <trkpt lat="46.36052" lon="6.86762">
        <ele>445.78011679933</ele>
        <time>2012-06-09T09:47:47.000Z</time>
      </trkpt>
      <trkpt lat="46.36061" lon="6.86759">
        <ele>447.52608175953</ele>
        <time>2012-06-09T09:47:59.000Z</time>
      </trkpt>
      <trkpt lat="46.3607" lon="6.86764">
        <ele>449.13825723167</ele>
        <time>2012-06-09T09:48:06.000Z</time>
      </trkpt>
      <trkpt lat="46.3608" lon="6.86766">
        <ele>450.53678006217</ele>
        <time>2012-06-09T09:48:11.000Z</time>
      </trkpt>
      <trkpt lat="46.3609" lon="6.86767">
        <ele>451.90574604352</ele>
        <time>2012-06-09T09:48:14.000Z</time>
      </trkpt>
      <trkpt lat="46.36099" lon="6.86765">
        <ele>453.61402223046</ele>
        <time>2012-06-09T09:48:19.000Z</time>
      </trkpt>
      <trkpt lat="46.36108" lon="6.86762">
        <ele>455.76981556132</ele>
        <time>2012-06-09T09:48:24.000Z</time>
      </trkpt>
      <trkpt lat="46.36117" lon="6.86763">
        <ele>458.95887089293</ele>
        <time>2012-06-09T09:48:31.000Z</time>
      </trkpt>
      <trkpt lat="46.36126" lon="6.86761">
        <ele>462.30120962505</ele>
        <time>2012-06-09T09:48:37.000Z</time>
      </trkpt>
      <trkpt lat="46.36134" lon="6.86755">
        <ele>465.69084673753</ele>
        <time>2012-06-09T09:48:44.000Z</time>
      </trkpt>
      <trkpt lat="46.36141" lon="6.86747">
        <ele>468.21359271627</ele>
        <time>2012-06-09T09:48:51.000Z</time>
      </trkpt>
      <trkpt lat="46.36148" lon="6.86737">
        <ele>470.09951490139</ele>
        <time>2012-06-09T09:49:00.000Z</time>
      </trkpt>
      <trkpt lat="46.3615" lon="6.86725">
        <ele>472.04966043097</ele>
        <time>2012-06-09T09:49:09.000Z</time>
      </trkpt>
      <trkpt lat="46.36156" lon="6.86713">
        <ele>473.77476230168</ele>
        <time>2012-06-09T09:49:16.000Z</time>
      </trkpt>
      <trkpt lat="46.36164" lon="6.86705">
        <ele>475.34233361118</ele>
        <time>2012-06-09T09:49:24.000Z</time>
      </trkpt>
      <trkpt lat="46.36172" lon="6.86699">
        <ele>477.21963352782</ele>
        <time>2012-06-09T09:49:34.000Z</time>
      </trkpt>
      <trkpt lat="46.36182" lon="6.867">
        <ele>479.07374346948</ele>
        <time>2012-06-09T09:49:40.000Z</time>
      </trkpt>
      <trkpt lat="46.3619" lon="6.86702">
        <ele>481.48162042863</ele>
        <time>2012-06-09T09:49:47.000Z</time>
      </trkpt>
      <trkpt lat="46.36198" lon="6.86704">
        <ele>484.75713430004</ele>
        <time>2012-06-09T09:49:52.000Z</time>
      </trkpt>
      <trkpt lat="46.36207" lon="6.86706">
        <ele>488.48999401003</ele>
        <time>2012-06-09T09:49:58.000Z</time>
      </trkpt>
      <trkpt lat="46.36216" lon="6.86705">
        <ele>491.52299580702</ele>
        <time>2012-06-09T09:50:04.000Z</time>
      </trkpt>
      <trkpt lat="46.36225" lon="6.86704">
        <ele>493.31609706491</ele>
        <time>2012-06-09T09:50:09.000Z</time>
      </trkpt>
      <trkpt lat="46.36235" lon="6.86704">
        <ele>494.63126794544</ele>
        <time>2012-06-09T09:50:16.000Z</time>
      </trkpt>
      <trkpt lat="46.36244" lon="6.86699">
        <ele>496.39188756181</ele>
        <time>2012-06-09T09:50:22.000Z</time>
      </trkpt>
      <trkpt lat="46.36253" lon="6.867">
        <ele>499.15432129327</ele>
        <time>2012-06-09T09:50:30.000Z</time>
      </trkpt>
      <trkpt lat="46.36261" lon="6.86705">
        <ele>502.43802490529</ele>
        <time>2012-06-09T09:50:35.000Z</time>
      </trkpt>
      <trkpt lat="46.3627" lon="6.86709">
        <ele>506.0866174337</ele>
        <time>2012-06-09T09:50:41.000Z</time>
      </trkpt>
      <trkpt lat="46.3628" lon="6.86707">
        <ele>508.19063220359</ele>
        <time>2012-06-09T09:50:47.000Z</time>
      </trkpt>
      <trkpt lat="46.36286" lon="6.86698">
        <ele>508.34344254251</ele>
        <time>2012-06-09T09:50:54.000Z</time>
      </trkpt>
      <trkpt lat="46.3628" lon="6.86687">
        <ele>507.88040977976</ele>
        <time>2012-06-09T09:51:00.000Z</time>
      </trkpt>
      <trkpt lat="46.36271" lon="6.86683">
        <ele>506.26628684583</ele>
        <time>2012-06-09T09:51:06.000Z</time>
      </trkpt>
      <trkpt lat="46.36262" lon="6.86679">
        <ele>504.32640079208</ele>
        <time>2012-06-09T09:51:12.000Z</time>
      </trkpt>
      <trkpt lat="46.36254" lon="6.86673">
        <ele>502.57848055446</ele>
        <time>2012-06-09T09:51:18.000Z</time>
      </trkpt>
      <trkpt lat="46.36246" lon="6.86668">
        <ele>500.33493638812</ele>
        <time>2012-06-09T09:51:24.000Z</time>
      </trkpt>
      <trkpt lat="46.36238" lon="6.8666">
        <ele>497.65445547168</ele>
        <time>2012-06-09T09:51:31.000Z</time>
      </trkpt>
      <trkpt lat="46.3623" lon="6.8665">
        <ele>495.68811883018</ele>
        <time>2012-06-09T09:51:38.000Z</time>
      </trkpt>
      <trkpt lat="46.36222" lon="6.86642">
        <ele>494.34168318113</ele>
        <time>2012-06-09T09:51:45.000Z</time>
      </trkpt>
      <trkpt lat="46.36214" lon="6.86633">
        <ele>493.30917822679</ele>
        <time>2012-06-09T09:51:52.000Z</time>
      </trkpt>
      <trkpt lat="46.36208" lon="6.86624">
        <ele>492.61642475875</ele>
        <time>2012-06-09T09:51:59.000Z</time>
      </trkpt>
      <trkpt lat="46.362" lon="6.86615">
        <ele>492.19149733113</ele>
        <time>2012-06-09T09:52:07.000Z</time>
      </trkpt>
      <trkpt lat="46.36191" lon="6.86611">
        <ele>491.47404813179</ele>
        <time>2012-06-09T09:52:14.000Z</time>
      </trkpt>
      <trkpt lat="46.36182" lon="6.86608">
        <ele>491.15183369225</ele>
        <time>2012-06-09T09:52:20.000Z</time>
      </trkpt>
      <trkpt lat="46.36173" lon="6.86602">
        <ele>490.95628358458</ele>
        <time>2012-06-09T09:52:26.000Z</time>
      </trkpt>
      <trkpt lat="46.36165" lon="6.86597">
        <ele>490.6393985092</ele>
        <time>2012-06-09T09:52:34.000Z</time>
      </trkpt>
      <trkpt lat="46.36156" lon="6.86592">
        <ele>490.53757895644</ele>
        <time>2012-06-09T09:52:41.000Z</time>
      </trkpt>
      <trkpt lat="46.3615" lon="6.86582">
        <ele>491.30630526951</ele>
        <time>2012-06-09T09:52:48.000Z</time>
      </trkpt>
      <trkpt lat="46.36144" lon="6.86574">
        <ele>492.74441368866</ele>
        <time>2012-06-09T09:52:55.000Z</time>
      </trkpt>
      <trkpt lat="46.36136" lon="6.86567">
        <ele>494.26108958206</ele>
        <time>2012-06-09T09:53:02.000Z</time>
      </trkpt>
      <trkpt lat="46.36126" lon="6.86564">
        <ele>495.89276270744</ele>
        <time>2012-06-09T09:53:10.000Z</time>
      </trkpt>
      <trkpt lat="46.36118" lon="6.86559">
        <ele>497.48493389521</ele>
        <time>2012-06-09T09:53:17.000Z</time>
      </trkpt>
      <trkpt lat="46.3611" lon="6.86554">
        <ele>499.19945372665</ele>
        <time>2012-06-09T09:53:23.000Z</time>
      </trkpt>
      <trkpt lat="46.361" lon="6.86549">
        <ele>500.93961760865</ele>
        <time>2012-06-09T09:53:30.000Z</time>
      </trkpt>
      <trkpt lat="46.36089" lon="6.86551">
        <ele>503.08773232606</ele>
        <time>2012-06-09T09:53:37.000Z</time>
      </trkpt>
      <trkpt lat="46.36081" lon="6.86556">
        <ele>505.52141262824</ele>
        <time>2012-06-09T09:53:41.000Z</time>
      </trkpt>
      <trkpt lat="46.36072" lon="6.8656">
        <ele>508.15498883977</ele>
        <time>2012-06-09T09:53:47.000Z</time>
      </trkpt>
      <trkpt lat="46.36064" lon="6.86564">
        <ele>511.46849218784</ele>
        <time>2012-06-09T09:53:53.000Z</time>
      </trkpt>
      <trkpt lat="46.36056" lon="6.86567">
        <ele>515.19794453149</ele>
        <time>2012-06-09T09:53:59.000Z</time>
      </trkpt>
      <trkpt lat="46.36048" lon="6.86564">
        <ele>519.09856117204</ele>
        <time>2012-06-09T09:54:07.000Z</time>
      </trkpt>
      <trkpt lat="46.36049" lon="6.8655">
        <ele>522.30899282043</ele>
        <time>2012-06-09T09:54:15.000Z</time>
      </trkpt>
      <trkpt lat="46.36055" lon="6.8654">
        <ele>524.7362949743</ele>
        <time>2012-06-09T09:54:21.000Z</time>
      </trkpt>
      <trkpt lat="46.36062" lon="6.86531">
        <ele>526.64540648201</ele>
        <time>2012-06-09T09:54:27.000Z</time>
      </trkpt>
      <trkpt lat="46.36068" lon="6.86521">
        <ele>527.95178453741</ele>
        <time>2012-06-09T09:54:33.000Z</time>
      </trkpt>
      <trkpt lat="46.36072" lon="6.86508">
        <ele>528.08624917618</ele>
        <time>2012-06-09T09:54:39.000Z</time>
      </trkpt>
      <trkpt lat="46.36077" lon="6.86496">
        <ele>527.94037442333</ele>
        <time>2012-06-09T09:54:45.000Z</time>
      </trkpt>
      <trkpt lat="46.36084" lon="6.86488">
        <ele>529.09826209633</ele>
        <time>2012-06-09T09:54:52.000Z</time>
      </trkpt>
      <trkpt lat="46.36092" lon="6.86481">
        <ele>531.01878346743</ele>
        <time>2012-06-09T09:54:59.000Z</time>
      </trkpt>
      <trkpt lat="46.36101" lon="6.86476">
        <ele>533.0831484272</ele>
        <time>2012-06-09T09:55:06.000Z</time>
      </trkpt>
      <trkpt lat="46.36109" lon="6.8647">
        <ele>534.94820389904</ele>
        <time>2012-06-09T09:55:12.000Z</time>
      </trkpt>
      <trkpt lat="46.36118" lon="6.86466">
        <ele>537.00374272933</ele>
        <time>2012-06-09T09:55:19.000Z</time>
      </trkpt>
      <trkpt lat="46.36128" lon="6.86464">
        <ele>539.04261991053</ele>
        <time>2012-06-09T09:55:26.000Z</time>
      </trkpt>
      <trkpt lat="46.36136" lon="6.86461">
        <ele>541.51983393737</ele>
        <time>2012-06-09T09:55:33.000Z</time>
      </trkpt>
      <trkpt lat="46.3614" lon="6.8645">
        <ele>544.42388375616</ele>
        <time>2012-06-09T09:55:42.000Z</time>
      </trkpt>
      <trkpt lat="46.36135" lon="6.86437">
        <ele>546.06671862931</ele>
        <time>2012-06-09T09:55:50.000Z</time>
      </trkpt>
      <trkpt lat="46.36129" lon="6.86425">
        <ele>547.12670304052</ele>
        <time>2012-06-09T09:55:57.000Z</time>
      </trkpt>
      <trkpt lat="46.36121" lon="6.86416">
        <ele>548.28869212836</ele>
        <time>2012-06-09T09:56:04.000Z</time>
      </trkpt>
      <trkpt lat="46.36112" lon="6.86415">
        <ele>549.13208448985</ele>
        <time>2012-06-09T09:56:10.000Z</time>
      </trkpt>
      <trkpt lat="46.36102" lon="6.86412">
        <ele>549.7524591429</ele>
        <time>2012-06-09T09:56:17.000Z</time>
      </trkpt>
      <trkpt lat="46.36093" lon="6.86411">
        <ele>550.63672140003</ele>
        <time>2012-06-09T09:56:24.000Z</time>
      </trkpt>
      <trkpt lat="46.36083" lon="6.86411">
        <ele>552.00570498002</ele>
        <time>2012-06-09T09:56:31.000Z</time>
      </trkpt>
      <trkpt lat="46.36074" lon="6.86407">
        <ele>553.92399348601</ele>
        <time>2012-06-09T09:56:36.000Z</time>
      </trkpt>
      <trkpt lat="46.36065" lon="6.86403">
        <ele>555.35679544021</ele>
        <time>2012-06-09T09:56:44.000Z</time>
      </trkpt>
      <trkpt lat="46.36057" lon="6.86394">
        <ele>555.81975680815</ele>
        <time>2012-06-09T09:56:52.000Z</time>
      </trkpt>
      <trkpt lat="46.36051" lon="6.86384">
        <ele>556.0838297657</ele>
        <time>2012-06-09T09:56:59.000Z</time>
      </trkpt>
      <trkpt lat="46.36046" lon="6.86373">
        <ele>556.14868083599</ele>
        <time>2012-06-09T09:57:06.000Z</time>
      </trkpt>
      <trkpt lat="46.3604" lon="6.8636">
        <ele>556.55407658519</ele>
        <time>2012-06-09T09:57:14.000Z</time>
      </trkpt>
      <trkpt lat="46.36035" lon="6.86348">
        <ele>556.98785360964</ele>
        <time>2012-06-09T09:57:22.000Z</time>
      </trkpt>
      <trkpt lat="46.3603" lon="6.86335">
        <ele>557.74149752675</ele>
        <time>2012-06-09T09:57:29.000Z</time>
      </trkpt>
      <trkpt lat="46.36027" lon="6.86323">
        <ele>558.47904826872</ele>
        <time>2012-06-09T09:57:36.000Z</time>
      </trkpt>
      <trkpt lat="46.36025" lon="6.8631">
        <ele>559.32533378811</ele>
        <time>2012-06-09T09:57:43.000Z</time>
      </trkpt>
      <trkpt lat="46.36023" lon="6.86295">
        <ele>560.03773365167</ele>
        <time>2012-06-09T09:57:51.000Z</time>
      </trkpt>
      <trkpt lat="46.3602" lon="6.86282">
        <ele>560.41641355617</ele>
        <time>2012-06-09T09:57:58.000Z</time>
      </trkpt>
      <trkpt lat="46.36015" lon="6.86271">
        <ele>561.07148948932</ele>
        <time>2012-06-09T09:58:05.000Z</time>
      </trkpt>
      <trkpt lat="46.36012" lon="6.86258">
        <ele>562.10004264252</ele>
        <time>2012-06-09T09:58:11.000Z</time>
      </trkpt>
      <trkpt lat="46.36009" lon="6.86246">
        <ele>563.00002984977</ele>
        <time>2012-06-09T09:58:18.000Z</time>
      </trkpt>
      <trkpt lat="46.36001" lon="6.86236">
        <ele>564.23002089484</ele>
        <time>2012-06-09T09:58:25.000Z</time>
      </trkpt>
      <trkpt lat="46.35996" lon="6.86226">
        <ele>565.66101462639</ele>
        <time>2012-06-09T09:58:32.000Z</time>
      </trkpt>
      <trkpt lat="46.35991" lon="6.86212">
        <ele>567.53271023847</ele>
        <time>2012-06-09T09:58:40.000Z</time>
      </trkpt>
      <trkpt lat="46.35983" lon="6.86205">
        <ele>569.08289716693</ele>
        <time>2012-06-09T09:58:46.000Z</time>
      </trkpt>
      <trkpt lat="46.35975" lon="6.86197">
        <ele>570.19802801685</ele>
        <time>2012-06-09T09:58:52.000Z</time>
      </trkpt>
      <trkpt lat="46.35966" lon="6.86193">
        <ele>571.4286196118</ele>
        <time>2012-06-09T09:58:58.000Z</time>
      </trkpt>
      <trkpt lat="46.3596" lon="6.86182">
        <ele>572.53003372826</ele>
        <time>2012-06-09T09:59:04.000Z</time>
      </trkpt>
      <trkpt lat="46.35954" lon="6.86172">
        <ele>573.63102360978</ele>
        <time>2012-06-09T09:59:12.000Z</time>
      </trkpt>
      <trkpt lat="46.35947" lon="6.86161">
        <ele>574.61171652685</ele>
        <time>2012-06-09T09:59:20.000Z</time>
      </trkpt>
      <trkpt lat="46.35943" lon="6.86149">
        <ele>575.47820156879</ele>
        <time>2012-06-09T09:59:27.000Z</time>
      </trkpt>
      <trkpt lat="46.35934" lon="6.86145">
        <ele>576.14474109815</ele>
        <time>2012-06-09T09:59:33.000Z</time>
      </trkpt>
      <trkpt lat="46.35923" lon="6.86142">
        <ele>577.00131876871</ele>
        <time>2012-06-09T09:59:39.000Z</time>
      </trkpt>
      <trkpt lat="46.35917" lon="6.86133">
        <ele>577.9009231381</ele>
        <time>2012-06-09T09:59:45.000Z</time>
      </trkpt>
      <trkpt lat="46.35911" lon="6.86123">
        <ele>579.28064619667</ele>
        <time>2012-06-09T09:59:52.000Z</time>
      </trkpt>
      <trkpt lat="46.35905" lon="6.86114">
        <ele>580.87645233767</ele>
        <time>2012-06-09T10:00:00.000Z</time>
      </trkpt>
      <trkpt lat="46.359" lon="6.86102">
        <ele>582.62351663637</ele>
        <time>2012-06-09T10:00:07.000Z</time>
      </trkpt>
      <trkpt lat="46.35895" lon="6.8609">
        <ele>584.29646164546</ele>
        <time>2012-06-09T10:00:15.000Z</time>
      </trkpt>
      <trkpt lat="46.35888" lon="6.8608">
        <ele>585.94752315182</ele>
        <time>2012-06-09T10:00:23.000Z</time>
      </trkpt>
      <trkpt lat="46.35883" lon="6.86068">
        <ele>587.76326620627</ele>
        <time>2012-06-09T10:00:30.000Z</time>
      </trkpt>
      <trkpt lat="46.35877" lon="6.86058">
        <ele>590.11428634439</ele>
        <time>2012-06-09T10:00:37.000Z</time>
      </trkpt>
      <trkpt lat="46.3587" lon="6.8605">
        <ele>592.66000044107</ele>
        <time>2012-06-09T10:00:44.000Z</time>
      </trkpt>
      <trkpt lat="46.35862" lon="6.86044">
        <ele>594.95200030875</ele>
        <time>2012-06-09T10:00:51.000Z</time>
      </trkpt>
      <trkpt lat="46.35854" lon="6.86035">
        <ele>597.18640021613</ele>
        <time>2012-06-09T10:00:58.000Z</time>
      </trkpt>
      <trkpt lat="46.35847" lon="6.86025">
        <ele>599.74048015129</ele>
        <time>2012-06-09T10:01:07.000Z</time>
      </trkpt>
      <trkpt lat="46.35843" lon="6.86013">
        <ele>602.1583361059</ele>
        <time>2012-06-09T10:01:16.000Z</time>
      </trkpt>
      <trkpt lat="46.35844" lon="6.85999">
        <ele>603.85083527413</ele>
        <time>2012-06-09T10:01:24.000Z</time>
      </trkpt>
      <trkpt lat="46.35851" lon="6.8599">
        <ele>605.99558469189</ele>
        <time>2012-06-09T10:01:32.000Z</time>
      </trkpt>
      <trkpt lat="46.35862" lon="6.85987">
        <ele>608.63690928432</ele>
        <time>2012-06-09T10:01:41.000Z</time>
      </trkpt>
      <trkpt lat="46.35871" lon="6.85991">
        <ele>611.65583649903</ele>
        <time>2012-06-09T10:01:47.000Z</time>
      </trkpt>
      <trkpt lat="46.35878" lon="6.86001">
        <ele>614.84908554932</ele>
        <time>2012-06-09T10:01:52.000Z</time>
      </trkpt>
      <trkpt lat="46.35883" lon="6.86012">
        <ele>617.05435988452</ele>
        <time>2012-06-09T10:01:58.000Z</time>
      </trkpt>
      <trkpt lat="46.35888" lon="6.86024">
        <ele>619.28805191917</ele>
        <time>2012-06-09T10:02:04.000Z</time>
      </trkpt>
      <trkpt lat="46.35893" lon="6.86035">
        <ele>621.75163634342</ele>
        <time>2012-06-09T10:02:11.000Z</time>
      </trkpt>
      <trkpt lat="46.35899" lon="6.86044">
        <ele>624.97614544039</ele>
        <time>2012-06-09T10:02:17.000Z</time>
      </trkpt>
      <trkpt lat="46.35903" lon="6.86054">
        <ele>628.52330180827</ele>
        <time>2012-06-09T10:02:23.000Z</time>
      </trkpt>
      <trkpt lat="46.35909" lon="6.86064">
        <ele>631.54631126579</ele>
        <time>2012-06-09T10:02:29.000Z</time>
      </trkpt>
      <trkpt lat="46.35914" lon="6.86076">
        <ele>634.53241788605</ele>
        <time>2012-06-09T10:02:35.000Z</time>
      </trkpt>
      <trkpt lat="46.3592" lon="6.86086">
        <ele>637.91269252024</ele>
        <time>2012-06-09T10:02:41.000Z</time>
      </trkpt>
      <trkpt lat="46.35927" lon="6.86096">
        <ele>640.75888476417</ele>
        <time>2012-06-09T10:02:48.000Z</time>
      </trkpt>
      <trkpt lat="46.35936" lon="6.86103">
        <ele>643.44121933492</ele>
        <time>2012-06-09T10:02:55.000Z</time>
      </trkpt>
      <trkpt lat="46.35944" lon="6.86109">
        <ele>645.94885353444</ele>
        <time>2012-06-09T10:03:04.000Z</time>
      </trkpt>
      <trkpt lat="46.35957" lon="6.86111">
        <ele>647.94419747411</ele>
        <time>2012-06-09T10:03:09.000Z</time>
      </trkpt>
      <trkpt lat="46.35967" lon="6.86108">
        <ele>649.37093823188</ele>
        <time>2012-06-09T10:03:17.000Z</time>
      </trkpt>
      <trkpt lat="46.35976" lon="6.86101">
        <ele>650.42965676231</ele>
        <time>2012-06-09T10:03:23.000Z</time>
      </trkpt>
      <trkpt lat="46.35983" lon="6.86092">
        <ele>651.41075973362</ele>
        <time>2012-06-09T10:03:30.000Z</time>
      </trkpt>
      <trkpt lat="46.35986" lon="6.86078">
        <ele>652.12753181353</ele>
        <time>2012-06-09T10:03:38.000Z</time>
      </trkpt>
      <trkpt lat="46.3598" lon="6.86067">
        <ele>652.77927226947</ele>
        <time>2012-06-09T10:03:45.000Z</time>
      </trkpt>
      <trkpt lat="46.35971" lon="6.86069">
        <ele>653.32549058863</ele>
        <time>2012-06-09T10:03:51.000Z</time>
      </trkpt>
      <trkpt lat="46.35963" lon="6.86074">
        <ele>653.97784341204</ele>
        <time>2012-06-09T10:03:57.000Z</time>
      </trkpt>
      <trkpt lat="46.35951" lon="6.86074">
        <ele>654.73449038843</ele>
        <time>2012-06-09T10:04:05.000Z</time>
      </trkpt>
      <trkpt lat="46.35943" lon="6.86069">
        <ele>655.3841432719</ele>
        <time>2012-06-09T10:04:10.000Z</time>
      </trkpt>
      <trkpt lat="46.35934" lon="6.86065">
        <ele>655.80890029033</ele>
        <time>2012-06-09T10:04:17.000Z</time>
      </trkpt>
      <trkpt lat="46.35926" lon="6.86058">
        <ele>656.13623020323</ele>
        <time>2012-06-09T10:04:26.000Z</time>
      </trkpt>
      <trkpt lat="46.35926" lon="6.86044">
        <ele>656.45536114226</ele>
        <time>2012-06-09T10:04:33.000Z</time>
      </trkpt>
      <trkpt lat="46.35923" lon="6.86031">
        <ele>656.49875279958</ele>
        <time>2012-06-09T10:04:41.000Z</time>
      </trkpt>
      <trkpt lat="46.35921" lon="6.86017">
        <ele>656.49912695971</ele>
        <time>2012-06-09T10:04:53.000Z</time>
      </trkpt>
      <trkpt lat="46.35922" lon="6.86001">
        <ele>656.5593888718</ele>
        <time>2012-06-09T10:05:01.000Z</time>
      </trkpt>
      <trkpt lat="46.35919" lon="6.85988">
        <ele>656.60157221026</ele>
        <time>2012-06-09T10:05:07.000Z</time>
      </trkpt>
      <trkpt lat="46.35915" lon="6.85975">
        <ele>656.87110054718</ele>
        <time>2012-06-09T10:05:14.000Z</time>
      </trkpt>
      <trkpt lat="46.35906" lon="6.85969">
        <ele>657.83977038303</ele>
        <time>2012-06-09T10:05:21.000Z</time>
      </trkpt>
      <trkpt lat="46.35897" lon="6.85963">
        <ele>659.23783926812</ele>
        <time>2012-06-09T10:05:28.000Z</time>
      </trkpt>
      <trkpt lat="46.35891" lon="6.85953">
        <ele>660.18648748768</ele>
        <time>2012-06-09T10:05:37.000Z</time>
      </trkpt>
      <trkpt lat="46.35888" lon="6.8594">
        <ele>661.21054124138</ele>
        <time>2012-06-09T10:05:44.000Z</time>
      </trkpt>
      <trkpt lat="46.35885" lon="6.85927">
        <ele>661.95737886896</ele>
        <time>2012-06-09T10:05:52.000Z</time>
      </trkpt>
      <trkpt lat="46.35882" lon="6.85914">
        <ele>662.66016520828</ele>
        <time>2012-06-09T10:05:58.000Z</time>
      </trkpt>
      <trkpt lat="46.35877" lon="6.85902">
        <ele>663.48211564579</ele>
        <time>2012-06-09T10:06:05.000Z</time>
      </trkpt>
      <trkpt lat="46.35872" lon="6.85892">
        <ele>664.11748095205</ele>
        <time>2012-06-09T10:06:12.000Z</time>
      </trkpt>
      <trkpt lat="46.35867" lon="6.8588">
        <ele>664.86223666644</ele>
        <time>2012-06-09T10:06:19.000Z</time>
      </trkpt>
      <trkpt lat="46.35861" lon="6.85868">
        <ele>665.56356566651</ele>
        <time>2012-06-09T10:06:27.000Z</time>
      </trkpt>
      <trkpt lat="46.35852" lon="6.85861">
        <ele>666.08449596655</ele>
        <time>2012-06-09T10:06:34.000Z</time>
      </trkpt>
      <trkpt lat="46.35845" lon="6.85853">
        <ele>666.86914717659</ele>
        <time>2012-06-09T10:06:40.000Z</time>
      </trkpt>
      <trkpt lat="46.35834" lon="6.85852">
        <ele>667.77840302361</ele>
        <time>2012-06-09T10:06:47.000Z</time>
      </trkpt>
      <trkpt lat="46.35824" lon="6.85848">
        <ele>668.98488211653</ele>
        <time>2012-06-09T10:06:53.000Z</time>
      </trkpt>
      <trkpt lat="46.3582" lon="6.85836">
        <ele>670.18941748157</ele>
        <time>2012-06-09T10:06:59.000Z</time>
      </trkpt>
      <trkpt lat="46.35811" lon="6.85831">
        <ele>671.3625922371</ele>
        <time>2012-06-09T10:07:07.000Z</time>
      </trkpt>
      <trkpt lat="46.35801" lon="6.85831">
        <ele>672.84381456597</ele>
        <time>2012-06-09T10:07:14.000Z</time>
      </trkpt>
      <trkpt lat="46.35791" lon="6.85828">
        <ele>674.45067019618</ele>
        <time>2012-06-09T10:07:21.000Z</time>
      </trkpt>
      <trkpt lat="46.35786" lon="6.85818">
        <ele>674.97546913732</ele>
        <time>2012-06-09T10:07:29.000Z</time>
      </trkpt>
      <trkpt lat="46.35778" lon="6.85807">
        <ele>674.98282839613</ele>
        <time>2012-06-09T10:07:38.000Z</time>
      </trkpt>
      <trkpt lat="46.35772" lon="6.85796">
        <ele>675.04797987729</ele>
        <time>2012-06-09T10:07:46.000Z</time>
      </trkpt>
      <trkpt lat="46.35764" lon="6.85789">
        <ele>675.5435859141</ele>
        <time>2012-06-09T10:07:52.000Z</time>
      </trkpt>
      <trkpt lat="46.35757" lon="6.85783">
        <ele>676.49051013987</ele>
        <time>2012-06-09T10:07:59.000Z</time>
      </trkpt>
      <trkpt lat="46.35748" lon="6.85776">
        <ele>677.30335709791</ele>
        <time>2012-06-09T10:08:06.000Z</time>
      </trkpt>
      <trkpt lat="46.35741" lon="6.85767">
        <ele>677.99234996854</ele>
        <time>2012-06-09T10:08:12.000Z</time>
      </trkpt>
      <trkpt lat="46.35736" lon="6.85755">
        <ele>679.43464497798</ele>
        <time>2012-06-09T10:08:19.000Z</time>
      </trkpt>
      <trkpt lat="46.35729" lon="6.85745">
        <ele>680.38425148458</ele>
        <time>2012-06-09T10:08:27.000Z</time>
      </trkpt>
      <trkpt lat="46.35724" lon="6.85733">
        <ele>680.86897603921</ele>
        <time>2012-06-09T10:08:34.000Z</time>
      </trkpt>
      <trkpt lat="46.35718" lon="6.85724">
        <ele>681.11828322745</ele>
        <time>2012-06-09T10:08:41.000Z</time>
      </trkpt>
      <trkpt lat="46.35711" lon="6.85712">
        <ele>681.38279825921</ele>
        <time>2012-06-09T10:08:49.000Z</time>
      </trkpt>
      <trkpt lat="46.35703" lon="6.85705">
        <ele>681.83795878145</ele>
        <time>2012-06-09T10:08:56.000Z</time>
      </trkpt>
      <trkpt lat="46.35694" lon="6.85699">
        <ele>682.21657114701</ele>
        <time>2012-06-09T10:09:03.000Z</time>
      </trkpt>
      <trkpt lat="46.35684" lon="6.857">
        <ele>682.63159980291</ele>
        <time>2012-06-09T10:09:10.000Z</time>
      </trkpt>
      <trkpt lat="46.35677" lon="6.85706">
        <ele>683.88211986204</ele>
        <time>2012-06-09T10:09:15.000Z</time>
      </trkpt>
      <trkpt lat="46.35667" lon="6.85716">
        <ele>685.74748390343</ele>
        <time>2012-06-09T10:09:20.000Z</time>
      </trkpt>
      <trkpt lat="46.35663" lon="6.85727">
        <ele>687.9832387324</ele>
        <time>2012-06-09T10:09:26.000Z</time>
      </trkpt>
      <trkpt lat="46.35659" lon="6.85741">
        <ele>690.59826711268</ele>
        <time>2012-06-09T10:09:32.000Z</time>
      </trkpt>
      <trkpt lat="46.3566" lon="6.85754">
        <ele>693.32878697888</ele>
        <time>2012-06-09T10:09:39.000Z</time>
      </trkpt>
      <trkpt lat="46.35664" lon="6.85766">
        <ele>695.57015088521</ele>
        <time>2012-06-09T10:09:44.000Z</time>
      </trkpt>
      <trkpt lat="46.35669" lon="6.8578">
        <ele>697.52910561965</ele>
        <time>2012-06-09T10:09:50.000Z</time>
      </trkpt>
      <trkpt lat="46.35664" lon="6.8579">
        <ele>699.02037393375</ele>
        <time>2012-06-09T10:09:53.000Z</time>
      </trkpt>
      <trkpt lat="46.35665" lon="6.85804">
        <ele>700.30426175363</ele>
        <time>2012-06-09T10:10:00.000Z</time>
      </trkpt>
      <trkpt lat="46.35667" lon="6.85819">
        <ele>701.23298322754</ele>
        <time>2012-06-09T10:10:08.000Z</time>
      </trkpt>
      <trkpt lat="46.35664" lon="6.85832">
        <ele>701.58308825928</ele>
        <time>2012-06-09T10:10:14.000Z</time>
      </trkpt>
      <trkpt lat="46.35655" lon="6.85829">
        <ele>701.40816178149</ele>
        <time>2012-06-09T10:10:21.000Z</time>
      </trkpt>
      <trkpt lat="46.35652" lon="6.85816">
        <ele>701.04571324705</ele>
        <time>2012-06-09T10:10:28.000Z</time>
      </trkpt>
      <trkpt lat="46.35651" lon="6.85803">
        <ele>700.64199927293</ele>
        <time>2012-06-09T10:10:34.000Z</time>
      </trkpt>
      <trkpt lat="46.35649" lon="6.8579">
        <ele>700.32939949105</ele>
        <time>2012-06-09T10:10:39.000Z</time>
      </trkpt>
      <trkpt lat="46.35644" lon="6.85777">
        <ele>700.23057964374</ele>
        <time>2012-06-09T10:10:47.000Z</time>
      </trkpt>
      <trkpt lat="46.3564" lon="6.85764">
        <ele>700.10140575062</ele>
        <time>2012-06-09T10:10:52.000Z</time>
      </trkpt>
      <trkpt lat="46.35633" lon="6.85754">
        <ele>700.01098402543</ele>
        <time>2012-06-09T10:10:59.000Z</time>
      </trkpt>
      <trkpt lat="46.35629" lon="6.85742">
        <ele>700.0376888178</ele>
        <time>2012-06-09T10:11:06.000Z</time>
      </trkpt>
      <trkpt lat="46.35627" lon="6.85727">
        <ele>700.11638217246</ele>
        <time>2012-06-09T10:11:12.000Z</time>
      </trkpt>
      <trkpt lat="46.35625" lon="6.85714">
        <ele>700.23146752072</ele>
        <time>2012-06-09T10:11:17.000Z</time>
      </trkpt>
      <trkpt lat="46.35623" lon="6.85701">
        <ele>700.31202726451</ele>
        <time>2012-06-09T10:11:23.000Z</time>
      </trkpt>
      <trkpt lat="46.35624" lon="6.85688">
        <ele>700.36841908515</ele>
        <time>2012-06-09T10:11:29.000Z</time>
      </trkpt>
      <trkpt lat="46.35624" lon="6.85674">
        <ele>700.37789335961</ele>
        <time>2012-06-09T10:11:35.000Z</time>
      </trkpt>
      <trkpt lat="46.35621" lon="6.85661">
        <ele>700.23452535173</ele>
        <time>2012-06-09T10:11:43.000Z</time>
      </trkpt>
      <trkpt lat="46.35621" lon="6.85647">
        <ele>700.10416774621</ele>
        <time>2012-06-09T10:11:48.000Z</time>
      </trkpt>
      <trkpt lat="46.35626" lon="6.85637">
        <ele>700.01291742235</ele>
        <time>2012-06-09T10:11:55.000Z</time>
      </trkpt>
      <trkpt lat="46.35634" lon="6.85625">
        <ele>700.09904219564</ele>
        <time>2012-06-09T10:12:01.000Z</time>
      </trkpt>
      <trkpt lat="46.35641" lon="6.85617">
        <ele>700.21932953695</ele>
        <time>2012-06-09T10:12:08.000Z</time>
      </trkpt>
      <trkpt lat="46.35651" lon="6.85615">
        <ele>700.51353067586</ele>
        <time>2012-06-09T10:12:20.000Z</time>
      </trkpt>
      <trkpt lat="46.35658" lon="6.85624">
        <ele>700.92947147311</ele>
        <time>2012-06-09T10:12:27.000Z</time>
      </trkpt>
      <trkpt lat="46.35669" lon="6.85625">
        <ele>701.52063003117</ele>
        <time>2012-06-09T10:12:34.000Z</time>
      </trkpt>
      <trkpt lat="46.35668" lon="6.85611">
        <ele>702.14444102182</ele>
        <time>2012-06-09T10:12:41.000Z</time>
      </trkpt>
      <trkpt lat="46.35659" lon="6.85605">
        <ele>703.06110871528</ele>
        <time>2012-06-09T10:12:49.000Z</time>
      </trkpt>
      <trkpt lat="46.35665" lon="6.85596">
        <ele>704.75277610069</ele>
        <time>2012-06-09T10:13:00.000Z</time>
      </trkpt>
      <trkpt lat="46.35657" lon="6.85591">
        <ele>706.80694327048</ele>
        <time>2012-06-09T10:13:07.000Z</time>
      </trkpt>
      <trkpt lat="46.35649" lon="6.85586">
        <ele>709.05486028934</ele>
        <time>2012-06-09T10:13:14.000Z</time>
      </trkpt>
      <trkpt lat="46.35638" lon="6.85586">
        <ele>711.01840220254</ele>
        <time>2012-06-09T10:13:24.000Z</time>
      </trkpt>
      <trkpt lat="46.35629" lon="6.85587">
        <ele>712.45288154178</ele>
        <time>2012-06-09T10:13:29.000Z</time>
      </trkpt>
      <trkpt lat="46.3562" lon="6.85594">
        <ele>713.54701707924</ele>
        <time>2012-06-09T10:13:34.000Z</time>
      </trkpt>
      <trkpt lat="46.35609" lon="6.85595">
        <ele>714.46291195547</ele>
        <time>2012-06-09T10:13:36.000Z</time>
      </trkpt>
      <trkpt lat="46.35601" lon="6.85602">
        <ele>714.98403836883</ele>
        <time>2012-06-09T10:13:41.000Z</time>
      </trkpt>
      <trkpt lat="46.35593" lon="6.85605">
        <ele>715.16882685818</ele>
        <time>2012-06-09T10:13:48.000Z</time>
      </trkpt>
      <trkpt lat="46.35588" lon="6.85591">
        <ele>715.29817880073</ele>
        <time>2012-06-09T10:13:55.000Z</time>
      </trkpt>
      <trkpt lat="46.35594" lon="6.8558">
        <ele>715.35872516051</ele>
        <time>2012-06-09T10:14:01.000Z</time>
      </trkpt>
      <trkpt lat="46.356" lon="6.85569">
        <ele>715.46110761236</ele>
        <time>2012-06-09T10:14:07.000Z</time>
      </trkpt>
      <trkpt lat="46.35605" lon="6.85557">
        <ele>715.62277532865</ele>
        <time>2012-06-09T10:14:13.000Z</time>
      </trkpt>
      <trkpt lat="46.35609" lon="6.85544">
        <ele>715.76594273005</ele>
        <time>2012-06-09T10:14:19.000Z</time>
      </trkpt>
      <trkpt lat="46.35618" lon="6.85536">
        <ele>715.95615991104</ele>
        <time>2012-06-09T10:14:25.000Z</time>
      </trkpt>
      <trkpt lat="46.35627" lon="6.8553">
        <ele>716.32931193773</ele>
        <time>2012-06-09T10:14:33.000Z</time>
      </trkpt>
      <trkpt lat="46.35634" lon="6.8552">
        <ele>716.80051835641</ele>
        <time>2012-06-09T10:14:41.000Z</time>
      </trkpt>
      <trkpt lat="46.35643" lon="6.85516">
        <ele>717.16036284949</ele>
        <time>2012-06-09T10:14:47.000Z</time>
      </trkpt>
      <trkpt lat="46.35653" lon="6.85519">
        <ele>717.68225399464</ele>
        <time>2012-06-09T10:14:53.000Z</time>
      </trkpt>
      <trkpt lat="46.35662" lon="6.85523">
        <ele>718.10757779625</ele>
        <time>2012-06-09T10:14:57.000Z</time>
      </trkpt>
      <trkpt lat="46.35667" lon="6.85534">
        <ele>718.79530445737</ele>
        <time>2012-06-09T10:15:02.000Z</time>
      </trkpt>
      <trkpt lat="46.35675" lon="6.85543">
        <ele>719.48671312016</ele>
        <time>2012-06-09T10:15:08.000Z</time>
      </trkpt>
      <trkpt lat="46.35685" lon="6.8554">
        <ele>720.21069918411</ele>
        <time>2012-06-09T10:15:15.000Z</time>
      </trkpt>
      <trkpt lat="46.35691" lon="6.8553">
        <ele>720.89748942888</ele>
        <time>2012-06-09T10:15:21.000Z</time>
      </trkpt>
      <trkpt lat="46.35697" lon="6.85518">
        <ele>721.61824260022</ele>
        <time>2012-06-09T10:15:26.000Z</time>
      </trkpt>
      <trkpt lat="46.35703" lon="6.8551">
        <ele>724.25276982015</ele>
        <time>2012-06-09T10:15:40.000Z</time>
      </trkpt>
      <trkpt lat="46.3571" lon="6.85501">
        <ele>726.54693887411</ele>
        <time>2012-06-09T10:15:46.000Z</time>
      </trkpt>
      <trkpt lat="46.35719" lon="6.85495">
        <ele>728.60285721187</ele>
        <time>2012-06-09T10:15:50.000Z</time>
      </trkpt>
      <trkpt lat="46.35728" lon="6.85489">
        <ele>730.52200004831</ele>
        <time>2012-06-09T10:15:54.000Z</time>
      </trkpt>
      <trkpt lat="46.35738" lon="6.85487">
        <ele>732.31540003382</ele>
        <time>2012-06-09T10:15:59.000Z</time>
      </trkpt>
      <trkpt lat="46.35747" lon="6.85494">
        <ele>733.78078002367</ele>
        <time>2012-06-09T10:16:05.000Z</time>
      </trkpt>
      <trkpt lat="46.35751" lon="6.85507">
        <ele>734.80654601657</ele>
        <time>2012-06-09T10:16:11.000Z</time>
      </trkpt>
      <trkpt lat="46.35756" lon="6.85518">
        <ele>735.4345822116</ele>
        <time>2012-06-09T10:16:17.000Z</time>
      </trkpt>
      <trkpt lat="46.35762" lon="6.85529">
        <ele>735.48420754812</ele>
        <time>2012-06-09T10:16:25.000Z</time>
      </trkpt>
      <trkpt lat="46.35767" lon="6.85541">
        <ele>735.03894528368</ele>
        <time>2012-06-09T10:16:33.000Z</time>
      </trkpt>
      <trkpt lat="46.35772" lon="6.85553">
        <ele>733.97726169858</ele>
        <time>2012-06-09T10:16:41.000Z</time>
      </trkpt>
      <trkpt lat="46.35777" lon="6.85564">
        <ele>732.33408318901</ele>
        <time>2012-06-09T10:16:49.000Z</time>
      </trkpt>
      <trkpt lat="46.35779" lon="6.85576">
        <ele>730.7638582323</ele>
        <time>2012-06-09T10:16:56.000Z</time>
      </trkpt>
      <trkpt lat="46.35783" lon="6.85588">
        <ele>728.79470076261</ele>
        <time>2012-06-09T10:17:03.000Z</time>
      </trkpt>
      <trkpt lat="46.35792" lon="6.85595">
        <ele>726.84629053383</ele>
        <time>2012-06-09T10:17:11.000Z</time>
      </trkpt>
      <trkpt lat="46.358" lon="6.85603">
        <ele>725.03240337368</ele>
        <time>2012-06-09T10:17:18.000Z</time>
      </trkpt>
      <trkpt lat="46.35809" lon="6.85604">
        <ele>724.75268236158</ele>
        <time>2012-06-09T10:17:24.000Z</time>
      </trkpt>
      <trkpt lat="46.35816" lon="6.85594">
        <ele>725.0068776531</ele>
        <time>2012-06-09T10:17:31.000Z</time>
      </trkpt>
      <trkpt lat="46.35826" lon="6.85591">
        <ele>725.96481435717</ele>
        <time>2012-06-09T10:17:38.000Z</time>
      </trkpt>
      <trkpt lat="46.35835" lon="6.85599">
        <ele>727.74537005002</ele>
        <time>2012-06-09T10:17:51.000Z</time>
      </trkpt>
      <trkpt lat="46.35846" lon="6.85609">
        <ele>729.38175903501</ele>
        <time>2012-06-09T10:17:56.000Z</time>
      </trkpt>
      <trkpt lat="46.35854" lon="6.85617">
        <ele>730.76723132451</ele>
        <time>2012-06-09T10:18:01.000Z</time>
      </trkpt>
      <trkpt lat="46.35861" lon="6.85625">
        <ele>731.97706192716</ele>
        <time>2012-06-09T10:18:06.000Z</time>
      </trkpt>
      <trkpt lat="46.35865" lon="6.85637">
        <ele>732.85394334901</ele>
        <time>2012-06-09T10:18:12.000Z</time>
      </trkpt>
      <trkpt lat="46.35872" lon="6.85648">
        <ele>733.70776034431</ele>
        <time>2012-06-09T10:18:19.000Z</time>
      </trkpt>
      <trkpt lat="46.35873" lon="6.85661">
        <ele>734.60543224102</ele>
        <time>2012-06-09T10:18:28.000Z</time>
      </trkpt>
      <trkpt lat="46.35877" lon="6.85675">
        <ele>735.29380256871</ele>
        <time>2012-06-09T10:18:34.000Z</time>
      </trkpt>
      <trkpt lat="46.35884" lon="6.85683">
        <ele>736.5256617981</ele>
        <time>2012-06-09T10:18:39.000Z</time>
      </trkpt>
      <trkpt lat="46.35893" lon="6.85684">
        <ele>738.40796325867</ele>
        <time>2012-06-09T10:18:48.000Z</time>
      </trkpt>
      <trkpt lat="46.35902" lon="6.85681">
        <ele>740.29557428107</ele>
        <time>2012-06-09T10:18:53.000Z</time>
      </trkpt>
      <trkpt lat="46.35911" lon="6.85679">
        <ele>742.03690199675</ele>
        <time>2012-06-09T10:18:57.000Z</time>
      </trkpt>
      <trkpt lat="46.35919" lon="6.85672">
        <ele>743.85583139772</ele>
        <time>2012-06-09T10:19:02.000Z</time>
      </trkpt>
      <trkpt lat="46.3593" lon="6.85672">
        <ele>745.90908197841</ele>
        <time>2012-06-09T10:19:08.000Z</time>
      </trkpt>
      <trkpt lat="46.35939" lon="6.85669">
        <ele>748.00635738488</ele>
        <time>2012-06-09T10:19:14.000Z</time>
      </trkpt>
      <trkpt lat="46.35948" lon="6.85672">
        <ele>750.01445016942</ele>
        <time>2012-06-09T10:19:21.000Z</time>
      </trkpt>
      <trkpt lat="46.35954" lon="6.85663">
        <ele>752.14011511859</ele>
        <time>2012-06-09T10:19:28.000Z</time>
      </trkpt>
      <trkpt lat="46.35946" lon="6.85656">
        <ele>754.16808058302</ele>
        <time>2012-06-09T10:19:36.000Z</time>
      </trkpt>
      <trkpt lat="46.35936" lon="6.85657">
        <ele>756.18765640811</ele>
        <time>2012-06-09T10:19:43.000Z</time>
      </trkpt>
      <trkpt lat="46.35928" lon="6.85659">
        <ele>758.26135948568</ele>
        <time>2012-06-09T10:19:50.000Z</time>
      </trkpt>
      <trkpt lat="46.35919" lon="6.85661">
        <ele>760.31295163997</ele>
        <time>2012-06-09T10:19:56.000Z</time>
      </trkpt>
      <trkpt lat="46.35909" lon="6.85659">
        <ele>762.28906614798</ele>
        <time>2012-06-09T10:20:02.000Z</time>
      </trkpt>
      <trkpt lat="46.35901" lon="6.85654">
        <ele>764.18234630359</ele>
        <time>2012-06-09T10:20:07.000Z</time>
      </trkpt>
      <trkpt lat="46.35896" lon="6.85643">
        <ele>764.60764241251</ele>
        <time>2012-06-09T10:20:13.000Z</time>
      </trkpt>
      <trkpt lat="46.35891" lon="6.8563">
        <ele>764.54534968876</ele>
        <time>2012-06-09T10:20:19.000Z</time>
      </trkpt>
      <trkpt lat="46.35892" lon="6.85616">
        <ele>763.93174478213</ele>
        <time>2012-06-09T10:20:28.000Z</time>
      </trkpt>
      <trkpt lat="46.3589" lon="6.85602">
        <ele>762.99222134749</ele>
        <time>2012-06-09T10:20:37.000Z</time>
      </trkpt>
      <trkpt lat="46.35887" lon="6.85589">
        <ele>762.00455494324</ele>
        <time>2012-06-09T10:20:44.000Z</time>
      </trkpt>
      <trkpt lat="46.35883" lon="6.85576">
        <ele>760.98318846027</ele>
        <time>2012-06-09T10:20:51.000Z</time>
      </trkpt>
      <trkpt lat="46.35874" lon="6.85571">
        <ele>760.32823192219</ele>
        <time>2012-06-09T10:20:55.000Z</time>
      </trkpt>
      <trkpt lat="46.35869" lon="6.8556">
        <ele>759.83976234553</ele>
        <time>2012-06-09T10:20:59.000Z</time>
      </trkpt>
      <trkpt lat="46.35865" lon="6.85547">
        <ele>759.28783364187</ele>
        <time>2012-06-09T10:21:05.000Z</time>
      </trkpt>
      <trkpt lat="46.35863" lon="6.85533">
        <ele>758.72148354931</ele>
        <time>2012-06-09T10:21:12.000Z</time>
      </trkpt>
      <trkpt lat="46.35857" lon="6.85521">
        <ele>758.50503848452</ele>
        <time>2012-06-09T10:21:15.000Z</time>
      </trkpt>
      <trkpt lat="46.35854" lon="6.8551">
        <ele>758.23352693916</ele>
        <time>2012-06-09T10:21:21.000Z</time>
      </trkpt>
      <trkpt lat="46.35847" lon="6.85499">
        <ele>757.92346885741</ele>
        <time>2012-06-09T10:21:24.000Z</time>
      </trkpt>
      <trkpt lat="46.35843" lon="6.85486">
        <ele>757.19642820019</ele>
        <time>2012-06-09T10:21:32.000Z</time>
      </trkpt>
      <trkpt lat="46.35836" lon="6.85478">
        <ele>756.65749974013</ele>
        <time>2012-06-09T10:21:37.000Z</time>
      </trkpt>
      <trkpt lat="46.35828" lon="6.85472">
        <ele>755.95024981809</ele>
        <time>2012-06-09T10:21:44.000Z</time>
      </trkpt>
      <trkpt lat="46.35819" lon="6.85469">
        <ele>755.15517487266</ele>
        <time>2012-06-09T10:21:50.000Z</time>
      </trkpt>
      <trkpt lat="46.35813" lon="6.85459">
        <ele>754.35862241087</ele>
        <time>2012-06-09T10:21:56.000Z</time>
      </trkpt>
      <trkpt lat="46.3581" lon="6.85444">
        <ele>753.74103568761</ele>
        <time>2012-06-09T10:22:01.000Z</time>
      </trkpt>
      <trkpt lat="46.35808" lon="6.85429">
        <ele>753.24872498132</ele>
        <time>2012-06-09T10:22:05.000Z</time>
      </trkpt>
      <trkpt lat="46.35809" lon="6.85416">
        <ele>752.90410748693</ele>
        <time>2012-06-09T10:22:11.000Z</time>
      </trkpt>
      <trkpt lat="46.35806" lon="6.85402">
        <ele>752.72287524085</ele>
        <time>2012-06-09T10:22:18.000Z</time>
      </trkpt>
      <trkpt lat="46.35802" lon="6.85389">
        <ele>752.71601266859</ele>
        <time>2012-06-09T10:22:25.000Z</time>
      </trkpt>
      <trkpt lat="46.35799" lon="6.85376">
        <ele>752.83120886802</ele>
        <time>2012-06-09T10:22:31.000Z</time>
      </trkpt>
      <trkpt lat="46.35793" lon="6.85363">
        <ele>752.97184620761</ele>
        <time>2012-06-09T10:22:38.000Z</time>
      </trkpt>
      <trkpt lat="46.35789" lon="6.8535">
        <ele>753.07029234533</ele>
        <time>2012-06-09T10:22:44.000Z</time>
      </trkpt>
      <trkpt lat="46.35784" lon="6.85336">
        <ele>753.34920464173</ele>
        <time>2012-06-09T10:22:51.000Z</time>
      </trkpt>
      <trkpt lat="46.35779" lon="6.85321">
        <ele>753.66444324921</ele>
        <time>2012-06-09T10:22:55.000Z</time>
      </trkpt>
      <trkpt lat="46.35773" lon="6.85312">
        <ele>753.91511027445</ele>
        <time>2012-06-09T10:22:59.000Z</time>
      </trkpt>
      <trkpt lat="46.35766" lon="6.85303">
        <ele>754.12057719211</ele>
        <time>2012-06-09T10:23:04.000Z</time>
      </trkpt>
      <trkpt lat="46.35757" lon="6.85292">
        <ele>754.41440403448</ele>
        <time>2012-06-09T10:23:09.000Z</time>
      </trkpt>
      <trkpt lat="46.35751" lon="6.85281">
        <ele>754.62008282414</ele>
        <time>2012-06-09T10:23:15.000Z</time>
      </trkpt>
      <trkpt lat="46.35741" lon="6.85277">
        <ele>754.85405797689</ele>
        <time>2012-06-09T10:23:20.000Z</time>
      </trkpt>
      <trkpt lat="46.35732" lon="6.85281">
        <ele>754.95784058383</ele>
        <time>2012-06-09T10:23:26.000Z</time>
      </trkpt>
      <trkpt lat="46.35722" lon="6.85284">
        <ele>755.18048840868</ele>
        <time>2012-06-09T10:23:32.000Z</time>
      </trkpt>
      <trkpt lat="46.35711" lon="6.85281">
        <ele>755.39634188607</ele>
        <time>2012-06-09T10:23:38.000Z</time>
      </trkpt>
      <trkpt lat="46.35703" lon="6.85272">
        <ele>755.48743932025</ele>
        <time>2012-06-09T10:23:43.000Z</time>
      </trkpt>
      <trkpt lat="46.35699" lon="6.85258">
        <ele>755.58120752418</ele>
        <time>2012-06-09T10:23:51.000Z</time>
      </trkpt>
      <trkpt lat="46.35692" lon="6.85248">
        <ele>755.67684526692</ele>
        <time>2012-06-09T10:23:55.000Z</time>
      </trkpt>
      <trkpt lat="46.35684" lon="6.85241">
        <ele>755.86379168685</ele>
        <time>2012-06-09T10:24:01.000Z</time>
      </trkpt>
      <trkpt lat="46.35674" lon="6.85239">
        <ele>756.14465418079</ele>
        <time>2012-06-09T10:24:06.000Z</time>
      </trkpt>
      <trkpt lat="46.35664" lon="6.85237">
        <ele>756.55125792655</ele>
        <time>2012-06-09T10:24:12.000Z</time>
      </trkpt>
      <trkpt lat="46.35668" lon="6.85225">
        <ele>757.46588054859</ele>
        <time>2012-06-09T10:24:26.000Z</time>
      </trkpt>
      <trkpt lat="46.35678" lon="6.85226">
        <ele>758.46611638401</ele>
        <time>2012-06-09T10:24:34.000Z</time>
      </trkpt>
      <trkpt lat="46.35689" lon="6.8523">
        <ele>759.46628146881</ele>
        <time>2012-06-09T10:24:41.000Z</time>
      </trkpt>
      <trkpt lat="46.35697" lon="6.85236">
        <ele>760.55639702817</ele>
        <time>2012-06-09T10:24:46.000Z</time>
      </trkpt>
      <trkpt lat="46.35707" lon="6.85239">
        <ele>761.55947791972</ele>
        <time>2012-06-09T10:24:51.000Z</time>
      </trkpt>
      <trkpt lat="46.35717" lon="6.85233">
        <ele>762.3216345438</ele>
        <time>2012-06-09T10:24:57.000Z</time>
      </trkpt>
      <trkpt lat="46.35725" lon="6.85225">
        <ele>762.88514418066</ele>
        <time>2012-06-09T10:25:02.000Z</time>
      </trkpt>
      <trkpt lat="46.35735" lon="6.85221">
        <ele>763.63960092646</ele>
        <time>2012-06-09T10:25:11.000Z</time>
      </trkpt>
      <trkpt lat="46.35745" lon="6.85229">
        <ele>764.28772064852</ele>
        <time>2012-06-09T10:25:16.000Z</time>
      </trkpt>
      <trkpt lat="46.35752" lon="6.85238">
        <ele>764.77140445397</ele>
        <time>2012-06-09T10:25:20.000Z</time>
      </trkpt>
      <trkpt lat="46.35757" lon="6.85252">
        <ele>765.10998311778</ele>
        <time>2012-06-09T10:25:25.000Z</time>
      </trkpt>
      <trkpt lat="46.35765" lon="6.85263">
        <ele>765.28698818244</ele>
        <time>2012-06-09T10:25:31.000Z</time>
      </trkpt>
      <trkpt lat="46.35773" lon="6.85269">
        <ele>765.38089172771</ele>
        <time>2012-06-09T10:25:36.000Z</time>
      </trkpt>
      <trkpt lat="46.35781" lon="6.85277">
        <ele>765.5366242094</ele>
        <time>2012-06-09T10:25:43.000Z</time>
      </trkpt>
      <trkpt lat="46.35788" lon="6.85285">
        <ele>765.52563694658</ele>
        <time>2012-06-09T10:25:49.000Z</time>
      </trkpt>
      <trkpt lat="46.35796" lon="6.85294">
        <ele>765.6379458626</ele>
        <time>2012-06-09T10:25:56.000Z</time>
      </trkpt>
      <trkpt lat="46.35804" lon="6.85303">
        <ele>765.77656210382</ele>
        <time>2012-06-09T10:26:04.000Z</time>
      </trkpt>
      <trkpt lat="46.35811" lon="6.85314">
        <ele>765.78359347268</ele>
        <time>2012-06-09T10:26:11.000Z</time>
      </trkpt>
      <trkpt lat="46.35817" lon="6.85324">
        <ele>765.84851543087</ele>
        <time>2012-06-09T10:26:16.000Z</time>
      </trkpt>
      <trkpt lat="46.35826" lon="6.85332">
        <ele>765.77396080161</ele>
        <time>2012-06-09T10:26:21.000Z</time>
      </trkpt>
      <trkpt lat="46.35835" lon="6.85339">
        <ele>765.66177256113</ele>
        <time>2012-06-09T10:26:26.000Z</time>
      </trkpt>
      <trkpt lat="46.35843" lon="6.85347">
        <ele>765.73324079279</ele>
        <time>2012-06-09T10:26:31.000Z</time>
      </trkpt>
      <trkpt lat="46.35848" lon="6.85357">
        <ele>765.75326855495</ele>
        <time>2012-06-09T10:26:37.000Z</time>
      </trkpt>
      <trkpt lat="46.35853" lon="6.85369">
        <ele>765.76728798847</ele>
        <time>2012-06-09T10:26:44.000Z</time>
      </trkpt>
      <trkpt lat="46.35856" lon="6.85384">
        <ele>765.86710159193</ele>
        <time>2012-06-09T10:26:50.000Z</time>
      </trkpt>
      <trkpt lat="46.35858" lon="6.85398">
        <ele>766.14697111435</ele>
        <time>2012-06-09T10:26:57.000Z</time>
      </trkpt>
      <trkpt lat="46.35859" lon="6.85412">
        <ele>766.64287978004</ele>
        <time>2012-06-09T10:27:03.000Z</time>
      </trkpt>
      <trkpt lat="46.35864" lon="6.85424">
        <ele>767.86001584603</ele>
        <time>2012-06-09T10:27:10.000Z</time>
      </trkpt>
      <trkpt lat="46.35866" lon="6.85439">
        <ele>769.73201109222</ele>
        <time>2012-06-09T10:27:17.000Z</time>
      </trkpt>
      <trkpt lat="46.35871" lon="6.85454">
        <ele>771.34240776456</ele>
        <time>2012-06-09T10:27:21.000Z</time>
      </trkpt>
      <trkpt lat="46.35876" lon="6.85466">
        <ele>772.73968543519</ele>
        <time>2012-06-09T10:27:25.000Z</time>
      </trkpt>
      <trkpt lat="46.35884" lon="6.85473">
        <ele>774.22777980463</ele>
        <time>2012-06-09T10:27:30.000Z</time>
      </trkpt>
      <trkpt lat="46.35893" lon="6.85478">
        <ele>775.98944586324</ele>
        <time>2012-06-09T10:27:37.000Z</time>
      </trkpt>
      <trkpt lat="46.35901" lon="6.85483">
        <ele>777.76261210427</ele>
        <time>2012-06-09T10:27:43.000Z</time>
      </trkpt>
      <trkpt lat="46.3591" lon="6.85488">
        <ele>780.29382847299</ele>
        <time>2012-06-09T10:27:53.000Z</time>
      </trkpt>
      <trkpt lat="46.35918" lon="6.85495">
        <ele>782.63567993109</ele>
        <time>2012-06-09T10:27:58.000Z</time>
      </trkpt>
      <trkpt lat="46.35926" lon="6.85502">
        <ele>784.78497595176</ele>
        <time>2012-06-09T10:28:02.000Z</time>
      </trkpt>
      <trkpt lat="46.35934" lon="6.85508">
        <ele>786.82948316624</ele>
        <time>2012-06-09T10:28:07.000Z</time>
      </trkpt>
      <trkpt lat="46.35945" lon="6.8551">
        <ele>788.92063821636</ele>
        <time>2012-06-09T10:28:18.000Z</time>
      </trkpt>
      <trkpt lat="46.35954" lon="6.85515">
        <ele>790.56444675146</ele>
        <time>2012-06-09T10:28:21.000Z</time>
      </trkpt>
      <trkpt lat="46.35964" lon="6.8551">
        <ele>792.19511272602</ele>
        <time>2012-06-09T10:28:28.000Z</time>
      </trkpt>
      <trkpt lat="46.35975" lon="6.85511">
        <ele>793.54657890821</ele>
        <time>2012-06-09T10:28:31.000Z</time>
      </trkpt>
      <trkpt lat="46.35984" lon="6.85512">
        <ele>795.00260523575</ele>
        <time>2012-06-09T10:28:37.000Z</time>
      </trkpt>
      <trkpt lat="46.35994" lon="6.85517">
        <ele>796.35182366502</ele>
        <time>2012-06-09T10:28:42.000Z</time>
      </trkpt>
      <trkpt lat="46.36" lon="6.85528">
        <ele>797.89627656552</ele>
        <time>2012-06-09T10:28:47.000Z</time>
      </trkpt>
      <trkpt lat="46.36005" lon="6.85538">
        <ele>799.36739359586</ele>
        <time>2012-06-09T10:28:51.000Z</time>
      </trkpt>
      <trkpt lat="46.36013" lon="6.85547">
        <ele>801.4771755171</ele>
        <time>2012-06-09T10:29:02.000Z</time>
      </trkpt>
      <trkpt lat="46.36022" lon="6.85556">
        <ele>803.73402286197</ele>
        <time>2012-06-09T10:29:11.000Z</time>
      </trkpt>
      <trkpt lat="46.36031" lon="6.85564">
        <ele>805.91381600338</ele>
        <time>2012-06-09T10:29:18.000Z</time>
      </trkpt>
      <trkpt lat="46.36044" lon="6.85573">
        <ele>807.70967120237</ele>
        <time>2012-06-09T10:29:22.000Z</time>
      </trkpt>
      <trkpt lat="46.36049" lon="6.85587">
        <ele>809.41676984166</ele>
        <time>2012-06-09T10:29:26.000Z</time>
      </trkpt>
      <trkpt lat="46.36058" lon="6.85589">
        <ele>811.27173888916</ele>
        <time>2012-06-09T10:29:32.000Z</time>
      </trkpt>
      <trkpt lat="46.36066" lon="6.85596">
        <ele>812.99021722241</ele>
        <time>2012-06-09T10:29:37.000Z</time>
      </trkpt>
      <trkpt lat="46.36076" lon="6.85594">
        <ele>814.97315205569</ele>
        <time>2012-06-09T10:29:44.000Z</time>
      </trkpt>
      <trkpt lat="46.36087" lon="6.85594">
        <ele>816.42120643898</ele>
        <time>2012-06-09T10:29:47.000Z</time>
      </trkpt>
      <trkpt lat="46.36097" lon="6.85591">
        <ele>818.00484450729</ele>
        <time>2012-06-09T10:29:55.000Z</time>
      </trkpt>
      <trkpt lat="46.36105" lon="6.85586">
        <ele>819.2333911551</ele>
        <time>2012-06-09T10:29:58.000Z</time>
      </trkpt>
      <trkpt lat="46.36116" lon="6.85586">
        <ele>820.39337380857</ele>
        <time>2012-06-09T10:30:05.000Z</time>
      </trkpt>
      <trkpt lat="46.36124" lon="6.85595">
        <ele>821.505361666</ele>
        <time>2012-06-09T10:30:10.000Z</time>
      </trkpt>
      <trkpt lat="46.36131" lon="6.85605">
        <ele>822.6437531662</ele>
        <time>2012-06-09T10:30:15.000Z</time>
      </trkpt>
      <trkpt lat="46.36139" lon="6.85614">
        <ele>823.74062721634</ele>
        <time>2012-06-09T10:30:21.000Z</time>
      </trkpt>
      <trkpt lat="46.36148" lon="6.85617">
        <ele>825.10843905144</ele>
        <time>2012-06-09T10:30:28.000Z</time>
      </trkpt>
      <trkpt lat="46.36157" lon="6.8561">
        <ele>826.72590733601</ele>
        <time>2012-06-09T10:30:38.000Z</time>
      </trkpt>
      <trkpt lat="46.36166" lon="6.85617">
        <ele>828.0081351352</ele>
        <time>2012-06-09T10:30:41.000Z</time>
      </trkpt>
      <trkpt lat="46.36173" lon="6.85628">
        <ele>829.05569459464</ele>
        <time>2012-06-09T10:30:45.000Z</time>
      </trkpt>
      <trkpt lat="46.36178" lon="6.85638">
        <ele>830.56898621625</ele>
        <time>2012-06-09T10:30:52.000Z</time>
      </trkpt>
      <trkpt lat="46.36182" lon="6.85652">
        <ele>832.07829035138</ele>
        <time>2012-06-09T10:30:57.000Z</time>
      </trkpt>
      <trkpt lat="46.36189" lon="6.85665">
        <ele>833.52480324596</ele>
        <time>2012-06-09T10:31:02.000Z</time>
      </trkpt>
      <trkpt lat="46.36195" lon="6.85677">
        <ele>834.92736227217</ele>
        <time>2012-06-09T10:31:07.000Z</time>
      </trkpt>
      <trkpt lat="46.36202" lon="6.85688">
        <ele>836.44915359052</ele>
        <time>2012-06-09T10:31:12.000Z</time>
      </trkpt>
      <trkpt lat="46.36206" lon="6.85699">
        <ele>838.17440751337</ele>
        <time>2012-06-09T10:31:17.000Z</time>
      </trkpt>
      <trkpt lat="46.36211" lon="6.85711">
        <ele>839.98208525936</ele>
        <time>2012-06-09T10:31:22.000Z</time>
      </trkpt>
      <trkpt lat="46.36216" lon="6.85721">
        <ele>841.81745968155</ele>
        <time>2012-06-09T10:31:27.000Z</time>
      </trkpt>
      <trkpt lat="46.36223" lon="6.85731">
        <ele>843.55222177708</ele>
        <time>2012-06-09T10:31:32.000Z</time>
      </trkpt>
      <trkpt lat="46.36229" lon="6.85741">
        <ele>845.24655524396</ele>
        <time>2012-06-09T10:31:37.000Z</time>
      </trkpt>
      <trkpt lat="46.36233" lon="6.85753">
        <ele>847.06258867077</ele>
        <time>2012-06-09T10:31:43.000Z</time>
      </trkpt>
      <trkpt lat="46.36233" lon="6.85767">
        <ele>849.38381206954</ele>
        <time>2012-06-09T10:31:49.000Z</time>
      </trkpt>
      <trkpt lat="46.36237" lon="6.85781">
        <ele>851.75866844868</ele>
        <time>2012-06-09T10:31:55.000Z</time>
      </trkpt>
      <trkpt lat="46.36243" lon="6.85796">
        <ele>854.20106791407</ele>
        <time>2012-06-09T10:32:01.000Z</time>
      </trkpt>
      <trkpt lat="46.36249" lon="6.85806">
        <ele>856.42074753985</ele>
        <time>2012-06-09T10:32:06.000Z</time>
      </trkpt>
      <trkpt lat="46.36255" lon="6.85814">
        <ele>858.5445232779</ele>
        <time>2012-06-09T10:32:12.000Z</time>
      </trkpt>
      <trkpt lat="46.36261" lon="6.85825">
        <ele>860.51116629453</ele>
        <time>2012-06-09T10:32:18.000Z</time>
      </trkpt>
      <trkpt lat="46.36268" lon="6.85836">
        <ele>862.33781640617</ele>
        <time>2012-06-09T10:32:24.000Z</time>
      </trkpt>
      <trkpt lat="46.36274" lon="6.85846">
        <ele>864.03647148432</ele>
        <time>2012-06-09T10:32:30.000Z</time>
      </trkpt>
      <trkpt lat="46.3628" lon="6.85856">
        <ele>865.88553003902</ele>
        <time>2012-06-09T10:32:36.000Z</time>
      </trkpt>
      <trkpt lat="46.36289" lon="6.85861">
        <ele>868.01987102732</ele>
        <time>2012-06-09T10:32:43.000Z</time>
      </trkpt>
      <trkpt lat="46.36284" lon="6.85847">
        <ele>870.35390971912</ele>
        <time>2012-06-09T10:32:52.000Z</time>
      </trkpt>
      <trkpt lat="46.36276" lon="6.85842">
        <ele>872.52773680338</ele>
        <time>2012-06-09T10:32:57.000Z</time>
      </trkpt>
      <trkpt lat="46.36268" lon="6.85832">
        <ele>874.49941576237</ele>
        <time>2012-06-09T10:33:03.000Z</time>
      </trkpt>
      <trkpt lat="46.36261" lon="6.85822">
        <ele>876.47959103366</ele>
        <time>2012-06-09T10:33:10.000Z</time>
      </trkpt>
      <trkpt lat="46.36254" lon="6.8581">
        <ele>878.25571372356</ele>
        <time>2012-06-09T10:33:17.000Z</time>
      </trkpt>
      <trkpt lat="46.36251" lon="6.85797">
        <ele>879.88899960649</ele>
        <time>2012-06-09T10:33:22.000Z</time>
      </trkpt>
      <trkpt lat="46.36248" lon="6.85783">
        <ele>881.57229972454</ele>
        <time>2012-06-09T10:33:28.000Z</time>
      </trkpt>
      <trkpt lat="46.36243" lon="6.85771">
        <ele>883.32060980718</ele>
        <time>2012-06-09T10:33:35.000Z</time>
      </trkpt>
      <trkpt lat="46.36237" lon="6.85759">
        <ele>884.99442686503</ele>
        <time>2012-06-09T10:33:43.000Z</time>
      </trkpt>
      <trkpt lat="46.3623" lon="6.85751">
        <ele>886.40609880552</ele>
        <time>2012-06-09T10:33:46.000Z</time>
      </trkpt>
      <trkpt lat="46.36224" lon="6.8574">
        <ele>887.78426916386</ele>
        <time>2012-06-09T10:33:52.000Z</time>
      </trkpt>
      <trkpt lat="46.36223" lon="6.85727">
        <ele>889.0189884147</ele>
        <time>2012-06-09T10:33:58.000Z</time>
      </trkpt>
      <trkpt lat="46.36223" lon="6.85712">
        <ele>890.09329189029</ele>
        <time>2012-06-09T10:34:02.000Z</time>
      </trkpt>
      <trkpt lat="46.36218" lon="6.85699">
        <ele>891.20530432321</ele>
        <time>2012-06-09T10:34:08.000Z</time>
      </trkpt>
      <trkpt lat="46.36216" lon="6.85686">
        <ele>892.28371302624</ele>
        <time>2012-06-09T10:34:13.000Z</time>
      </trkpt>
      <trkpt lat="46.36218" lon="6.8567">
        <ele>893.24859911837</ele>
        <time>2012-06-09T10:34:17.000Z</time>
      </trkpt>
      <trkpt lat="46.36218" lon="6.85655">
        <ele>894.04401938286</ele>
        <time>2012-06-09T10:34:22.000Z</time>
      </trkpt>
      <trkpt lat="46.36214" lon="6.8564">
        <ele>894.750813568</ele>
        <time>2012-06-09T10:34:27.000Z</time>
      </trkpt>
      <trkpt lat="46.36211" lon="6.85627">
        <ele>895.5155694976</ele>
        <time>2012-06-09T10:34:33.000Z</time>
      </trkpt>
      <trkpt lat="46.36211" lon="6.85612">
        <ele>896.26089864832</ele>
        <time>2012-06-09T10:34:39.000Z</time>
      </trkpt>
      <trkpt lat="46.36209" lon="6.85599">
        <ele>896.75262905382</ele>
        <time>2012-06-09T10:34:45.000Z</time>
      </trkpt>
      <trkpt lat="46.36204" lon="6.85587">
        <ele>897.09684033768</ele>
        <time>2012-06-09T10:34:50.000Z</time>
      </trkpt>
      <trkpt lat="46.36202" lon="6.85573">
        <ele>897.18778823637</ele>
        <time>2012-06-09T10:34:58.000Z</time>
      </trkpt>
      <trkpt lat="46.36198" lon="6.8556">
        <ele>896.86145176546</ele>
        <time>2012-06-09T10:35:06.000Z</time>
      </trkpt>
      <trkpt lat="46.36205" lon="6.85549">
        <ele>896.48301623582</ele>
        <time>2012-06-09T10:35:07.000Z</time>
      </trkpt>
      <trkpt lat="46.36202" lon="6.85537">
        <ele>895.88811136508</ele>
        <time>2012-06-09T10:35:13.000Z</time>
      </trkpt>
      <trkpt lat="46.36193" lon="6.85527">
        <ele>895.23167795555</ele>
        <time>2012-06-09T10:35:20.000Z</time>
      </trkpt>
      <trkpt lat="46.36183" lon="6.85523">
        <ele>894.68217456889</ele>
        <time>2012-06-09T10:35:29.000Z</time>
      </trkpt>
      <trkpt lat="46.36176" lon="6.85512">
        <ele>894.47752219822</ele>
        <time>2012-06-09T10:35:35.000Z</time>
      </trkpt>
      <trkpt lat="46.36173" lon="6.85499">
        <ele>894.27426553875</ele>
        <time>2012-06-09T10:35:41.000Z</time>
      </trkpt>
      <trkpt lat="46.36169" lon="6.85487">
        <ele>894.40198587713</ele>
        <time>2012-06-09T10:35:47.000Z</time>
      </trkpt>
      <trkpt lat="46.36167" lon="6.85474">
        <ele>894.61139011399</ele>
        <time>2012-06-09T10:35:53.000Z</time>
      </trkpt>
      <trkpt lat="46.36164" lon="6.85461">
        <ele>894.87797307979</ele>
        <time>2012-06-09T10:35:59.000Z</time>
      </trkpt>
      <trkpt lat="46.36158" lon="6.85448">
        <ele>895.42458115586</ele>
        <time>2012-06-09T10:36:05.000Z</time>
      </trkpt>
      <trkpt lat="46.36149" lon="6.85439">
        <ele>896.2572068091</ele>
        <time>2012-06-09T10:36:11.000Z</time>
      </trkpt>
      <trkpt lat="46.3614" lon="6.85437">
        <ele>897.23004476637</ele>
        <time>2012-06-09T10:36:16.000Z</time>
      </trkpt>
      <trkpt lat="46.3613" lon="6.8544">
        <ele>898.18103133646</ele>
        <time>2012-06-09T10:36:22.000Z</time>
      </trkpt>
      <trkpt lat="46.3612" lon="6.85441">
        <ele>899.23672193552</ele>
        <time>2012-06-09T10:36:28.000Z</time>
      </trkpt>
      <trkpt lat="46.36111" lon="6.85443">
        <ele>900.42570535486</ele>
        <time>2012-06-09T10:36:34.000Z</time>
      </trkpt>
      <trkpt lat="46.361" lon="6.8544">
        <ele>901.61799374841</ele>
        <time>2012-06-09T10:36:41.000Z</time>
      </trkpt>
      <trkpt lat="46.36092" lon="6.85435">
        <ele>902.81259562388</ele>
        <time>2012-06-09T10:36:47.000Z</time>
      </trkpt>
      <trkpt lat="46.36085" lon="6.85425">
        <ele>904.12881693672</ele>
        <time>2012-06-09T10:36:54.000Z</time>
      </trkpt>
      <trkpt lat="46.36077" lon="6.85415">
        <ele>905.5001718557</ele>
        <time>2012-06-09T10:37:01.000Z</time>
      </trkpt>
      <trkpt lat="46.3607" lon="6.85406">
        <ele>906.97012029899</ele>
        <time>2012-06-09T10:37:07.000Z</time>
      </trkpt>
      <trkpt lat="46.36064" lon="6.85397">
        <ele>908.32908420929</ele>
        <time>2012-06-09T10:37:13.000Z</time>
      </trkpt>
      <trkpt lat="46.36057" lon="6.85386">
        <ele>909.49035894651</ele>
        <time>2012-06-09T10:37:19.000Z</time>
      </trkpt>
      <trkpt lat="46.3605" lon="6.85377">
        <ele>910.45325126255</ele>
        <time>2012-06-09T10:37:25.000Z</time>
      </trkpt>
      <trkpt lat="46.36041" lon="6.85371">
        <ele>911.69727588379</ele>
        <time>2012-06-09T10:37:31.000Z</time>
      </trkpt>
      <trkpt lat="46.36032" lon="6.85369">
        <ele>912.98809311865</ele>
        <time>2012-06-09T10:37:37.000Z</time>
      </trkpt>
      <trkpt lat="46.36022" lon="6.85368">
        <ele>914.43166518306</ele>
        <time>2012-06-09T10:37:44.000Z</time>
      </trkpt>
      <trkpt lat="46.36012" lon="6.85366">
        <ele>915.86216562814</ele>
        <time>2012-06-09T10:37:50.000Z</time>
      </trkpt>
      <trkpt lat="46.36002" lon="6.85364">
        <ele>917.2235159397</ele>
        <time>2012-06-09T10:37:56.000Z</time>
      </trkpt>
      <trkpt lat="46.35993" lon="6.85364">
        <ele>918.53646115779</ele>
        <time>2012-06-09T10:38:02.000Z</time>
      </trkpt>
      <trkpt lat="46.35984" lon="6.85362">
        <ele>919.72552281045</ele>
        <time>2012-06-09T10:38:08.000Z</time>
      </trkpt>
      <trkpt lat="46.35975" lon="6.85358">
        <ele>920.85786596732</ele>
        <time>2012-06-09T10:38:14.000Z</time>
      </trkpt>
      <trkpt lat="46.35968" lon="6.85348">
        <ele>921.77050617712</ele>
        <time>2012-06-09T10:38:20.000Z</time>
      </trkpt>
      <trkpt lat="46.35966" lon="6.85335">
        <ele>922.49935432398</ele>
        <time>2012-06-09T10:38:26.000Z</time>
      </trkpt>
      <trkpt lat="46.35963" lon="6.8532">
        <ele>923.12954802679</ele>
        <time>2012-06-09T10:38:32.000Z</time>
      </trkpt>
      <trkpt lat="46.3596" lon="6.85307">
        <ele>923.72068361875</ele>
        <time>2012-06-09T10:38:38.000Z</time>
      </trkpt>
      <trkpt lat="46.35956" lon="6.85294">
        <ele>924.28447853313</ele>
        <time>2012-06-09T10:38:44.000Z</time>
      </trkpt>
      <trkpt lat="46.35951" lon="6.85282">
        <ele>924.82913497319</ele>
        <time>2012-06-09T10:38:50.000Z</time>
      </trkpt>
      <trkpt lat="46.35947" lon="6.85269">
        <ele>925.30039448123</ele>
        <time>2012-06-09T10:38:56.000Z</time>
      </trkpt>
      <trkpt lat="46.35943" lon="6.85256">
        <ele>925.66027613686</ele>
        <time>2012-06-09T10:39:02.000Z</time>
      </trkpt>
      <trkpt lat="46.35941" lon="6.85243">
        <ele>925.9721932958</ele>
        <time>2012-06-09T10:39:07.000Z</time>
      </trkpt>
      <trkpt lat="46.35947" lon="6.85231">
        <ele>926.07053530706</ele>
        <time>2012-06-09T10:39:12.000Z</time>
      </trkpt>
      <trkpt lat="46.35949" lon="6.85217">
        <ele>926.37937471494</ele>
        <time>2012-06-09T10:39:18.000Z</time>
      </trkpt>
      <trkpt lat="46.35946" lon="6.85203">
        <ele>926.98556230046</ele>
        <time>2012-06-09T10:39:24.000Z</time>
      </trkpt>
      <trkpt lat="46.35942" lon="6.85192">
        <ele>927.94989361032</ele>
        <time>2012-06-09T10:39:34.000Z</time>
      </trkpt>
      <trkpt lat="46.35934" lon="6.85184">
        <ele>928.89492552723</ele>
        <time>2012-06-09T10:39:39.000Z</time>
      </trkpt>
      <trkpt lat="46.35924" lon="6.85176">
        <ele>929.70644786906</ele>
        <time>2012-06-09T10:39:42.000Z</time>
      </trkpt>
      <trkpt lat="46.35915" lon="6.8517">
        <ele>930.36451350834</ele>
        <time>2012-06-09T10:39:44.000Z</time>
      </trkpt>
      <trkpt lat="46.3591" lon="6.85157">
        <ele>931.21515945584</ele>
        <time>2012-06-09T10:39:52.000Z</time>
      </trkpt>
      <trkpt lat="46.35904" lon="6.85146">
        <ele>932.05061161909</ele>
        <time>2012-06-09T10:40:00.000Z</time>
      </trkpt>
      <trkpt lat="46.35899" lon="6.85135">
        <ele>932.87542813336</ele>
        <time>2012-06-09T10:40:07.000Z</time>
      </trkpt>
      <trkpt lat="46.3589" lon="6.85129">
        <ele>933.72279969335</ele>
        <time>2012-06-09T10:40:14.000Z</time>
      </trkpt>
      <trkpt lat="46.3588" lon="6.85126">
        <ele>934.52595978535</ele>
        <time>2012-06-09T10:40:21.000Z</time>
      </trkpt>
      <trkpt lat="46.35871" lon="6.85123">
        <ele>935.38817184974</ele>
        <time>2012-06-09T10:40:28.000Z</time>
      </trkpt>
      <trkpt lat="46.35863" lon="6.85115">
        <ele>936.29172029482</ele>
        <time>2012-06-09T10:40:36.000Z</time>
      </trkpt>
      <trkpt lat="46.35856" lon="6.85107">
        <ele>937.13420420637</ele>
        <time>2012-06-09T10:40:42.000Z</time>
      </trkpt>
      <trkpt lat="46.35848" lon="6.851">
        <ele>937.99394294446</ele>
        <time>2012-06-09T10:40:47.000Z</time>
      </trkpt>
      <trkpt lat="46.35842" lon="6.85087">
        <ele>938.95576006112</ele>
        <time>2012-06-09T10:40:54.000Z</time>
      </trkpt>
      <trkpt lat="46.35835" lon="6.85077">
        <ele>939.83903204279</ele>
        <time>2012-06-09T10:41:00.000Z</time>
      </trkpt>
      <trkpt lat="46.35829" lon="6.85066">
        <ele>940.69732242995</ele>
        <time>2012-06-09T10:41:06.000Z</time>
      </trkpt>
      <trkpt lat="46.35825" lon="6.85054">
        <ele>941.35812570097</ele>
        <time>2012-06-09T10:41:12.000Z</time>
      </trkpt>
      <trkpt lat="46.3582" lon="6.85044">
        <ele>941.94068799068</ele>
        <time>2012-06-09T10:41:19.000Z</time>
      </trkpt>
      <trkpt lat="46.35812" lon="6.85035">
        <ele>942.34848159347</ele>
        <time>2012-06-09T10:41:25.000Z</time>
      </trkpt>
      <trkpt lat="46.35805" lon="6.85024">
        <ele>942.57393711543</ele>
        <time>2012-06-09T10:41:33.000Z</time>
      </trkpt>
      <trkpt lat="46.35797" lon="6.85014">
        <ele>942.6117559808</ele>
        <time>2012-06-09T10:41:39.000Z</time>
      </trkpt>
      <trkpt lat="46.35792" lon="6.85002">
        <ele>942.60822918656</ele>
        <time>2012-06-09T10:41:43.000Z</time>
      </trkpt>
      <trkpt lat="46.35783" lon="6.84998">
        <ele>942.66576043059</ele>
        <time>2012-06-09T10:41:46.000Z</time>
      </trkpt>
      <trkpt lat="46.35788" lon="6.84984">
        <ele>942.61603230141</ele>
        <time>2012-06-09T10:41:50.000Z</time>
      </trkpt>
      <trkpt lat="46.35794" lon="6.8497">
        <ele>942.61122261099</ele>
        <time>2012-06-09T10:41:51.000Z</time>
      </trkpt>
      <trkpt lat="46.35781" lon="6.84963">
        <ele>942.75785582769</ele>
        <time>2012-06-09T10:41:57.000Z</time>
      </trkpt>
      <trkpt lat="46.35776" lon="6.84952">
        <ele>942.89049907939</ele>
        <time>2012-06-09T10:42:04.000Z</time>
      </trkpt>
      <trkpt lat="46.35785" lon="6.84955">
        <ele>943.52334935557</ele>
        <time>2012-06-09T10:42:16.000Z</time>
      </trkpt>
      <trkpt lat="46.35793" lon="6.84961">
        <ele>944.2363445489</ele>
        <time>2012-06-09T10:42:20.000Z</time>
      </trkpt>
      <trkpt lat="46.35802" lon="6.84971">
        <ele>945.03544118423</ele>
        <time>2012-06-09T10:42:24.000Z</time>
      </trkpt>
      <trkpt lat="46.35805" lon="6.84985">
        <ele>945.89480882896</ele>
        <time>2012-06-09T10:42:29.000Z</time>
      </trkpt>
      <trkpt lat="46.35812" lon="6.84996">
        <ele>946.85636618027</ele>
        <time>2012-06-09T10:42:34.000Z</time>
      </trkpt>
      <trkpt lat="46.35815" lon="6.85009">
        <ele>948.15945632619</ele>
        <time>2012-06-09T10:42:41.000Z</time>
      </trkpt>
      <trkpt lat="46.35823" lon="6.8502">
        <ele>949.43161942833</ele>
        <time>2012-06-09T10:42:45.000Z</time>
      </trkpt>
      <trkpt lat="46.3583" lon="6.8503">
        <ele>950.74213359983</ele>
        <time>2012-06-09T10:42:49.000Z</time>
      </trkpt>
      <trkpt lat="46.3584" lon="6.85034">
        <ele>951.95949351988</ele>
        <time>2012-06-09T10:42:52.000Z</time>
      </trkpt>
      <trkpt lat="46.35846" lon="6.85044">
        <ele>953.32164546392</ele>
        <time>2012-06-09T10:42:56.000Z</time>
      </trkpt>
      <trkpt lat="46.35851" lon="6.85054">
        <ele>954.84515182474</ele>
        <time>2012-06-09T10:43:00.000Z</time>
      </trkpt>
      <trkpt lat="46.35861" lon="6.85059">
        <ele>956.63160627732</ele>
        <time>2012-06-09T10:43:06.000Z</time>
      </trkpt>
      <trkpt lat="46.3587" lon="6.85064">
        <ele>958.51212439412</ele>
        <time>2012-06-09T10:43:12.000Z</time>
      </trkpt>
      <trkpt lat="46.35879" lon="6.85065">
        <ele>960.33848707589</ele>
        <time>2012-06-09T10:43:17.000Z</time>
      </trkpt>
      <trkpt lat="46.35887" lon="6.85073">
        <ele>962.15694095312</ele>
        <time>2012-06-09T10:43:23.000Z</time>
      </trkpt>
      <trkpt lat="46.35896" lon="6.85083">
        <ele>963.96985866718</ele>
        <time>2012-06-09T10:43:28.000Z</time>
      </trkpt>
      <trkpt lat="46.35902" lon="6.85093">
        <ele>965.83890106703</ele>
        <time>2012-06-09T10:43:32.000Z</time>
      </trkpt>
      <trkpt lat="46.35915" lon="6.85097">
        <ele>967.77723074692</ele>
        <time>2012-06-09T10:43:37.000Z</time>
      </trkpt>
      <trkpt lat="46.35925" lon="6.85102">
        <ele>969.55406152284</ele>
        <time>2012-06-09T10:43:40.000Z</time>
      </trkpt>
      <trkpt lat="46.35928" lon="6.85114">
        <ele>971.51784306599</ele>
        <time>2012-06-09T10:43:44.000Z</time>
      </trkpt>
      <trkpt lat="46.35939" lon="6.8512">
        <ele>973.04249014619</ele>
        <time>2012-06-09T10:43:47.000Z</time>
      </trkpt>
      <trkpt lat="46.35949" lon="6.85125">
        <ele>974.34974310234</ele>
        <time>2012-06-09T10:43:49.000Z</time>
      </trkpt>
      <trkpt lat="46.35958" lon="6.85135">
        <ele>975.77482017163</ele>
        <time>2012-06-09T10:43:52.000Z</time>
      </trkpt>
      <trkpt lat="46.35968" lon="6.85146">
        <ele>977.61237412014</ele>
        <time>2012-06-09T10:43:55.000Z</time>
      </trkpt>
      <trkpt lat="46.35972" lon="6.85159">
        <ele>979.3786618841</ele>
        <time>2012-06-09T10:43:58.000Z</time>
      </trkpt>
      <trkpt lat="46.35979" lon="6.85169">
        <ele>981.09506331887</ele>
        <time>2012-06-09T10:44:01.000Z</time>
      </trkpt>
      <trkpt lat="46.35986" lon="6.85177">
        <ele>982.74654432321</ele>
        <time>2012-06-09T10:44:04.000Z</time>
      </trkpt>
      <trkpt lat="46.35994" lon="6.85184">
        <ele>984.35258102625</ele>
        <time>2012-06-09T10:44:07.000Z</time>
      </trkpt>
      <trkpt lat="46.36002" lon="6.85196">
        <ele>985.89680671837</ele>
        <time>2012-06-09T10:44:10.000Z</time>
      </trkpt>
      <trkpt lat="46.36006" lon="6.85207">
        <ele>987.54776470286</ele>
        <time>2012-06-09T10:44:13.000Z</time>
      </trkpt>
      <trkpt lat="46.36009" lon="6.85221">
        <ele>989.513435292</ele>
        <time>2012-06-09T10:44:17.000Z</time>
      </trkpt>
      <trkpt lat="46.36009" lon="6.85236">
        <ele>991.4894047044</ele>
        <time>2012-06-09T10:44:21.000Z</time>
      </trkpt>
      <trkpt lat="46.36018" lon="6.85245">
        <ele>993.59258329308</ele>
        <time>2012-06-09T10:44:24.000Z</time>
      </trkpt>
      <trkpt lat="46.36021" lon="6.85256">
        <ele>995.84480830516</ele>
        <time>2012-06-09T10:44:28.000Z</time>
      </trkpt>
      <trkpt lat="46.36035" lon="6.85262">
        <ele>998.26136581361</ele>
        <time>2012-06-09T10:44:33.000Z</time>
      </trkpt>
      <trkpt lat="46.36048" lon="6.85256">
        <ele>1000.2829560695</ele>
        <time>2012-06-09T10:44:35.000Z</time>
      </trkpt>
      <trkpt lat="46.36058" lon="6.85249">
        <ele>1001.9380692487</ele>
        <time>2012-06-09T10:44:37.000Z</time>
      </trkpt>
      <trkpt lat="46.36067" lon="6.85243">
        <ele>1003.2166484741</ele>
        <time>2012-06-09T10:44:40.000Z</time>
      </trkpt>
      <trkpt lat="46.36077" lon="6.85238">
        <ele>1004.4416539318</ele>
        <time>2012-06-09T10:44:43.000Z</time>
      </trkpt>
      <trkpt lat="46.36088" lon="6.85236">
        <ele>1005.8091577523</ele>
        <time>2012-06-09T10:44:46.000Z</time>
      </trkpt>
      <trkpt lat="46.36101" lon="6.85236">
        <ele>1007.8164104266</ele>
        <time>2012-06-09T10:44:49.000Z</time>
      </trkpt>
      <trkpt lat="46.36112" lon="6.85237">
        <ele>1009.9414872986</ele>
        <time>2012-06-09T10:44:53.000Z</time>
      </trkpt>
      <trkpt lat="46.36121" lon="6.85238">
        <ele>1012.059041109</ele>
        <time>2012-06-09T10:44:56.000Z</time>
      </trkpt>
      <trkpt lat="46.36132" lon="6.85236">
        <ele>1014.9813287763</ele>
        <time>2012-06-09T10:44:58.000Z</time>
      </trkpt>
      <trkpt lat="46.36144" lon="6.85237">
        <ele>1018.6169301434</ele>
        <time>2012-06-09T10:45:00.000Z</time>
      </trkpt>
      <trkpt lat="46.36155" lon="6.85238">
        <ele>1022.1218511004</ele>
        <time>2012-06-09T10:45:03.000Z</time>
      </trkpt>
      <trkpt lat="46.36164" lon="6.8524">
        <ele>1025.3852957703</ele>
        <time>2012-06-09T10:45:06.000Z</time>
      </trkpt>
      <trkpt lat="46.36175" lon="6.85242">
        <ele>1028.3897070392</ele>
        <time>2012-06-09T10:45:10.000Z</time>
      </trkpt>
      <trkpt lat="46.36184" lon="6.85245">
        <ele>1030.9727949274</ele>
        <time>2012-06-09T10:45:14.000Z</time>
      </trkpt>
      <trkpt lat="46.36194" lon="6.85247">
        <ele>1033.3209564492</ele>
        <time>2012-06-09T10:45:18.000Z</time>
      </trkpt>
      <trkpt lat="46.36203" lon="6.8525">
        <ele>1035.2946695144</ele>
        <time>2012-06-09T10:45:22.000Z</time>
      </trkpt>
      <trkpt lat="46.36213" lon="6.85251">
        <ele>1036.8862686601</ele>
        <time>2012-06-09T10:45:26.000Z</time>
      </trkpt>
      <trkpt lat="46.36222" lon="6.85252">
        <ele>1038.0903880621</ele>
        <time>2012-06-09T10:45:31.000Z</time>
      </trkpt>
      <trkpt lat="46.36231" lon="6.85253">
        <ele>1039.1432716435</ele>
        <time>2012-06-09T10:45:36.000Z</time>
      </trkpt>
      <trkpt lat="46.36241" lon="6.85255">
        <ele>1040.1202901504</ele>
        <time>2012-06-09T10:45:41.000Z</time>
      </trkpt>
      <trkpt lat="46.3625" lon="6.85259">
        <ele>1041.1042031053</ele>
        <time>2012-06-09T10:45:47.000Z</time>
      </trkpt>
      <trkpt lat="46.36258" lon="6.85267">
        <ele>1041.9729421737</ele>
        <time>2012-06-09T10:45:54.000Z</time>
      </trkpt>
      <trkpt lat="46.36266" lon="6.85274">
        <ele>1042.7910595216</ele>
        <time>2012-06-09T10:45:59.000Z</time>
      </trkpt>
      <trkpt lat="46.36274" lon="6.85281">
        <ele>1043.4537416651</ele>
        <time>2012-06-09T10:46:04.000Z</time>
      </trkpt>
      <trkpt lat="46.36283" lon="6.85287">
        <ele>1044.2476191656</ele>
        <time>2012-06-09T10:46:09.000Z</time>
      </trkpt>
      <trkpt lat="46.36292" lon="6.85295">
        <ele>1044.9833334159</ele>
        <time>2012-06-09T10:46:14.000Z</time>
      </trkpt>
      <trkpt lat="46.36298" lon="6.85304">
        <ele>1045.6483333911</ele>
        <time>2012-06-09T10:46:18.000Z</time>
      </trkpt>
      <trkpt lat="46.36304" lon="6.85317">
        <ele>1046.2338333738</ele>
        <time>2012-06-09T10:46:23.000Z</time>
      </trkpt>
      <trkpt lat="46.36309" lon="6.85328">
        <ele>1046.8236833617</ele>
        <time>2012-06-09T10:46:27.000Z</time>
      </trkpt>
      <trkpt lat="46.36317" lon="6.85337">
        <ele>1047.2965783532</ele>
        <time>2012-06-09T10:46:31.000Z</time>
      </trkpt>
      <trkpt lat="46.36326" lon="6.85341">
        <ele>1047.8076048472</ele>
        <time>2012-06-09T10:46:35.000Z</time>
      </trkpt>
      <trkpt lat="46.36335" lon="6.85344">
        <ele>1048.195323393</ele>
        <time>2012-06-09T10:46:39.000Z</time>
      </trkpt>
      <trkpt lat="46.36345" lon="6.8535">
        <ele>1048.5267263751</ele>
        <time>2012-06-09T10:46:43.000Z</time>
      </trkpt>
      <trkpt lat="46.36351" lon="6.85361">
        <ele>1048.8487084626</ele>
        <time>2012-06-09T10:46:47.000Z</time>
      </trkpt>
      <trkpt lat="46.36356" lon="6.85375">
        <ele>1049.1340959238</ele>
        <time>2012-06-09T10:46:51.000Z</time>
      </trkpt>
      <trkpt lat="46.36358" lon="6.85388">
        <ele>1049.4538671467</ele>
        <time>2012-06-09T10:46:55.000Z</time>
      </trkpt>
      <trkpt lat="46.36362" lon="6.854">
        <ele>1049.7377070027</ele>
        <time>2012-06-09T10:46:59.000Z</time>
      </trkpt>
      <trkpt lat="46.36368" lon="6.85411">
        <ele>1049.9363949019</ele>
        <time>2012-06-09T10:47:03.000Z</time>
      </trkpt>
      <trkpt lat="46.36375" lon="6.85421">
        <ele>1050.2554764313</ele>
        <time>2012-06-09T10:47:07.000Z</time>
      </trkpt>
      <trkpt lat="46.36382" lon="6.85431">
        <ele>1050.5988335019</ele>
        <time>2012-06-09T10:47:11.000Z</time>
      </trkpt>
      <trkpt lat="46.36389" lon="6.85441">
        <ele>1050.8691834513</ele>
        <time>2012-06-09T10:47:15.000Z</time>
      </trkpt>
      <trkpt lat="46.36397" lon="6.8545">
        <ele>1051.2084284159</ele>
        <time>2012-06-09T10:47:19.000Z</time>
      </trkpt>
      <trkpt lat="46.36405" lon="6.85461">
        <ele>1051.4458998912</ele>
        <time>2012-06-09T10:47:23.000Z</time>
      </trkpt>
      <trkpt lat="46.36411" lon="6.85471">
        <ele>1051.7921299238</ele>
        <time>2012-06-09T10:47:27.000Z</time>
      </trkpt>
      <trkpt lat="46.36417" lon="6.85481">
        <ele>1052.3044909467</ele>
        <time>2012-06-09T10:47:31.000Z</time>
      </trkpt>
      <trkpt lat="46.36424" lon="6.8549">
        <ele>1052.8731436627</ele>
        <time>2012-06-09T10:47:36.000Z</time>
      </trkpt>
      <trkpt lat="46.36433" lon="6.85494">
        <ele>1053.5112005639</ele>
        <time>2012-06-09T10:47:40.000Z</time>
      </trkpt>
      <trkpt lat="46.36443" lon="6.85494">
        <ele>1054.0778403947</ele>
        <time>2012-06-09T10:47:45.000Z</time>
      </trkpt>
      <trkpt lat="46.36451" lon="6.8549">
        <ele>1054.5344882763</ele>
        <time>2012-06-09T10:47:49.000Z</time>
      </trkpt>
      <trkpt lat="46.36461" lon="6.85486">
        <ele>1055.1241417934</ele>
        <time>2012-06-09T10:47:54.000Z</time>
      </trkpt>
      <trkpt lat="46.36472" lon="6.85482">
        <ele>1055.6868992554</ele>
        <time>2012-06-09T10:47:59.000Z</time>
      </trkpt>
      <trkpt lat="46.36482" lon="6.85481">
        <ele>1056.2308294788</ele>
        <time>2012-06-09T10:48:03.000Z</time>
      </trkpt>
      <trkpt lat="46.36491" lon="6.85483">
        <ele>1056.7915806351</ele>
        <time>2012-06-09T10:48:07.000Z</time>
      </trkpt>
      <trkpt lat="46.365" lon="6.85485">
        <ele>1057.3341064446</ele>
        <time>2012-06-09T10:48:11.000Z</time>
      </trkpt>
      <trkpt lat="46.3651" lon="6.85486">
        <ele>1058.0438745112</ele>
        <time>2012-06-09T10:48:16.000Z</time>
      </trkpt>
      <trkpt lat="46.36521" lon="6.85484">
        <ele>1058.7507121579</ele>
        <time>2012-06-09T10:48:21.000Z</time>
      </trkpt>
      <trkpt lat="46.36532" lon="6.85484">
        <ele>1059.4254985105</ele>
        <time>2012-06-09T10:48:26.000Z</time>
      </trkpt>
      <trkpt lat="46.3654" lon="6.85489">
        <ele>1060.0478489573</ele>
        <time>2012-06-09T10:48:30.000Z</time>
      </trkpt>
      <trkpt lat="46.36549" lon="6.85498">
        <ele>1060.7234942701</ele>
        <time>2012-06-09T10:48:35.000Z</time>
      </trkpt>
      <trkpt lat="46.36559" lon="6.85506">
        <ele>1061.4364459891</ele>
        <time>2012-06-09T10:48:40.000Z</time>
      </trkpt>
      <trkpt lat="46.36567" lon="6.85512">
        <ele>1062.1755121924</ele>
        <time>2012-06-09T10:48:44.000Z</time>
      </trkpt>
      <trkpt lat="46.36577" lon="6.85518">
        <ele>1062.7228585347</ele>
        <time>2012-06-09T10:48:49.000Z</time>
      </trkpt>
      <trkpt lat="46.36585" lon="6.85514">
        <ele>1063.2260009743</ele>
        <time>2012-06-09T10:48:54.000Z</time>
      </trkpt>
      <trkpt lat="46.3659" lon="6.85502">
        <ele>1063.578200682</ele>
        <time>2012-06-09T10:49:00.000Z</time>
      </trkpt>
      <trkpt lat="46.36598" lon="6.8551">
        <ele>1063.5247404774</ele>
        <time>2012-06-09T10:50:07.000Z</time>
      </trkpt>
      <trkpt lat="46.36597" lon="6.85497">
        <ele>1063.3373183342</ele>
        <time>2012-06-09T10:57:54.000Z</time>
      </trkpt>
      <trkpt lat="46.36597" lon="6.85484">
        <ele>1064.4361228339</ele>
        <time>2012-06-09T10:58:19.000Z</time>
      </trkpt>
      <trkpt lat="46.36593" lon="6.85497">
        <ele>1065.0552859837</ele>
        <time>2012-06-09T10:58:54.000Z</time>
      </trkpt>
      <trkpt lat="46.36583" lon="6.85497">
        <ele>1065.2187001886</ele>
        <time>2012-06-09T11:03:55.000Z</time>
      </trkpt>
      <trkpt lat="46.36575" lon="6.85491">
        <ele>1065.543090132</ele>
        <time>2012-06-09T11:04:01.000Z</time>
      </trkpt>
      <trkpt lat="46.36565" lon="6.85487">
        <ele>1066.1301630924</ele>
        <time>2012-06-09T11:04:07.000Z</time>
      </trkpt>
      <trkpt lat="46.36557" lon="6.8548">
        <ele>1066.8711141647</ele>
        <time>2012-06-09T11:04:14.000Z</time>
      </trkpt>
      <trkpt lat="46.36549" lon="6.85472">
        <ele>1067.7197799153</ele>
        <time>2012-06-09T11:04:20.000Z</time>
      </trkpt>
      <trkpt lat="46.36541" lon="6.85465">
        <ele>1068.9438459407</ele>
        <time>2012-06-09T11:04:26.000Z</time>
      </trkpt>
      <trkpt lat="46.36532" lon="6.85458">
        <ele>1069.6506921585</ele>
        <time>2012-06-09T11:04:32.000Z</time>
      </trkpt>
      <trkpt lat="46.36523" lon="6.85453">
        <ele>1070.4754845109</ele>
        <time>2012-06-09T11:04:38.000Z</time>
      </trkpt>
      <trkpt lat="46.36514" lon="6.8545">
        <ele>1071.4128391577</ele>
        <time>2012-06-09T11:04:45.000Z</time>
      </trkpt>
      <trkpt lat="46.36504" lon="6.85446">
        <ele>1071.9789874104</ele>
        <time>2012-06-09T11:04:52.000Z</time>
      </trkpt>
      <trkpt lat="46.36496" lon="6.85442">
        <ele>1072.1652911873</ele>
        <time>2012-06-09T11:04:59.000Z</time>
      </trkpt>
      <trkpt lat="46.36486" lon="6.85439">
        <ele>1072.7157038311</ele>
        <time>2012-06-09T11:05:06.000Z</time>
      </trkpt>
      <trkpt lat="46.36477" lon="6.85434">
        <ele>1073.4309926818</ele>
        <time>2012-06-09T11:05:13.000Z</time>
      </trkpt>
      <trkpt lat="46.3647" lon="6.85424">
        <ele>1074.4116948772</ele>
        <time>2012-06-09T11:05:21.000Z</time>
      </trkpt>
      <trkpt lat="46.36465" lon="6.85412">
        <ele>1075.4281864141</ele>
        <time>2012-06-09T11:05:27.000Z</time>
      </trkpt>
      <trkpt lat="46.36459" lon="6.85399">
        <ele>1076.2597304898</ele>
        <time>2012-06-09T11:05:34.000Z</time>
      </trkpt>
      <trkpt lat="46.36453" lon="6.85389">
        <ele>1077.0518113429</ele>
        <time>2012-06-09T11:05:40.000Z</time>
      </trkpt>
      <trkpt lat="46.36445" lon="6.85381">
        <ele>1077.72626794</ele>
        <time>2012-06-09T11:05:47.000Z</time>
      </trkpt>
      <trkpt lat="46.36437" lon="6.85372">
        <ele>1078.138387558</ele>
        <time>2012-06-09T11:05:53.000Z</time>
      </trkpt>
      <trkpt lat="46.3643" lon="6.85363">
        <ele>1078.9968712906</ele>
        <time>2012-06-09T11:06:00.000Z</time>
      </trkpt>
      <trkpt lat="46.36424" lon="6.85353">
        <ele>1079.9578099034</ele>
        <time>2012-06-09T11:06:06.000Z</time>
      </trkpt>
      <trkpt lat="46.36416" lon="6.85342">
        <ele>1081.2304669324</ele>
        <time>2012-06-09T11:06:13.000Z</time>
      </trkpt>
      <trkpt lat="46.36409" lon="6.85333">
        <ele>1082.5113268527</ele>
        <time>2012-06-09T11:06:19.000Z</time>
      </trkpt>
      <trkpt lat="46.36401" lon="6.85324">
        <ele>1083.7679287969</ele>
        <time>2012-06-09T11:06:25.000Z</time>
      </trkpt>
      <trkpt lat="46.36393" lon="6.85313">
        <ele>1084.9775501578</ele>
        <time>2012-06-09T11:06:31.000Z</time>
      </trkpt>
      <trkpt lat="46.36388" lon="6.85303">
        <ele>1086.2142851105</ele>
        <time>2012-06-09T11:06:37.000Z</time>
      </trkpt>
      <trkpt lat="46.36382" lon="6.85292">
        <ele>1087.2899995773</ele>
        <time>2012-06-09T11:06:43.000Z</time>
      </trkpt>
      <trkpt lat="46.36377" lon="6.8528">
        <ele>1087.6829997041</ele>
        <time>2012-06-09T11:06:49.000Z</time>
      </trkpt>
      <trkpt lat="46.36371" lon="6.85268">
        <ele>1087.0580997929</ele>
        <time>2012-06-09T11:06:56.000Z</time>
      </trkpt>
      <trkpt lat="46.36363" lon="6.85263">
        <ele>1086.530669855</ele>
        <time>2012-06-09T11:07:01.000Z</time>
      </trkpt>
      <trkpt lat="46.36354" lon="6.8526">
        <ele>1087.3014688985</ele>
        <time>2012-06-09T11:07:07.000Z</time>
      </trkpt>
      <trkpt lat="46.36345" lon="6.85254">
        <ele>1088.651028229</ele>
        <time>2012-06-09T11:07:13.000Z</time>
      </trkpt>
      <trkpt lat="46.3634" lon="6.85242">
        <ele>1090.0157197603</ele>
        <time>2012-06-09T11:07:19.000Z</time>
      </trkpt>
      <trkpt lat="46.36335" lon="6.8523">
        <ele>1091.5410038322</ele>
        <time>2012-06-09T11:07:25.000Z</time>
      </trkpt>
      <trkpt lat="46.36328" lon="6.85219">
        <ele>1093.5987026825</ele>
        <time>2012-06-09T11:07:31.000Z</time>
      </trkpt>
      <trkpt lat="46.3632" lon="6.85209">
        <ele>1095.7290918778</ele>
        <time>2012-06-09T11:07:37.000Z</time>
      </trkpt>
      <trkpt lat="46.36311" lon="6.85203">
        <ele>1097.4003643144</ele>
        <time>2012-06-09T11:07:43.000Z</time>
      </trkpt>
      <trkpt lat="46.36302" lon="6.852">
        <ele>1099.3202550201</ele>
        <time>2012-06-09T11:07:50.000Z</time>
      </trkpt>
      <trkpt lat="46.36293" lon="6.85195">
        <ele>1101.2941785141</ele>
        <time>2012-06-09T11:07:56.000Z</time>
      </trkpt>
      <trkpt lat="46.36286" lon="6.85182">
        <ele>1102.6459249599</ele>
        <time>2012-06-09T11:08:01.000Z</time>
      </trkpt>
      <trkpt lat="46.3628" lon="6.85171">
        <ele>1103.5621474719</ele>
        <time>2012-06-09T11:08:06.000Z</time>
      </trkpt>
      <trkpt lat="46.36276" lon="6.85159">
        <ele>1104.1435032303</ele>
        <time>2012-06-09T11:08:11.000Z</time>
      </trkpt>
      <trkpt lat="46.36269" lon="6.8515">
        <ele>1104.6704522612</ele>
        <time>2012-06-09T11:08:16.000Z</time>
      </trkpt>
      <trkpt lat="46.36261" lon="6.85143">
        <ele>1105.9693165829</ele>
        <time>2012-06-09T11:08:23.000Z</time>
      </trkpt>
      <trkpt lat="46.36251" lon="6.85139">
        <ele>1106.908521608</ele>
        <time>2012-06-09T11:08:29.000Z</time>
      </trkpt>
      <trkpt lat="46.36241" lon="6.85136">
        <ele>1108.0459651256</ele>
        <time>2012-06-09T11:08:35.000Z</time>
      </trkpt>
      <trkpt lat="46.36232" lon="6.8513">
        <ele>1108.8421755879</ele>
        <time>2012-06-09T11:08:41.000Z</time>
      </trkpt>
      <trkpt lat="46.36223" lon="6.85124">
        <ele>1109.6095229115</ele>
        <time>2012-06-09T11:08:47.000Z</time>
      </trkpt>
      <trkpt lat="46.36213" lon="6.85119">
        <ele>1110.1766660381</ele>
        <time>2012-06-09T11:08:53.000Z</time>
      </trkpt>
      <trkpt lat="46.36204" lon="6.85115">
        <ele>1110.9936662267</ele>
        <time>2012-06-09T11:08:58.000Z</time>
      </trkpt>
      <trkpt lat="46.36194" lon="6.85111">
        <ele>1111.5655663587</ele>
        <time>2012-06-09T11:09:04.000Z</time>
      </trkpt>
      <trkpt lat="46.36184" lon="6.85108">
        <ele>1111.9958964511</ele>
        <time>2012-06-09T11:09:10.000Z</time>
      </trkpt>
      <trkpt lat="46.36174" lon="6.85105">
        <ele>1112.6871275157</ele>
        <time>2012-06-09T11:09:16.000Z</time>
      </trkpt>
      <trkpt lat="46.36164" lon="6.85101">
        <ele>1113.350989261</ele>
        <time>2012-06-09T11:09:22.000Z</time>
      </trkpt>
      <trkpt lat="46.36156" lon="6.85094">
        <ele>1113.8156924827</ele>
        <time>2012-06-09T11:09:27.000Z</time>
      </trkpt>
      <trkpt lat="46.36148" lon="6.85084">
        <ele>1114.1709847379</ele>
        <time>2012-06-09T11:09:35.000Z</time>
      </trkpt>
      <trkpt lat="46.36145" lon="6.85072">
        <ele>1114.3896893165</ele>
        <time>2012-06-09T11:09:40.000Z</time>
      </trkpt>
      <trkpt lat="46.36138" lon="6.85062">
        <ele>1114.8427825216</ele>
        <time>2012-06-09T11:09:46.000Z</time>
      </trkpt>
      <trkpt lat="46.36132" lon="6.85054">
        <ele>1116.5699477651</ele>
        <time>2012-06-09T11:09:53.000Z</time>
      </trkpt>
      <trkpt lat="46.36125" lon="6.85043">
        <ele>1118.3789634356</ele>
        <time>2012-06-09T11:09:58.000Z</time>
      </trkpt>
      <trkpt lat="46.36124" lon="6.85028">
        <ele>1120.0052744049</ele>
        <time>2012-06-09T11:10:03.000Z</time>
      </trkpt>
      <trkpt lat="46.36121" lon="6.85016">
        <ele>1121.7736920834</ele>
        <time>2012-06-09T11:10:08.000Z</time>
      </trkpt>
      <trkpt lat="46.36118" lon="6.85002">
        <ele>1123.5215844584</ele>
        <time>2012-06-09T11:10:14.000Z</time>
      </trkpt>
      <trkpt lat="46.36112" lon="6.84992">
        <ele>1125.1951091209</ele>
        <time>2012-06-09T11:10:20.000Z</time>
      </trkpt>
      <trkpt lat="46.36104" lon="6.84984">
        <ele>1126.8165763846</ele>
        <time>2012-06-09T11:10:27.000Z</time>
      </trkpt>
      <trkpt lat="46.36096" lon="6.84975">
        <ele>1128.4316034692</ele>
        <time>2012-06-09T11:10:34.000Z</time>
      </trkpt>
      <trkpt lat="46.36088" lon="6.84964">
        <ele>1130.3721224285</ele>
        <time>2012-06-09T11:10:40.000Z</time>
      </trkpt>
      <trkpt lat="46.36079" lon="6.8496">
        <ele>1132.6604856999</ele>
        <time>2012-06-09T11:10:45.000Z</time>
      </trkpt>
      <trkpt lat="46.3607" lon="6.84954">
        <ele>1134.6223399899</ele>
        <time>2012-06-09T11:10:49.000Z</time>
      </trkpt>
      <trkpt lat="46.36062" lon="6.84947">
        <ele>1136.805637993</ele>
        <time>2012-06-09T11:10:55.000Z</time>
      </trkpt>
      <trkpt lat="46.36054" lon="6.84936">
        <ele>1138.0939465951</ele>
        <time>2012-06-09T11:10:59.000Z</time>
      </trkpt>
      <trkpt lat="46.36049" lon="6.84924">
        <ele>1138.9957626166</ele>
        <time>2012-06-09T11:11:03.000Z</time>
      </trkpt>
      <trkpt lat="46.36045" lon="6.84911">
        <ele>1140.1970338316</ele>
        <time>2012-06-09T11:11:09.000Z</time>
      </trkpt>
      <trkpt lat="46.36042" lon="6.84899">
        <ele>1141.4879236821</ele>
        <time>2012-06-09T11:11:14.000Z</time>
      </trkpt>
      <trkpt lat="46.36036" lon="6.84888">
        <ele>1143.4115465775</ele>
        <time>2012-06-09T11:11:23.000Z</time>
      </trkpt>
      <trkpt lat="46.36028" lon="6.84881">
        <ele>1146.0780826042</ele>
        <time>2012-06-09T11:11:31.000Z</time>
      </trkpt>
      <trkpt lat="46.36019" lon="6.84875">
        <ele>1148.784657823</ele>
        <time>2012-06-09T11:11:38.000Z</time>
      </trkpt>
      <trkpt lat="46.36008" lon="6.84873">
        <ele>1151.5192604761</ele>
        <time>2012-06-09T11:11:43.000Z</time>
      </trkpt>
      <trkpt lat="46.35997" lon="6.84875">
        <ele>1153.6734823333</ele>
        <time>2012-06-09T11:11:48.000Z</time>
      </trkpt>
      <trkpt lat="46.35988" lon="6.84876">
        <ele>1155.9614376333</ele>
        <time>2012-06-09T11:11:55.000Z</time>
      </trkpt>
      <trkpt lat="46.3598" lon="6.84883">
        <ele>1157.8030063433</ele>
        <time>2012-06-09T11:11:59.000Z</time>
      </trkpt>
      <trkpt lat="46.35973" lon="6.84872">
        <ele>1158.8221044403</ele>
        <time>2012-06-09T11:12:06.000Z</time>
      </trkpt>
      <trkpt lat="46.35963" lon="6.84864">
        <ele>1159.5354731082</ele>
        <time>2012-06-09T11:12:12.000Z</time>
      </trkpt>
      <trkpt lat="46.35958" lon="6.84852">
        <ele>1159.8848311757</ele>
        <time>2012-06-09T11:12:17.000Z</time>
      </trkpt>
      <trkpt lat="46.35953" lon="6.8484">
        <ele>1160.069381823</ele>
        <time>2012-06-09T11:12:21.000Z</time>
      </trkpt>
      <trkpt lat="46.35946" lon="6.84831">
        <ele>1160.5285672761</ele>
        <time>2012-06-09T11:12:27.000Z</time>
      </trkpt>
      <trkpt lat="46.35937" lon="6.84826">
        <ele>1161.6299970933</ele>
        <time>2012-06-09T11:12:33.000Z</time>
      </trkpt>
      <trkpt lat="46.35929" lon="6.84815">
        <ele>1163.3909979653</ele>
        <time>2012-06-09T11:12:39.000Z</time>
      </trkpt>
      <trkpt lat="46.35921" lon="6.84805">
        <ele>1164.8936985757</ele>
        <time>2012-06-09T11:12:46.000Z</time>
      </trkpt>
      <trkpt lat="46.35912" lon="6.84796">
        <ele>1166.575589003</ele>
        <time>2012-06-09T11:12:52.000Z</time>
      </trkpt>
      <trkpt lat="46.35904" lon="6.84787">
        <ele>1168.7129123021</ele>
        <time>2012-06-09T11:13:00.000Z</time>
      </trkpt>
      <trkpt lat="46.35896" lon="6.84779">
        <ele>1170.2690386115</ele>
        <time>2012-06-09T11:13:04.000Z</time>
      </trkpt>
      <trkpt lat="46.35891" lon="6.84764">
        <ele>1172.048327028</ele>
        <time>2012-06-09T11:13:12.000Z</time>
      </trkpt>
      <trkpt lat="46.35883" lon="6.84752">
        <ele>1173.7738289196</ele>
        <time>2012-06-09T11:13:16.000Z</time>
      </trkpt>
      <trkpt lat="46.35878" lon="6.8474">
        <ele>1175.0416802437</ele>
        <time>2012-06-09T11:13:22.000Z</time>
      </trkpt>
      <trkpt lat="46.35873" lon="6.84727">
        <ele>1175.6891761706</ele>
        <time>2012-06-09T11:13:27.000Z</time>
      </trkpt>
      <trkpt lat="46.35871" lon="6.84707">
        <ele>1174.7624233194</ele>
        <time>2012-06-09T11:13:30.000Z</time>
      </trkpt>
      <trkpt lat="46.35869" lon="6.84693">
        <ele>1173.2436963236</ele>
        <time>2012-06-09T11:13:33.000Z</time>
      </trkpt>
      <trkpt lat="46.35864" lon="6.84681">
        <ele>1172.4205874265</ele>
        <time>2012-06-09T11:13:37.000Z</time>
      </trkpt>
      <trkpt lat="46.35862" lon="6.84668">
        <ele>1171.9644111986</ele>
        <time>2012-06-09T11:13:41.000Z</time>
      </trkpt>
      <trkpt lat="46.3586" lon="6.84654">
        <ele>1171.675087839</ele>
        <time>2012-06-09T11:13:46.000Z</time>
      </trkpt>
      <trkpt lat="46.35854" lon="6.84643">
        <ele>1170.8725614873</ele>
        <time>2012-06-09T11:13:50.000Z</time>
      </trkpt>
      <trkpt lat="46.35849" lon="6.84631">
        <ele>1170.0407930411</ele>
        <time>2012-06-09T11:13:55.000Z</time>
      </trkpt>
      <trkpt lat="46.35843" lon="6.84619">
        <ele>1169.3085551288</ele>
        <time>2012-06-09T11:14:01.000Z</time>
      </trkpt>
      <trkpt lat="46.35838" lon="6.84607">
        <ele>1168.8259885901</ele>
        <time>2012-06-09T11:14:07.000Z</time>
      </trkpt>
      <trkpt lat="46.35833" lon="6.84595">
        <ele>1168.5781920131</ele>
        <time>2012-06-09T11:14:12.000Z</time>
      </trkpt>
      <trkpt lat="46.35827" lon="6.84582">
        <ele>1168.7347344092</ele>
        <time>2012-06-09T11:14:18.000Z</time>
      </trkpt>
      <trkpt lat="46.35821" lon="6.84573">
        <ele>1169.5343140864</ele>
        <time>2012-06-09T11:14:23.000Z</time>
      </trkpt>
      <trkpt lat="46.35812" lon="6.84565">
        <ele>1170.2440198605</ele>
        <time>2012-06-09T11:14:27.000Z</time>
      </trkpt>
      <trkpt lat="46.35802" lon="6.8456">
        <ele>1170.5608139023</ele>
        <time>2012-06-09T11:14:33.000Z</time>
      </trkpt>
      <trkpt lat="46.35792" lon="6.84563">
        <ele>1171.0225697316</ele>
        <time>2012-06-09T11:14:39.000Z</time>
      </trkpt>
      <trkpt lat="46.35782" lon="6.84567">
        <ele>1171.1357988121</ele>
        <time>2012-06-09T11:14:46.000Z</time>
      </trkpt>
      <trkpt lat="46.35773" lon="6.84561">
        <ele>1171.3950591685</ele>
        <time>2012-06-09T11:14:53.000Z</time>
      </trkpt>
      <trkpt lat="46.35767" lon="6.84548">
        <ele>1171.486541418</ele>
        <time>2012-06-09T11:14:59.000Z</time>
      </trkpt>
      <trkpt lat="46.35762" lon="6.84535">
        <ele>1171.6405789926</ele>
        <time>2012-06-09T11:15:05.000Z</time>
      </trkpt>
      <trkpt lat="46.35754" lon="6.84528">
        <ele>1172.2284052948</ele>
        <time>2012-06-09T11:15:10.000Z</time>
      </trkpt>
      <trkpt lat="46.35746" lon="6.8452">
        <ele>1172.9698837064</ele>
        <time>2012-06-09T11:15:15.000Z</time>
      </trkpt>
      <trkpt lat="46.35737" lon="6.84511">
        <ele>1173.6089185945</ele>
        <time>2012-06-09T11:15:22.000Z</time>
      </trkpt>
      <trkpt lat="46.35732" lon="6.84499">
        <ele>1174.2062430161</ele>
        <time>2012-06-09T11:15:29.000Z</time>
      </trkpt>
      <trkpt lat="46.35727" lon="6.84487">
        <ele>1174.5943701113</ele>
        <time>2012-06-09T11:15:33.000Z</time>
      </trkpt>
      <trkpt lat="46.3572" lon="6.84477">
        <ele>1175.0760590779</ele>
        <time>2012-06-09T11:15:38.000Z</time>
      </trkpt>
      <trkpt lat="46.35712" lon="6.84471">
        <ele>1176.0732413545</ele>
        <time>2012-06-09T11:15:44.000Z</time>
      </trkpt>
      <trkpt lat="46.35705" lon="6.84481">
        <ele>1177.7912689482</ele>
        <time>2012-06-09T11:15:49.000Z</time>
      </trkpt>
      <trkpt lat="46.35698" lon="6.84491">
        <ele>1179.8938882637</ele>
        <time>2012-06-09T11:15:54.000Z</time>
      </trkpt>
      <trkpt lat="46.35688" lon="6.84496">
        <ele>1181.6357217846</ele>
        <time>2012-06-09T11:15:59.000Z</time>
      </trkpt>
      <trkpt lat="46.35677" lon="6.84492">
        <ele>1183.6650052492</ele>
        <time>2012-06-09T11:16:05.000Z</time>
      </trkpt>
      <trkpt lat="46.35667" lon="6.84488">
        <ele>1185.7755036745</ele>
        <time>2012-06-09T11:16:10.000Z</time>
      </trkpt>
      <trkpt lat="46.35658" lon="6.84482">
        <ele>1188.0628525721</ele>
        <time>2012-06-09T11:16:16.000Z</time>
      </trkpt>
      <trkpt lat="46.35646" lon="6.84483">
        <ele>1190.3839968005</ele>
        <time>2012-06-09T11:16:22.000Z</time>
      </trkpt>
      <trkpt lat="46.35639" lon="6.84493">
        <ele>1193.0887977603</ele>
        <time>2012-06-09T11:16:28.000Z</time>
      </trkpt>
      <trkpt lat="46.35632" lon="6.84501">
        <ele>1195.3721584322</ele>
        <time>2012-06-09T11:16:32.000Z</time>
      </trkpt>
      <trkpt lat="46.35624" lon="6.84508">
        <ele>1197.5705109026</ele>
        <time>2012-06-09T11:16:36.000Z</time>
      </trkpt>
      <trkpt lat="46.35617" lon="6.84516">
        <ele>1199.6193576318</ele>
        <time>2012-06-09T11:16:40.000Z</time>
      </trkpt>
      <trkpt lat="46.35608" lon="6.84524">
        <ele>1201.8335503423</ele>
        <time>2012-06-09T11:16:45.000Z</time>
      </trkpt>
      <trkpt lat="46.356" lon="6.84532">
        <ele>1203.2634852396</ele>
        <time>2012-06-09T11:16:48.000Z</time>
      </trkpt>
      <trkpt lat="46.35593" lon="6.84541">
        <ele>1204.3844396677</ele>
        <time>2012-06-09T11:16:52.000Z</time>
      </trkpt>
      <trkpt lat="46.35583" lon="6.84543">
        <ele>1205.2591077674</ele>
        <time>2012-06-09T11:16:56.000Z</time>
      </trkpt>
      <trkpt lat="46.35573" lon="6.84536">
        <ele>1205.5113754372</ele>
        <time>2012-06-09T11:17:01.000Z</time>
      </trkpt>
      <trkpt lat="46.35577" lon="6.84523">
        <ele>1205.597962806</ele>
        <time>2012-06-09T11:17:06.000Z</time>
      </trkpt>
      <trkpt lat="46.35587" lon="6.84518">
        <ele>1205.6885739642</ele>
        <time>2012-06-09T11:17:11.000Z</time>
      </trkpt>
      <trkpt lat="46.35595" lon="6.8451">
        <ele>1205.962001775</ele>
        <time>2012-06-09T11:17:16.000Z</time>
      </trkpt>
      <trkpt lat="46.35601" lon="6.84497">
        <ele>1206.0034012425</ele>
        <time>2012-06-09T11:17:21.000Z</time>
      </trkpt>
      <trkpt lat="46.35605" lon="6.84483">
        <ele>1206.2723808697</ele>
        <time>2012-06-09T11:17:26.000Z</time>
      </trkpt>
      <trkpt lat="46.35608" lon="6.84471">
        <ele>1206.6106666088</ele>
        <time>2012-06-09T11:17:31.000Z</time>
      </trkpt>
      <trkpt lat="46.35615" lon="6.84462">
        <ele>1206.4574666262</ele>
        <time>2012-06-09T11:17:35.000Z</time>
      </trkpt>
      <trkpt lat="46.35623" lon="6.8445">
        <ele>1206.1102266383</ele>
        <time>2012-06-09T11:17:40.000Z</time>
      </trkpt>
      <trkpt lat="46.3563" lon="6.84439">
        <ele>1205.5971586468</ele>
        <time>2012-06-09T11:17:45.000Z</time>
      </trkpt>
      <trkpt lat="46.35639" lon="6.84434">
        <ele>1205.7780110528</ele>
        <time>2012-06-09T11:17:51.000Z</time>
      </trkpt>
      <trkpt lat="46.3565" lon="6.84429">
        <ele>1207.0446077369</ele>
        <time>2012-06-09T11:17:58.000Z</time>
      </trkpt>
      <trkpt lat="46.35658" lon="6.84423">
        <ele>1208.3212254159</ele>
        <time>2012-06-09T11:18:03.000Z</time>
      </trkpt>
      <trkpt lat="46.35665" lon="6.84415">
        <ele>1209.4248577911</ele>
        <time>2012-06-09T11:18:08.000Z</time>
      </trkpt>
      <trkpt lat="46.35674" lon="6.84407">
        <ele>1210.5574004538</ele>
        <time>2012-06-09T11:18:14.000Z</time>
      </trkpt>
      <trkpt lat="46.3568" lon="6.84396">
        <ele>1211.3501803176</ele>
        <time>2012-06-09T11:18:20.000Z</time>
      </trkpt>
      <trkpt lat="46.35681" lon="6.84381">
        <ele>1211.7851262223</ele>
        <time>2012-06-09T11:18:26.000Z</time>
      </trkpt>
      <trkpt lat="46.3568" lon="6.84367">
        <ele>1212.1195883556</ele>
        <time>2012-06-09T11:18:32.000Z</time>
      </trkpt>
      <trkpt lat="46.35674" lon="6.84358">
        <ele>1212.173711849</ele>
        <time>2012-06-09T11:18:38.000Z</time>
      </trkpt>
      <trkpt lat="46.3567" lon="6.84346">
        <ele>1212.6915982943</ele>
        <time>2012-06-09T11:18:44.000Z</time>
      </trkpt>
      <trkpt lat="46.35662" lon="6.84339">
        <ele>1213.354118806</ele>
        <time>2012-06-09T11:18:49.000Z</time>
      </trkpt>
      <trkpt lat="46.35653" lon="6.84342">
        <ele>1213.9378831642</ele>
        <time>2012-06-09T11:18:55.000Z</time>
      </trkpt>
      <trkpt lat="46.35646" lon="6.84352">
        <ele>1214.4665182149</ele>
        <time>2012-06-09T11:19:00.000Z</time>
      </trkpt>
      <trkpt lat="46.35638" lon="6.84362">
        <ele>1214.9865627505</ele>
        <time>2012-06-09T11:19:06.000Z</time>
      </trkpt>
      <trkpt lat="46.35633" lon="6.84374">
        <ele>1215.4405939253</ele>
        <time>2012-06-09T11:19:11.000Z</time>
      </trkpt>
      <trkpt lat="46.35627" lon="6.84386">
        <ele>1216.0584157477</ele>
        <time>2012-06-09T11:19:16.000Z</time>
      </trkpt>
      <trkpt lat="46.35621" lon="6.84397">
        <ele>1216.7908910234</ele>
        <time>2012-06-09T11:19:22.000Z</time>
      </trkpt>
      <trkpt lat="46.35613" lon="6.84405">
        <ele>1217.7236237164</ele>
        <time>2012-06-09T11:19:27.000Z</time>
      </trkpt>
      <trkpt lat="46.35605" lon="6.84412">
        <ele>1218.5265366015</ele>
        <time>2012-06-09T11:19:33.000Z</time>
      </trkpt>
      <trkpt lat="46.35594" lon="6.84414">
        <ele>1219.118575621</ele>
        <time>2012-06-09T11:19:37.000Z</time>
      </trkpt>
      <trkpt lat="46.35583" lon="6.84416">
        <ele>1219.5630029347</ele>
        <time>2012-06-09T11:19:42.000Z</time>
      </trkpt>
      <trkpt lat="46.35572" lon="6.84418">
        <ele>1219.8741020543</ele>
        <time>2012-06-09T11:19:47.000Z</time>
      </trkpt>
      <trkpt lat="46.35563" lon="6.8442">
        <ele>1220.271871438</ele>
        <time>2012-06-09T11:19:51.000Z</time>
      </trkpt>
      <trkpt lat="46.35553" lon="6.84419">
        <ele>1220.5803100066</ele>
        <time>2012-06-09T11:19:56.000Z</time>
      </trkpt>
      <trkpt lat="46.35544" lon="6.84413">
        <ele>1221.1862170046</ele>
        <time>2012-06-09T11:20:02.000Z</time>
      </trkpt>
      <trkpt lat="46.35539" lon="6.84402">
        <ele>1221.9403519032</ele>
        <time>2012-06-09T11:20:08.000Z</time>
      </trkpt>
      <trkpt lat="46.3553" lon="6.84398">
        <ele>1222.9182463323</ele>
        <time>2012-06-09T11:20:15.000Z</time>
      </trkpt>
      <trkpt lat="46.35521" lon="6.84403">
        <ele>1223.9627724326</ele>
        <time>2012-06-09T11:20:29.000Z</time>
      </trkpt>
      <trkpt lat="46.35513" lon="6.8441">
        <ele>1225.2639407028</ele>
        <time>2012-06-09T11:20:35.000Z</time>
      </trkpt>
      <trkpt lat="46.35503" lon="6.84415">
        <ele>1226.654758492</ele>
        <time>2012-06-09T11:20:40.000Z</time>
      </trkpt>
      <trkpt lat="46.35494" lon="6.84417">
        <ele>1228.0483309444</ele>
        <time>2012-06-09T11:20:45.000Z</time>
      </trkpt>
      <trkpt lat="46.35484" lon="6.84418">
        <ele>1229.6238316611</ele>
        <time>2012-06-09T11:20:50.000Z</time>
      </trkpt>
      <trkpt lat="46.35476" lon="6.84422">
        <ele>1231.2666821627</ele>
        <time>2012-06-09T11:20:55.000Z</time>
      </trkpt>
      <trkpt lat="46.35466" lon="6.84427">
        <ele>1232.8366775139</ele>
        <time>2012-06-09T11:21:00.000Z</time>
      </trkpt>
      <trkpt lat="46.35458" lon="6.84432">
        <ele>1234.2356742597</ele>
        <time>2012-06-09T11:21:05.000Z</time>
      </trkpt>
      <trkpt lat="46.3545" lon="6.84442">
        <ele>1235.7849719818</ele>
        <time>2012-06-09T11:21:11.000Z</time>
      </trkpt>
      <trkpt lat="46.35444" lon="6.84454">
        <ele>1237.9194803873</ele>
        <time>2012-06-09T11:21:17.000Z</time>
      </trkpt>
      <trkpt lat="46.35439" lon="6.84465">
        <ele>1239.9836362711</ele>
        <time>2012-06-09T11:21:23.000Z</time>
      </trkpt>
      <trkpt lat="46.35434" lon="6.84478">
        <ele>1242.1485453898</ele>
        <time>2012-06-09T11:21:29.000Z</time>
      </trkpt>
      <trkpt lat="46.35428" lon="6.84487">
        <ele>1244.0839817728</ele>
        <time>2012-06-09T11:21:34.000Z</time>
      </trkpt>
      <trkpt lat="46.35422" lon="6.84499">
        <ele>1245.648787241</ele>
        <time>2012-06-09T11:21:39.000Z</time>
      </trkpt>
      <trkpt lat="46.35416" lon="6.84511">
        <ele>1247.2841510687</ele>
        <time>2012-06-09T11:21:45.000Z</time>
      </trkpt>
      <trkpt lat="46.35408" lon="6.8452">
        <ele>1249.2389057481</ele>
        <time>2012-06-09T11:21:51.000Z</time>
      </trkpt>
      <trkpt lat="46.354" lon="6.84526">
        <ele>1251.2972340237</ele>
        <time>2012-06-09T11:21:56.000Z</time>
      </trkpt>
      <trkpt lat="46.35392" lon="6.84534">
        <ele>1253.1280638166</ele>
        <time>2012-06-09T11:22:00.000Z</time>
      </trkpt>
      <trkpt lat="46.35382" lon="6.8454">
        <ele>1254.6196446716</ele>
        <time>2012-06-09T11:22:04.000Z</time>
      </trkpt>
      <trkpt lat="46.35371" lon="6.84541">
        <ele>1256.1137512701</ele>
        <time>2012-06-09T11:22:09.000Z</time>
      </trkpt>
      <trkpt lat="46.35363" lon="6.84548">
        <ele>1257.8796258891</ele>
        <time>2012-06-09T11:22:15.000Z</time>
      </trkpt>
      <trkpt lat="46.35354" lon="6.84556">
        <ele>1259.9857381224</ele>
        <time>2012-06-09T11:22:22.000Z</time>
      </trkpt>
      <trkpt lat="46.35347" lon="6.84567">
        <ele>1262.2400166856</ele>
        <time>2012-06-09T11:22:28.000Z</time>
      </trkpt>
      <trkpt lat="46.35341" lon="6.84579">
        <ele>1263.84801168</ele>
        <time>2012-06-09T11:22:38.000Z</time>
      </trkpt>
      <trkpt lat="46.35333" lon="6.84586">
        <ele>1264.583608176</ele>
        <time>2012-06-09T11:22:43.000Z</time>
      </trkpt>
      <trkpt lat="46.35324" lon="6.84593">
        <ele>1264.1985257232</ele>
        <time>2012-06-09T11:22:47.000Z</time>
      </trkpt>
      <trkpt lat="46.35315" lon="6.84596">
        <ele>1262.9089680062</ele>
        <time>2012-06-09T11:22:51.000Z</time>
      </trkpt>
      <trkpt lat="46.35305" lon="6.84599">
        <ele>1261.7062776044</ele>
        <time>2012-06-09T11:22:55.000Z</time>
      </trkpt>
      <trkpt lat="46.35296" lon="6.84601">
        <ele>1260.774394323</ele>
        <time>2012-06-09T11:23:00.000Z</time>
      </trkpt>
      <trkpt lat="46.35286" lon="6.84605">
        <ele>1260.1220760261</ele>
        <time>2012-06-09T11:23:04.000Z</time>
      </trkpt>
      <trkpt lat="46.3528" lon="6.84594">
        <ele>1259.8154532183</ele>
        <time>2012-06-09T11:23:13.000Z</time>
      </trkpt>
      <trkpt lat="46.35289" lon="6.84588">
        <ele>1259.5408172528</ele>
        <time>2012-06-09T11:23:19.000Z</time>
      </trkpt>
      <trkpt lat="46.35297" lon="6.84583">
        <ele>1259.138572077</ele>
        <time>2012-06-09T11:23:26.000Z</time>
      </trkpt>
      <trkpt lat="46.35307" lon="6.8458">
        <ele>1258.6770004539</ele>
        <time>2012-06-09T11:23:32.000Z</time>
      </trkpt>
      <trkpt lat="46.35314" lon="6.8457">
        <ele>1258.4739003177</ele>
        <time>2012-06-09T11:23:38.000Z</time>
      </trkpt>
      <trkpt lat="46.35319" lon="6.84556">
        <ele>1258.3617302224</ele>
        <time>2012-06-09T11:23:44.000Z</time>
      </trkpt>
      <trkpt lat="46.35325" lon="6.84544">
        <ele>1258.4032111557</ele>
        <time>2012-06-09T11:23:50.000Z</time>
      </trkpt>
      <trkpt lat="46.35331" lon="6.84533">
        <ele>1258.372247809</ele>
        <time>2012-06-09T11:23:55.000Z</time>
      </trkpt>
      <trkpt lat="46.35336" lon="6.8452">
        <ele>1258.3805734663</ele>
        <time>2012-06-09T11:24:00.000Z</time>
      </trkpt>
      <trkpt lat="46.35344" lon="6.84511">
        <ele>1258.4764014264</ele>
        <time>2012-06-09T11:24:05.000Z</time>
      </trkpt>
      <trkpt lat="46.35352" lon="6.84504">
        <ele>1258.9634809985</ele>
        <time>2012-06-09T11:24:11.000Z</time>
      </trkpt>
      <trkpt lat="46.35358" lon="6.84496">
        <ele>1259.8444366989</ele>
        <time>2012-06-09T11:24:17.000Z</time>
      </trkpt>
      <trkpt lat="46.35365" lon="6.84485">
        <ele>1260.4311056893</ele>
        <time>2012-06-09T11:24:22.000Z</time>
      </trkpt>
      <trkpt lat="46.3537" lon="6.84472">
        <ele>1260.3317739825</ele>
        <time>2012-06-09T11:24:28.000Z</time>
      </trkpt>
      <trkpt lat="46.35376" lon="6.8446">
        <ele>1259.5422417877</ele>
        <time>2012-06-09T11:24:34.000Z</time>
      </trkpt>
      <trkpt lat="46.35383" lon="6.8445">
        <ele>1259.6495692514</ele>
        <time>2012-06-09T11:24:40.000Z</time>
      </trkpt>
      <trkpt lat="46.35391" lon="6.8444">
        <ele>1260.264698476</ele>
        <time>2012-06-09T11:24:45.000Z</time>
      </trkpt>
      <trkpt lat="46.35397" lon="6.84428">
        <ele>1261.1452889332</ele>
        <time>2012-06-09T11:24:51.000Z</time>
      </trkpt>
      <trkpt lat="46.35405" lon="6.84419">
        <ele>1261.9417022532</ele>
        <time>2012-06-09T11:24:56.000Z</time>
      </trkpt>
      <trkpt lat="46.35407" lon="6.84405">
        <ele>1262.9191915773</ele>
        <time>2012-06-09T11:25:01.000Z</time>
      </trkpt>
      <trkpt lat="46.3541" lon="6.8439">
        <ele>1263.3034341041</ele>
        <time>2012-06-09T11:25:06.000Z</time>
      </trkpt>
      <trkpt lat="46.3541" lon="6.84375">
        <ele>1264.1424038729</ele>
        <time>2012-06-09T11:25:11.000Z</time>
      </trkpt>
      <trkpt lat="46.35411" lon="6.8436">
        <ele>1264.969682711</ele>
        <time>2012-06-09T11:25:16.000Z</time>
      </trkpt>
      <trkpt lat="46.35415" lon="6.84347">
        <ele>1265.6987778977</ele>
        <time>2012-06-09T11:25:21.000Z</time>
      </trkpt>
      <trkpt lat="46.35419" lon="6.84334">
        <ele>1266.2991445284</ele>
        <time>2012-06-09T11:25:26.000Z</time>
      </trkpt>
      <trkpt lat="46.35425" lon="6.84323">
        <ele>1267.0494011699</ele>
        <time>2012-06-09T11:25:31.000Z</time>
      </trkpt>
      <trkpt lat="46.35431" lon="6.84313">
        <ele>1267.7545808189</ele>
        <time>2012-06-09T11:25:36.000Z</time>
      </trkpt>
      <trkpt lat="46.35437" lon="6.84301">
        <ele>1268.2782065732</ele>
        <time>2012-06-09T11:25:42.000Z</time>
      </trkpt>
      <trkpt lat="46.35439" lon="6.84288">
        <ele>1268.6447446013</ele>
        <time>2012-06-09T11:25:47.000Z</time>
      </trkpt>
      <trkpt lat="46.35445" lon="6.84276">
        <ele>1269.0513212209</ele>
        <time>2012-06-09T11:25:52.000Z</time>
      </trkpt>
      <trkpt lat="46.35453" lon="6.84265">
        <ele>1269.4859248546</ele>
        <time>2012-06-09T11:25:57.000Z</time>
      </trkpt>
      <trkpt lat="46.35458" lon="6.84253">
        <ele>1269.3401473982</ele>
        <time>2012-06-09T11:26:02.000Z</time>
      </trkpt>
      <trkpt lat="46.35461" lon="6.8424">
        <ele>1269.3881031788</ele>
        <time>2012-06-09T11:26:07.000Z</time>
      </trkpt>
      <trkpt lat="46.35465" lon="6.84227">
        <ele>1269.4516722251</ele>
        <time>2012-06-09T11:26:13.000Z</time>
      </trkpt>
      <trkpt lat="46.35473" lon="6.84221">
        <ele>1269.5261705576</ele>
        <time>2012-06-09T11:26:21.000Z</time>
      </trkpt>
      <trkpt lat="46.35479" lon="6.8421">
        <ele>1269.9083193903</ele>
        <time>2012-06-09T11:26:26.000Z</time>
      </trkpt>
      <trkpt lat="46.35484" lon="6.84197">
        <ele>1270.7458235732</ele>
        <time>2012-06-09T11:26:32.000Z</time>
      </trkpt>
      <trkpt lat="46.35492" lon="6.8419">
        <ele>1271.7220765013</ele>
        <time>2012-06-09T11:26:37.000Z</time>
      </trkpt>
      <trkpt lat="46.355" lon="6.84185">
        <ele>1272.4354535509</ele>
        <time>2012-06-09T11:26:41.000Z</time>
      </trkpt>
      <trkpt lat="46.3551" lon="6.84181">
        <ele>1273.9248174856</ele>
        <time>2012-06-09T11:26:45.000Z</time>
      </trkpt>
      <trkpt lat="46.35518" lon="6.84178">
        <ele>1275.9873722399</ele>
        <time>2012-06-09T11:26:49.000Z</time>
      </trkpt>
      <trkpt lat="46.35527" lon="6.8418">
        <ele>1278.541160568</ele>
        <time>2012-06-09T11:26:53.000Z</time>
      </trkpt>
      <trkpt lat="46.35537" lon="6.84181">
        <ele>1281.1088123976</ele>
        <time>2012-06-09T11:26:57.000Z</time>
      </trkpt>
      <trkpt lat="46.35546" lon="6.84179">
        <ele>1282.8461686783</ele>
        <time>2012-06-09T11:27:02.000Z</time>
      </trkpt>
      <trkpt lat="46.35555" lon="6.84176">
        <ele>1284.7523180748</ele>
        <time>2012-06-09T11:27:08.000Z</time>
      </trkpt>
      <trkpt lat="46.35564" lon="6.84173">
        <ele>1285.8466226524</ele>
        <time>2012-06-09T11:27:14.000Z</time>
      </trkpt>
      <trkpt lat="46.35573" lon="6.84168">
        <ele>1286.5226358567</ele>
        <time>2012-06-09T11:27:20.000Z</time>
      </trkpt>
      <trkpt lat="46.35583" lon="6.84163">
        <ele>1287.1158450997</ele>
        <time>2012-06-09T11:27:25.000Z</time>
      </trkpt>
      <trkpt lat="46.35591" lon="6.84154">
        <ele>1287.5310915698</ele>
        <time>2012-06-09T11:27:31.000Z</time>
      </trkpt>
      <trkpt lat="46.35598" lon="6.84145">
        <ele>1287.7317640988</ele>
        <time>2012-06-09T11:27:36.000Z</time>
      </trkpt>
      <trkpt lat="46.35604" lon="6.84135">
        <ele>1288.0222348692</ele>
        <time>2012-06-09T11:27:41.000Z</time>
      </trkpt>
      <trkpt lat="46.3561" lon="6.84123">
        <ele>1288.8555644084</ele>
        <time>2012-06-09T11:27:47.000Z</time>
      </trkpt>
      <trkpt lat="46.35619" lon="6.84115">
        <ele>1289.7988950859</ele>
        <time>2012-06-09T11:27:52.000Z</time>
      </trkpt>
      <trkpt lat="46.35626" lon="6.84106">
        <ele>1290.2792265601</ele>
        <time>2012-06-09T11:27:58.000Z</time>
      </trkpt>
      <trkpt lat="46.35635" lon="6.84102">
        <ele>1290.6754585921</ele>
        <time>2012-06-09T11:28:04.000Z</time>
      </trkpt>
      <trkpt lat="46.35645" lon="6.84104">
        <ele>1291.3428210145</ele>
        <time>2012-06-09T11:28:09.000Z</time>
      </trkpt>
      <trkpt lat="46.35654" lon="6.84109">
        <ele>1292.1399747101</ele>
        <time>2012-06-09T11:28:13.000Z</time>
      </trkpt>
      <trkpt lat="46.35663" lon="6.84115">
        <ele>1292.6979822971</ele>
        <time>2012-06-09T11:28:18.000Z</time>
      </trkpt>
      <trkpt lat="46.35672" lon="6.84122">
        <ele>1293.208587608</ele>
        <time>2012-06-09T11:28:23.000Z</time>
      </trkpt>
      <trkpt lat="46.35677" lon="6.84132">
        <ele>1293.9560113256</ele>
        <time>2012-06-09T11:28:29.000Z</time>
      </trkpt>
      <trkpt lat="46.35684" lon="6.84141">
        <ele>1294.9592079279</ele>
        <time>2012-06-09T11:28:37.000Z</time>
      </trkpt>
      <trkpt lat="46.35695" lon="6.84147">
        <ele>1295.7214455495</ele>
        <time>2012-06-09T11:28:41.000Z</time>
      </trkpt>
      <trkpt lat="46.35704" lon="6.84149">
        <ele>1296.3450118847</ele>
        <time>2012-06-09T11:28:44.000Z</time>
      </trkpt>
      <trkpt lat="46.35716" lon="6.84153">
        <ele>1297.0215083193</ele>
        <time>2012-06-09T11:28:47.000Z</time>
      </trkpt>
      <trkpt lat="46.35725" lon="6.84158">
        <ele>1297.7050558235</ele>
        <time>2012-06-09T11:28:50.000Z</time>
      </trkpt>
      <trkpt lat="46.35735" lon="6.84162">
        <ele>1298.4235390764</ele>
        <time>2012-06-09T11:28:54.000Z</time>
      </trkpt>
      <trkpt lat="46.35746" lon="6.84166">
        <ele>1299.3464773535</ele>
        <time>2012-06-09T11:28:58.000Z</time>
      </trkpt>
      <trkpt lat="46.35756" lon="6.8417">
        <ele>1300.5025341475</ele>
        <time>2012-06-09T11:29:02.000Z</time>
      </trkpt>
      <trkpt lat="46.35761" lon="6.84183">
        <ele>1302.1517739032</ele>
        <time>2012-06-09T11:29:08.000Z</time>
      </trkpt>
      <trkpt lat="46.35767" lon="6.84193">
        <ele>1304.4762417323</ele>
        <time>2012-06-09T11:29:13.000Z</time>
      </trkpt>
      <trkpt lat="46.35774" lon="6.84207">
        <ele>1307.6033692126</ele>
        <time>2012-06-09T11:29:18.000Z</time>
      </trkpt>
      <trkpt lat="46.35781" lon="6.84218">
        <ele>1310.0323584488</ele>
        <time>2012-06-09T11:29:22.000Z</time>
      </trkpt>
      <trkpt lat="46.35788" lon="6.8423">
        <ele>1311.8226509142</ele>
        <time>2012-06-09T11:29:26.000Z</time>
      </trkpt>
      <trkpt lat="46.35793" lon="6.84241">
        <ele>1313.3158556399</ele>
        <time>2012-06-09T11:29:30.000Z</time>
      </trkpt>
      <trkpt lat="46.35796" lon="6.84253">
        <ele>1315.2910989479</ele>
        <time>2012-06-09T11:29:34.000Z</time>
      </trkpt>
      <trkpt lat="46.35803" lon="6.84262">
        <ele>1316.7637692636</ele>
        <time>2012-06-09T11:29:37.000Z</time>
      </trkpt>
      <trkpt lat="46.3581" lon="6.84273">
        <ele>1317.6146384845</ele>
        <time>2012-06-09T11:29:42.000Z</time>
      </trkpt>
      <trkpt lat="46.35818" lon="6.8428">
        <ele>1319.3502469391</ele>
        <time>2012-06-09T11:29:48.000Z</time>
      </trkpt>
      <trkpt lat="46.3583" lon="6.84278">
        <ele>1320.1151728574</ele>
        <time>2012-06-09T11:29:52.000Z</time>
      </trkpt>
      <trkpt lat="46.3584" lon="6.84274">
        <ele>1320.4106210002</ele>
        <time>2012-06-09T11:29:55.000Z</time>
      </trkpt>
      <trkpt lat="46.3585" lon="6.84274">
        <ele>1320.5874347001</ele>
        <time>2012-06-09T11:29:59.000Z</time>
      </trkpt>
      <trkpt lat="46.35858" lon="6.84281">
        <ele>1321.1912042901</ele>
        <time>2012-06-09T11:30:03.000Z</time>
      </trkpt>
      <trkpt lat="46.35865" lon="6.84291">
        <ele>1322.3038430031</ele>
        <time>2012-06-09T11:30:08.000Z</time>
      </trkpt>
      <trkpt lat="46.35872" lon="6.843">
        <ele>1323.2026901021</ele>
        <time>2012-06-09T11:30:12.000Z</time>
      </trkpt>
      <trkpt lat="46.35878" lon="6.84309">
        <ele>1324.8218830715</ele>
        <time>2012-06-09T11:30:17.000Z</time>
      </trkpt>
      <trkpt lat="46.35888" lon="6.84318">
        <ele>1326.5853181501</ele>
        <time>2012-06-09T11:30:21.000Z</time>
      </trkpt>
      <trkpt lat="46.35893" lon="6.84332">
        <ele>1328.689722705</ele>
        <time>2012-06-09T11:30:26.000Z</time>
      </trkpt>
      <trkpt lat="46.35899" lon="6.84342">
        <ele>1330.5828058935</ele>
        <time>2012-06-09T11:30:30.000Z</time>
      </trkpt>
      <trkpt lat="46.35905" lon="6.84351">
        <ele>1332.7479641255</ele>
        <time>2012-06-09T11:30:34.000Z</time>
      </trkpt>
      <trkpt lat="46.3591" lon="6.84366">
        <ele>1334.1735748878</ele>
        <time>2012-06-09T11:30:38.000Z</time>
      </trkpt>
      <trkpt lat="46.35914" lon="6.84379">
        <ele>1335.0815024215</ele>
        <time>2012-06-09T11:30:42.000Z</time>
      </trkpt>
      <trkpt lat="46.35918" lon="6.84393">
        <ele>1335.897051695</ele>
        <time>2012-06-09T11:30:47.000Z</time>
      </trkpt>
      <trkpt lat="46.35923" lon="6.84404">
        <ele>1335.2679361865</ele>
        <time>2012-06-09T11:30:52.000Z</time>
      </trkpt>
      <trkpt lat="46.35926" lon="6.84418">
        <ele>1334.8575553306</ele>
        <time>2012-06-09T11:30:57.000Z</time>
      </trkpt>
      <trkpt lat="46.35934" lon="6.84427">
        <ele>1334.5402887314</ele>
        <time>2012-06-09T11:31:03.000Z</time>
      </trkpt>
      <trkpt lat="46.35945" lon="6.84433">
        <ele>1334.498202112</ele>
        <time>2012-06-09T11:31:08.000Z</time>
      </trkpt>
      <trkpt lat="46.35954" lon="6.84437">
        <ele>1334.1987414784</ele>
        <time>2012-06-09T11:31:13.000Z</time>
      </trkpt>
      <trkpt lat="46.35963" lon="6.84441">
        <ele>1334.1391190349</ele>
        <time>2012-06-09T11:31:18.000Z</time>
      </trkpt>
      <trkpt lat="46.35973" lon="6.84447">
        <ele>1334.2773833244</ele>
        <time>2012-06-09T11:31:23.000Z</time>
      </trkpt>
      <trkpt lat="46.35981" lon="6.84453">
        <ele>1334.4041683271</ele>
        <time>2012-06-09T11:31:28.000Z</time>
      </trkpt>
      <trkpt lat="46.35991" lon="6.84459">
        <ele>1334.942917829</ele>
        <time>2012-06-09T11:31:33.000Z</time>
      </trkpt>
      <trkpt lat="46.36" lon="6.84465">
        <ele>1335.3800424803</ele>
        <time>2012-06-09T11:31:38.000Z</time>
      </trkpt>
      <trkpt lat="46.3601" lon="6.84466">
        <ele>1335.9260297362</ele>
        <time>2012-06-09T11:31:43.000Z</time>
      </trkpt>
      <trkpt lat="46.36018" lon="6.84468">
        <ele>1336.9082208153</ele>
        <time>2012-06-09T11:31:50.000Z</time>
      </trkpt>
      <trkpt lat="46.3603" lon="6.84468">
        <ele>1337.5057545707</ele>
        <time>2012-06-09T11:31:55.000Z</time>
      </trkpt>
      <trkpt lat="46.36039" lon="6.84465">
        <ele>1338.4340281995</ele>
        <time>2012-06-09T11:32:02.000Z</time>
      </trkpt>
      <trkpt lat="46.36049" lon="6.84465">
        <ele>1339.7438197397</ele>
        <time>2012-06-09T11:32:07.000Z</time>
      </trkpt>
      <trkpt lat="46.36057" lon="6.84468">
        <ele>1341.3506738178</ele>
        <time>2012-06-09T11:32:11.000Z</time>
      </trkpt>
      <trkpt lat="46.36068" lon="6.84472">
        <ele>1343.3754716724</ele>
        <time>2012-06-09T11:32:16.000Z</time>
      </trkpt>
      <trkpt lat="46.36074" lon="6.84481">
        <ele>1345.7228301707</ele>
        <time>2012-06-09T11:32:22.000Z</time>
      </trkpt>
      <trkpt lat="46.36083" lon="6.84488">
        <ele>1348.2659811195</ele>
        <time>2012-06-09T11:32:26.000Z</time>
      </trkpt>
      <trkpt lat="46.36092" lon="6.84491">
        <ele>1350.7961867836</ele>
        <time>2012-06-09T11:32:30.000Z</time>
      </trkpt>
      <trkpt lat="46.361" lon="6.84496">
        <ele>1352.1473307486</ele>
        <time>2012-06-09T11:32:35.000Z</time>
      </trkpt>
      <trkpt lat="46.36109" lon="6.84503">
        <ele>1352.913131524</ele>
        <time>2012-06-09T11:32:41.000Z</time>
      </trkpt>
      <trkpt lat="46.36119" lon="6.84504">
        <ele>1352.7591920668</ele>
        <time>2012-06-09T11:32:47.000Z</time>
      </trkpt>
      <trkpt lat="46.36128" lon="6.845">
        <ele>1352.5614344468</ele>
        <time>2012-06-09T11:32:52.000Z</time>
      </trkpt>
      <trkpt lat="46.36136" lon="6.84508">
        <ele>1352.9930041127</ele>
        <time>2012-06-09T11:32:58.000Z</time>
      </trkpt>
      <trkpt lat="46.36143" lon="6.8452">
        <ele>1352.7851028789</ele>
        <time>2012-06-09T11:33:04.000Z</time>
      </trkpt>
      <trkpt lat="46.36152" lon="6.84525">
        <ele>1352.1595720152</ele>
        <time>2012-06-09T11:33:10.000Z</time>
      </trkpt>
      <trkpt lat="46.36163" lon="6.84527">
        <ele>1351.4217004107</ele>
        <time>2012-06-09T11:33:16.000Z</time>
      </trkpt>
      <trkpt lat="46.36171" lon="6.84534">
        <ele>1350.6351902875</ele>
        <time>2012-06-09T11:33:21.000Z</time>
      </trkpt>
      <trkpt lat="46.36179" lon="6.8454">
        <ele>1349.6946332012</ele>
        <time>2012-06-09T11:33:25.000Z</time>
      </trkpt>
      <trkpt lat="46.36189" lon="6.84545">
        <ele>1348.0762432409</ele>
        <time>2012-06-09T11:33:29.000Z</time>
      </trkpt>
      <trkpt lat="46.36195" lon="6.84556">
        <ele>1347.3033702686</ele>
        <time>2012-06-09T11:33:34.000Z</time>
      </trkpt>
      <trkpt lat="46.36203" lon="6.84564">
        <ele>1346.162359188</ele>
        <time>2012-06-09T11:33:39.000Z</time>
      </trkpt>
      <trkpt lat="46.36211" lon="6.84573">
        <ele>1346.4436514316</ele>
        <time>2012-06-09T11:33:45.000Z</time>
      </trkpt>
      <trkpt lat="46.36219" lon="6.84583">
        <ele>1346.6705560021</ele>
        <time>2012-06-09T11:33:51.000Z</time>
      </trkpt>
      <trkpt lat="46.36227" lon="6.84589">
        <ele>1347.0693892015</ele>
        <time>2012-06-09T11:33:55.000Z</time>
      </trkpt>
      <trkpt lat="46.36237" lon="6.84597">
        <ele>1347.318572441</ele>
        <time>2012-06-09T11:33:59.000Z</time>
      </trkpt>
      <trkpt lat="46.36244" lon="6.84606">
        <ele>1347.8230007087</ele>
        <time>2012-06-09T11:34:04.000Z</time>
      </trkpt>
      <trkpt lat="46.36252" lon="6.84613">
        <ele>1348.3561004961</ele>
        <time>2012-06-09T11:34:08.000Z</time>
      </trkpt>
      <trkpt lat="46.3626" lon="6.84619">
        <ele>1348.7292703473</ele>
        <time>2012-06-09T11:34:12.000Z</time>
      </trkpt>
      <trkpt lat="46.36267" lon="6.84612">
        <ele>1349.8904892431</ele>
        <time>2012-06-09T11:34:19.000Z</time>
      </trkpt>
      <trkpt lat="46.3626" lon="6.84604">
        <ele>1351.5433424702</ele>
        <time>2012-06-09T11:34:26.000Z</time>
      </trkpt>
      <trkpt lat="46.36251" lon="6.84599">
        <ele>1353.7203397291</ele>
        <time>2012-06-09T11:34:34.000Z</time>
      </trkpt>
      <trkpt lat="46.36243" lon="6.8459">
        <ele>1355.0642378104</ele>
        <time>2012-06-09T11:34:40.000Z</time>
      </trkpt>
      <trkpt lat="46.36235" lon="6.8458">
        <ele>1356.0049664673</ele>
        <time>2012-06-09T11:34:46.000Z</time>
      </trkpt>
      <trkpt lat="46.36229" lon="6.84571">
        <ele>1356.9034765271</ele>
        <time>2012-06-09T11:34:50.000Z</time>
      </trkpt>
      <trkpt lat="46.36222" lon="6.8456">
        <ele>1358.072433569</ele>
        <time>2012-06-09T11:34:56.000Z</time>
      </trkpt>
      <trkpt lat="46.36216" lon="6.84552">
        <ele>1360.1207034983</ele>
        <time>2012-06-09T11:35:02.000Z</time>
      </trkpt>
      <trkpt lat="46.3621" lon="6.84541">
        <ele>1362.2144924488</ele>
        <time>2012-06-09T11:35:12.000Z</time>
      </trkpt>
      <trkpt lat="46.36204" lon="6.84531">
        <ele>1364.1901447142</ele>
        <time>2012-06-09T11:35:18.000Z</time>
      </trkpt>
      <trkpt lat="46.36196" lon="6.84524">
        <ele>1365.9931012999</ele>
        <time>2012-06-09T11:35:22.000Z</time>
      </trkpt>
      <trkpt lat="46.36187" lon="6.84516">
        <ele>1367.3751709099</ele>
        <time>2012-06-09T11:35:27.000Z</time>
      </trkpt>
      <trkpt lat="46.36177" lon="6.84507">
        <ele>1368.492619637</ele>
        <time>2012-06-09T11:35:32.000Z</time>
      </trkpt>
      <trkpt lat="46.36171" lon="6.84497">
        <ele>1369.8448337459</ele>
        <time>2012-06-09T11:35:37.000Z</time>
      </trkpt>
      <trkpt lat="46.36167" lon="6.84484">
        <ele>1371.1813836221</ele>
        <time>2012-06-09T11:35:42.000Z</time>
      </trkpt>
      <trkpt lat="46.36163" lon="6.8447">
        <ele>1372.2369685355</ele>
        <time>2012-06-09T11:35:47.000Z</time>
      </trkpt>
      <trkpt lat="46.36155" lon="6.84464">
        <ele>1373.6058779748</ele>
        <time>2012-06-09T11:35:54.000Z</time>
      </trkpt>
      <trkpt lat="46.36147" lon="6.84456">
        <ele>1375.1041145824</ele>
        <time>2012-06-09T11:36:01.000Z</time>
      </trkpt>
      <trkpt lat="46.36137" lon="6.8445">
        <ele>1376.1828802077</ele>
        <time>2012-06-09T11:36:07.000Z</time>
      </trkpt>
      <trkpt lat="46.36128" lon="6.84444">
        <ele>1377.0580161454</ele>
        <time>2012-06-09T11:36:14.000Z</time>
      </trkpt>
      <trkpt lat="46.36121" lon="6.84434">
        <ele>1378.1206113018</ele>
        <time>2012-06-09T11:36:19.000Z</time>
      </trkpt>
      <trkpt lat="46.36114" lon="6.84425">
        <ele>1379.4344279112</ele>
        <time>2012-06-09T11:36:25.000Z</time>
      </trkpt>
      <trkpt lat="46.36105" lon="6.84419">
        <ele>1380.5940995379</ele>
        <time>2012-06-09T11:36:30.000Z</time>
      </trkpt>
      <trkpt lat="46.36096" lon="6.84413">
        <ele>1381.8558696765</ele>
        <time>2012-06-09T11:36:36.000Z</time>
      </trkpt>
      <trkpt lat="46.3609" lon="6.84402">
        <ele>1383.2791087736</ele>
        <time>2012-06-09T11:36:42.000Z</time>
      </trkpt>
      <trkpt lat="46.36082" lon="6.84395">
        <ele>1384.2453761415</ele>
        <time>2012-06-09T11:36:47.000Z</time>
      </trkpt>
      <trkpt lat="46.36074" lon="6.84389">
        <ele>1384.861763299</ele>
        <time>2012-06-09T11:36:52.000Z</time>
      </trkpt>
      <trkpt lat="46.36068" lon="6.84378">
        <ele>1385.7432343093</ele>
        <time>2012-06-09T11:36:58.000Z</time>
      </trkpt>
      <trkpt lat="46.3606" lon="6.84371">
        <ele>1386.4802640165</ele>
        <time>2012-06-09T11:37:03.000Z</time>
      </trkpt>
      <trkpt lat="46.36052" lon="6.84365">
        <ele>1387.1161848116</ele>
        <time>2012-06-09T11:37:09.000Z</time>
      </trkpt>
      <trkpt lat="46.36043" lon="6.84359">
        <ele>1387.3213293681</ele>
        <time>2012-06-09T11:37:16.000Z</time>
      </trkpt>
      <trkpt lat="46.36034" lon="6.8435">
        <ele>1387.5549305577</ele>
        <time>2012-06-09T11:37:22.000Z</time>
      </trkpt>
      <trkpt lat="46.36025" lon="6.84342">
        <ele>1387.8384513904</ele>
        <time>2012-06-09T11:37:28.000Z</time>
      </trkpt>
      <trkpt lat="46.36018" lon="6.84334">
        <ele>1387.8869159733</ele>
        <time>2012-06-09T11:37:32.000Z</time>
      </trkpt>
      <trkpt lat="46.36007" lon="6.84329">
        <ele>1388.0408411813</ele>
        <time>2012-06-09T11:37:38.000Z</time>
      </trkpt>
      <trkpt lat="46.36" lon="6.8432">
        <ele>1387.9985888269</ele>
        <time>2012-06-09T11:37:45.000Z</time>
      </trkpt>
      <trkpt lat="46.36007" lon="6.84312">
        <ele>1388.2990121788</ele>
        <time>2012-06-09T11:37:56.000Z</time>
      </trkpt>
      <trkpt lat="46.36018" lon="6.84314">
        <ele>1389.4093085252</ele>
        <time>2012-06-09T11:38:01.000Z</time>
      </trkpt>
      <trkpt lat="46.36027" lon="6.84319">
        <ele>1390.4565159676</ele>
        <time>2012-06-09T11:38:07.000Z</time>
      </trkpt>
      <trkpt lat="46.36036" lon="6.84322">
        <ele>1391.5195611773</ele>
        <time>2012-06-09T11:38:12.000Z</time>
      </trkpt>
      <trkpt lat="46.36047" lon="6.84323">
        <ele>1392.6836928241</ele>
        <time>2012-06-09T11:38:21.000Z</time>
      </trkpt>
      <trkpt lat="46.36057" lon="6.84323">
        <ele>1393.6185849769</ele>
        <time>2012-06-09T11:38:28.000Z</time>
      </trkpt>
      <trkpt lat="46.36065" lon="6.84327">
        <ele>1394.4830094838</ele>
        <time>2012-06-09T11:38:32.000Z</time>
      </trkpt>
      <trkpt lat="46.36074" lon="6.84332">
        <ele>1395.4181066387</ele>
        <time>2012-06-09T11:38:37.000Z</time>
      </trkpt>
      <trkpt lat="46.36083" lon="6.84334">
        <ele>1396.7926746471</ele>
        <time>2012-06-09T11:38:45.000Z</time>
      </trkpt>
      <trkpt lat="46.36094" lon="6.84341">
        <ele>1398.204872253</ele>
        <time>2012-06-09T11:38:50.000Z</time>
      </trkpt>
      <trkpt lat="46.36102" lon="6.84345">
        <ele>1399.8234105771</ele>
        <time>2012-06-09T11:38:54.000Z</time>
      </trkpt>
      <trkpt lat="46.36111" lon="6.84352">
        <ele>1401.7063874039</ele>
        <time>2012-06-09T11:39:00.000Z</time>
      </trkpt>
      <trkpt lat="46.36119" lon="6.8436">
        <ele>1404.1044711828</ele>
        <time>2012-06-09T11:39:06.000Z</time>
      </trkpt>
      <trkpt lat="46.36129" lon="6.84366">
        <ele>1406.7431298279</ele>
        <time>2012-06-09T11:39:12.000Z</time>
      </trkpt>
      <trkpt lat="46.36139" lon="6.84373">
        <ele>1409.4001908796</ele>
        <time>2012-06-09T11:39:17.000Z</time>
      </trkpt>
      <trkpt lat="46.36147" lon="6.8438">
        <ele>1410.9001336157</ele>
        <time>2012-06-09T11:39:24.000Z</time>
      </trkpt>
      <trkpt lat="46.36157" lon="6.84384">
        <ele>1412.130093531</ele>
        <time>2012-06-09T11:39:30.000Z</time>
      </trkpt>
      <trkpt lat="46.36166" lon="6.8439">
        <ele>1413.8310654717</ele>
        <time>2012-06-09T11:39:36.000Z</time>
      </trkpt>
      <trkpt lat="46.36174" lon="6.84394">
        <ele>1415.8617458302</ele>
        <time>2012-06-09T11:39:42.000Z</time>
      </trkpt>
      <trkpt lat="46.36182" lon="6.84401">
        <ele>1418.0032220811</ele>
        <time>2012-06-09T11:39:47.000Z</time>
      </trkpt>
      <trkpt lat="46.36189" lon="6.8441">
        <ele>1420.2822554568</ele>
        <time>2012-06-09T11:39:53.000Z</time>
      </trkpt>
      <trkpt lat="46.36197" lon="6.84417">
        <ele>1422.7175788198</ele>
        <time>2012-06-09T11:39:58.000Z</time>
      </trkpt>
      <trkpt lat="46.36206" lon="6.84421">
        <ele>1426.0423051738</ele>
        <time>2012-06-09T11:40:05.000Z</time>
      </trkpt>
      <trkpt lat="46.36211" lon="6.84436">
        <ele>1429.2696136217</ele>
        <time>2012-06-09T11:40:11.000Z</time>
      </trkpt>
      <trkpt lat="46.36218" lon="6.84443">
        <ele>1432.4587295352</ele>
        <time>2012-06-09T11:40:16.000Z</time>
      </trkpt>
      <trkpt lat="46.3623" lon="6.84448">
        <ele>1435.2611106746</ele>
        <time>2012-06-09T11:40:21.000Z</time>
      </trkpt>
      <trkpt lat="46.36236" lon="6.84458">
        <ele>1437.4027774722</ele>
        <time>2012-06-09T11:40:27.000Z</time>
      </trkpt>
      <trkpt lat="46.36242" lon="6.84469">
        <ele>1438.4519442306</ele>
        <time>2012-06-09T11:40:34.000Z</time>
      </trkpt>
      <trkpt lat="46.36251" lon="6.84475">
        <ele>1438.9163609614</ele>
        <time>2012-06-09T11:40:41.000Z</time>
      </trkpt>
      <trkpt lat="46.36259" lon="6.84482">
        <ele>1439.121452673</ele>
        <time>2012-06-09T11:40:48.000Z</time>
      </trkpt>
      <trkpt lat="46.36269" lon="6.84486">
        <ele>1438.9650168711</ele>
        <time>2012-06-09T11:40:55.000Z</time>
      </trkpt>
      <trkpt lat="46.36276" lon="6.84495">
        <ele>1438.6155118098</ele>
        <time>2012-06-09T11:41:01.000Z</time>
      </trkpt>
      <trkpt lat="46.36284" lon="6.8449">
        <ele>1438.5808582668</ele>
        <time>2012-06-09T11:41:08.000Z</time>
      </trkpt>
      <trkpt lat="46.36281" lon="6.84478">
        <ele>1437.9866007868</ele>
        <time>2012-06-09T11:41:16.000Z</time>
      </trkpt>
      <trkpt lat="46.36272" lon="6.84473">
        <ele>1437.8406205507</ele>
        <time>2012-06-09T11:41:24.000Z</time>
      </trkpt>
      <trkpt lat="46.36264" lon="6.84467">
        <ele>1437.6484343855</ele>
        <time>2012-06-09T11:41:30.000Z</time>
      </trkpt>
      <trkpt lat="46.36256" lon="6.84458">
        <ele>1437.2139040699</ele>
        <time>2012-06-09T11:41:35.000Z</time>
      </trkpt>
      <trkpt lat="46.36249" lon="6.84446">
        <ele>1436.2797328489</ele>
        <time>2012-06-09T11:41:40.000Z</time>
      </trkpt>
      <trkpt lat="46.36244" lon="6.84433">
        <ele>1435.5358129942</ele>
        <time>2012-06-09T11:41:46.000Z</time>
      </trkpt>
      <trkpt lat="46.3624" lon="6.8442">
        <ele>1434.685069096</ele>
        <time>2012-06-09T11:41:52.000Z</time>
      </trkpt>
      <trkpt lat="46.36233" lon="6.8441">
        <ele>1434.4195483672</ele>
        <time>2012-06-09T11:41:58.000Z</time>
      </trkpt>
      <trkpt lat="46.36226" lon="6.84401">
        <ele>1434.533683857</ele>
        <time>2012-06-09T11:42:03.000Z</time>
      </trkpt>
      <trkpt lat="46.36219" lon="6.84392">
        <ele>1434.7335786999</ele>
        <time>2012-06-09T11:42:08.000Z</time>
      </trkpt>
      <trkpt lat="46.36212" lon="6.84381">
        <ele>1435.1435050899</ele>
        <time>2012-06-09T11:42:14.000Z</time>
      </trkpt>
      <trkpt lat="46.36207" lon="6.84369">
        <ele>1435.310453563</ele>
        <time>2012-06-09T11:42:20.000Z</time>
      </trkpt>
      <trkpt lat="46.36199" lon="6.84358">
        <ele>1435.4273174941</ele>
        <time>2012-06-09T11:42:25.000Z</time>
      </trkpt>
      <trkpt lat="46.36192" lon="6.84349">
        <ele>1435.3891222458</ele>
        <time>2012-06-09T11:42:30.000Z</time>
      </trkpt>
      <trkpt lat="46.36186" lon="6.84339">
        <ele>1435.2123855721</ele>
        <time>2012-06-09T11:42:35.000Z</time>
      </trkpt>
      <trkpt lat="46.36177" lon="6.8433">
        <ele>1434.6986699005</ele>
        <time>2012-06-09T11:42:40.000Z</time>
      </trkpt>
      <trkpt lat="46.36171" lon="6.84319">
        <ele>1434.7890689303</ele>
        <time>2012-06-09T11:42:46.000Z</time>
      </trkpt>
      <trkpt lat="46.36162" lon="6.84315">
        <ele>1434.7923482512</ele>
        <time>2012-06-09T11:42:51.000Z</time>
      </trkpt>
      <trkpt lat="46.36153" lon="6.8431">
        <ele>1434.7646437759</ele>
        <time>2012-06-09T11:42:56.000Z</time>
      </trkpt>
      <trkpt lat="46.36146" lon="6.843">
        <ele>1435.1652506431</ele>
        <time>2012-06-09T11:43:02.000Z</time>
      </trkpt>
      <trkpt lat="46.36139" lon="6.84291">
        <ele>1435.5356754502</ele>
        <time>2012-06-09T11:43:07.000Z</time>
      </trkpt>
      <trkpt lat="46.36134" lon="6.84277">
        <ele>1435.7649728151</ele>
        <time>2012-06-09T11:43:12.000Z</time>
      </trkpt>
      <trkpt lat="46.36128" lon="6.84266">
        <ele>1436.1354809706</ele>
        <time>2012-06-09T11:43:17.000Z</time>
      </trkpt>
      <trkpt lat="46.36121" lon="6.84258">
        <ele>1436.6348366794</ele>
        <time>2012-06-09T11:43:23.000Z</time>
      </trkpt>
      <trkpt lat="46.36114" lon="6.84249">
        <ele>1437.5843856756</ele>
        <time>2012-06-09T11:43:29.000Z</time>
      </trkpt>
      <trkpt lat="46.36108" lon="6.84238">
        <ele>1438.8490699729</ele>
        <time>2012-06-09T11:43:36.000Z</time>
      </trkpt>
      <trkpt lat="46.36099" lon="6.84235">
        <ele>1440.274348981</ele>
        <time>2012-06-09T11:43:41.000Z</time>
      </trkpt>
      <trkpt lat="46.3609" lon="6.84232">
        <ele>1441.6020442867</ele>
        <time>2012-06-09T11:43:45.000Z</time>
      </trkpt>
      <trkpt lat="46.36081" lon="6.84225">
        <ele>1442.7714310007</ele>
        <time>2012-06-09T11:43:52.000Z</time>
      </trkpt>
      <trkpt lat="46.36072" lon="6.84222">
        <ele>1443.8900017005</ele>
        <time>2012-06-09T11:43:57.000Z</time>
      </trkpt>
      <trkpt lat="46.36064" lon="6.84218">
        <ele>1445.2130011903</ele>
        <time>2012-06-09T11:44:02.000Z</time>
      </trkpt>
      <trkpt lat="46.36056" lon="6.8421">
        <ele>1446.1991008332</ele>
        <time>2012-06-09T11:44:09.000Z</time>
      </trkpt>
      <trkpt lat="46.36046" lon="6.84206">
        <ele>1446.7393705833</ele>
        <time>2012-06-09T11:44:14.000Z</time>
      </trkpt>
      <trkpt lat="46.36039" lon="6.84199">
        <ele>1447.4775594083</ele>
        <time>2012-06-09T11:44:20.000Z</time>
      </trkpt>
      <trkpt lat="46.36029" lon="6.84194">
        <ele>1448.3842915858</ele>
        <time>2012-06-09T11:44:26.000Z</time>
      </trkpt>
      <trkpt lat="46.36021" lon="6.84188">
        <ele>1449.1990041101</ele>
        <time>2012-06-09T11:44:32.000Z</time>
      </trkpt>
      <trkpt lat="46.36012" lon="6.84183">
        <ele>1449.589302877</ele>
        <time>2012-06-09T11:44:37.000Z</time>
      </trkpt>
      <trkpt lat="46.36004" lon="6.84174">
        <ele>1449.9825120139</ele>
        <time>2012-06-09T11:44:44.000Z</time>
      </trkpt>
      <trkpt lat="46.35996" lon="6.84164">
        <ele>1450.4077584098</ele>
        <time>2012-06-09T11:44:50.000Z</time>
      </trkpt>
      <trkpt lat="46.35991" lon="6.84152">
        <ele>1450.6154308868</ele>
        <time>2012-06-09T11:44:55.000Z</time>
      </trkpt>
      <trkpt lat="46.35991" lon="6.84139">
        <ele>1451.0308016208</ele>
        <time>2012-06-09T11:45:00.000Z</time>
      </trkpt>
      <trkpt lat="46.35989" lon="6.84125">
        <ele>1451.5015611345</ele>
        <time>2012-06-09T11:45:06.000Z</time>
      </trkpt>
      <trkpt lat="46.35984" lon="6.84113">
        <ele>1451.7110927942</ele>
        <time>2012-06-09T11:45:11.000Z</time>
      </trkpt>
      <trkpt lat="46.35978" lon="6.84101">
        <ele>1451.5277649559</ele>
        <time>2012-06-09T11:45:15.000Z</time>
      </trkpt>
      <trkpt lat="46.35973" lon="6.84088">
        <ele>1451.5194354691</ele>
        <time>2012-06-09T11:45:20.000Z</time>
      </trkpt>
      <trkpt lat="46.35967" lon="6.84076">
        <ele>1451.6336048284</ele>
        <time>2012-06-09T11:45:24.000Z</time>
      </trkpt>
      <trkpt lat="46.3596" lon="6.84066">
        <ele>1451.5335233799</ele>
        <time>2012-06-09T11:45:27.000Z</time>
      </trkpt>
      <trkpt lat="46.35954" lon="6.84055">
        <ele>1451.2834663659</ele>
        <time>2012-06-09T11:45:30.000Z</time>
      </trkpt>
      <trkpt lat="46.35946" lon="6.84047">
        <ele>1450.8984264561</ele>
        <time>2012-06-09T11:45:33.000Z</time>
      </trkpt>
      <trkpt lat="46.35938" lon="6.84041">
        <ele>1450.6588985193</ele>
        <time>2012-06-09T11:45:36.000Z</time>
      </trkpt>
      <trkpt lat="46.35927" lon="6.8403">
        <ele>1449.8912289635</ele>
        <time>2012-06-09T11:45:39.000Z</time>
      </trkpt>
      <trkpt lat="46.35922" lon="6.84014">
        <ele>1449.0538602745</ele>
        <time>2012-06-09T11:45:42.000Z</time>
      </trkpt>
      <trkpt lat="46.35919" lon="6.84001">
        <ele>1448.7677021921</ele>
        <time>2012-06-09T11:45:44.000Z</time>
      </trkpt>
      <trkpt lat="46.35916" lon="6.83987">
        <ele>1448.5673915345</ele>
        <time>2012-06-09T11:45:46.000Z</time>
      </trkpt>
      <trkpt lat="46.35914" lon="6.83974">
        <ele>1448.0971740741</ele>
        <time>2012-06-09T11:45:48.000Z</time>
      </trkpt>
      <trkpt lat="46.35912" lon="6.83956">
        <ele>1448.1880218519</ele>
        <time>2012-06-09T11:45:51.000Z</time>
      </trkpt>
      <trkpt lat="46.3591" lon="6.83938">
        <ele>1448.7316152963</ele>
        <time>2012-06-09T11:45:54.000Z</time>
      </trkpt>
      <trkpt lat="46.35907" lon="6.8392">
        <ele>1449.3821307074</ele>
        <time>2012-06-09T11:45:57.000Z</time>
      </trkpt>
      <trkpt lat="46.359" lon="6.83904">
        <ele>1449.9874914952</ele>
        <time>2012-06-09T11:46:00.000Z</time>
      </trkpt>
      <trkpt lat="46.35893" lon="6.83889">
        <ele>1450.0212440466</ele>
        <time>2012-06-09T11:46:03.000Z</time>
      </trkpt>
      <trkpt lat="46.35887" lon="6.83875">
        <ele>1449.5648708326</ele>
        <time>2012-06-09T11:46:06.000Z</time>
      </trkpt>
      <trkpt lat="46.35883" lon="6.83859">
        <ele>1449.2154095829</ele>
        <time>2012-06-09T11:46:10.000Z</time>
      </trkpt>
      <trkpt lat="46.35881" lon="6.83845">
        <ele>1449.090786708</ele>
        <time>2012-06-09T11:46:14.000Z</time>
      </trkpt>
      <trkpt lat="46.35877" lon="6.83831">
        <ele>1449.0035506956</ele>
        <time>2012-06-09T11:46:18.000Z</time>
      </trkpt>
      <trkpt lat="46.35873" lon="6.83816">
        <ele>1448.4324854869</ele>
        <time>2012-06-09T11:46:22.000Z</time>
      </trkpt>
      <trkpt lat="46.35867" lon="6.83805">
        <ele>1448.0027398408</ele>
        <time>2012-06-09T11:46:26.000Z</time>
      </trkpt>
      <trkpt lat="46.35862" lon="6.83791">
        <ele>1447.5219178886</ele>
        <time>2012-06-09T11:46:31.000Z</time>
      </trkpt>
      <trkpt lat="46.35858" lon="6.83776">
        <ele>1447.065342522</ele>
        <time>2012-06-09T11:46:35.000Z</time>
      </trkpt>
      <trkpt lat="46.35851" lon="6.83764">
        <ele>1446.7457397654</ele>
        <time>2012-06-09T11:46:39.000Z</time>
      </trkpt>
      <trkpt lat="46.35841" lon="6.83758">
        <ele>1446.6420178358</ele>
        <time>2012-06-09T11:46:43.000Z</time>
      </trkpt>
      <trkpt lat="46.35833" lon="6.83747">
        <ele>1446.4194124851</ele>
        <time>2012-06-09T11:46:47.000Z</time>
      </trkpt>
      <trkpt lat="46.35826" lon="6.83738">
        <ele>1446.0235887395</ele>
        <time>2012-06-09T11:46:51.000Z</time>
      </trkpt>
      <trkpt lat="46.35818" lon="6.83728">
        <ele>1445.6565121177</ele>
        <time>2012-06-09T11:46:55.000Z</time>
      </trkpt>
      <trkpt lat="46.35808" lon="6.83719">
        <ele>1445.0695584824</ele>
        <time>2012-06-09T11:46:59.000Z</time>
      </trkpt>
      <trkpt lat="46.35803" lon="6.83705">
        <ele>1444.3886909377</ele>
        <time>2012-06-09T11:47:03.000Z</time>
      </trkpt>
      <trkpt lat="46.35799" lon="6.83693">
        <ele>1443.7620836564</ele>
        <time>2012-06-09T11:47:07.000Z</time>
      </trkpt>
      <trkpt lat="46.3579" lon="6.83688">
        <ele>1443.3834585595</ele>
        <time>2012-06-09T11:47:12.000Z</time>
      </trkpt>
      <trkpt lat="46.35784" lon="6.83676">
        <ele>1443.4784209916</ele>
        <time>2012-06-09T11:47:17.000Z</time>
      </trkpt>
      <trkpt lat="46.35778" lon="6.83667">
        <ele>1444.1748946941</ele>
        <time>2012-06-09T11:47:46.000Z</time>
      </trkpt>
      <trkpt lat="46.35772" lon="6.83678">
        <ele>1444.7224262859</ele>
        <time>2012-06-09T11:50:19.000Z</time>
      </trkpt>
      <trkpt lat="46.35767" lon="6.83688">
        <ele>1445.1656984001</ele>
        <time>2012-06-09T11:52:51.000Z</time>
      </trkpt>
      <trkpt lat="46.35772" lon="6.83678">
        <ele>1445.5959888801</ele>
        <time>2012-06-09T11:56:14.000Z</time>
      </trkpt>
      <trkpt lat="46.35779" lon="6.83669">
        <ele>1445.6271922161</ele>
        <time>2012-06-09T12:09:19.000Z</time>
      </trkpt>
      <trkpt lat="46.35788" lon="6.83665">
        <ele>1445.2890345512</ele>
        <time>2012-06-09T12:27:26.000Z</time>
      </trkpt>
      <trkpt lat="46.35796" lon="6.83662">
        <ele>1444.9923241859</ele>
        <time>2012-06-09T12:28:24.000Z</time>
      </trkpt>
      <trkpt lat="46.35788" lon="6.83669">
        <ele>1445.0246269301</ele>
        <time>2012-06-09T12:32:00.000Z</time>
      </trkpt>
      <trkpt lat="46.35781" lon="6.83661">
        <ele>1445.0772388511</ele>
        <time>2012-06-09T12:32:23.000Z</time>
      </trkpt>
      <trkpt lat="46.35785" lon="6.83672">
        <ele>1444.3340671958</ele>
        <time>2012-06-09T12:32:48.000Z</time>
      </trkpt>
      <trkpt lat="46.35793" lon="6.83684">
        <ele>1443.453847037</ele>
        <time>2012-06-09T12:32:54.000Z</time>
      </trkpt>
      <trkpt lat="46.35801" lon="6.83692">
        <ele>1442.5376929259</ele>
        <time>2012-06-09T12:32:58.000Z</time>
      </trkpt>
      <trkpt lat="46.35805" lon="6.83704">
        <ele>1442.0163850481</ele>
        <time>2012-06-09T12:33:02.000Z</time>
      </trkpt>
      <trkpt lat="46.3581" lon="6.83718">
        <ele>1441.7114695337</ele>
        <time>2012-06-09T12:33:07.000Z</time>
      </trkpt>
      <trkpt lat="46.35819" lon="6.83727">
        <ele>1441.5580286736</ele>
        <time>2012-06-09T12:33:13.000Z</time>
      </trkpt>
      <trkpt lat="46.35828" lon="6.83736">
        <ele>1441.6306200715</ele>
        <time>2012-06-09T12:33:18.000Z</time>
      </trkpt>
      <trkpt lat="46.35836" lon="6.83746">
        <ele>1441.5314340501</ele>
        <time>2012-06-09T12:33:22.000Z</time>
      </trkpt>
      <trkpt lat="46.35843" lon="6.83758">
        <ele>1441.552003835</ele>
        <time>2012-06-09T12:33:26.000Z</time>
      </trkpt>
      <trkpt lat="46.35854" lon="6.83766">
        <ele>1441.8064026845</ele>
        <time>2012-06-09T12:33:30.000Z</time>
      </trkpt>
      <trkpt lat="46.35859" lon="6.83776">
        <ele>1441.9844818792</ele>
        <time>2012-06-09T12:33:33.000Z</time>
      </trkpt>
      <trkpt lat="46.35862" lon="6.83789">
        <ele>1442.2591373154</ele>
        <time>2012-06-09T12:33:36.000Z</time>
      </trkpt>
      <trkpt lat="46.35868" lon="6.83803">
        <ele>1442.5413961208</ele>
        <time>2012-06-09T12:33:40.000Z</time>
      </trkpt>
      <trkpt lat="46.35875" lon="6.83816">
        <ele>1442.8589772846</ele>
        <time>2012-06-09T12:33:44.000Z</time>
      </trkpt>
      <trkpt lat="46.35879" lon="6.83831">
        <ele>1443.1112840992</ele>
        <time>2012-06-09T12:33:48.000Z</time>
      </trkpt>
      <trkpt lat="46.35881" lon="6.83845">
        <ele>1443.4378988694</ele>
        <time>2012-06-09T12:33:52.000Z</time>
      </trkpt>
      <trkpt lat="46.35883" lon="6.83859">
        <ele>1443.6365292086</ele>
        <time>2012-06-09T12:33:56.000Z</time>
      </trkpt>
      <trkpt lat="46.35886" lon="6.83873">
        <ele>1443.715570446</ele>
        <time>2012-06-09T12:34:00.000Z</time>
      </trkpt>
      <trkpt lat="46.35892" lon="6.83887">
        <ele>1443.4708993122</ele>
        <time>2012-06-09T12:34:04.000Z</time>
      </trkpt>
      <trkpt lat="46.35897" lon="6.83898">
        <ele>1443.0296295186</ele>
        <time>2012-06-09T12:34:07.000Z</time>
      </trkpt>
      <trkpt lat="46.35901" lon="6.83911">
        <ele>1442.810740663</ele>
        <time>2012-06-09T12:34:10.000Z</time>
      </trkpt>
      <trkpt lat="46.35904" lon="6.83927">
        <ele>1442.7475184641</ele>
        <time>2012-06-09T12:34:14.000Z</time>
      </trkpt>
      <trkpt lat="46.35907" lon="6.83942">
        <ele>1442.7932629249</ele>
        <time>2012-06-09T12:34:18.000Z</time>
      </trkpt>
      <trkpt lat="46.35909" lon="6.83956">
        <ele>1442.9752840474</ele>
        <time>2012-06-09T12:34:22.000Z</time>
      </trkpt>
      <trkpt lat="46.35911" lon="6.8397">
        <ele>1443.1926988332</ele>
        <time>2012-06-09T12:34:26.000Z</time>
      </trkpt>
      <trkpt lat="46.35914" lon="6.83985">
        <ele>1443.7648891832</ele>
        <time>2012-06-09T12:34:30.000Z</time>
      </trkpt>
      <trkpt lat="46.35917" lon="6.84002">
        <ele>1444.5554224283</ele>
        <time>2012-06-09T12:34:34.000Z</time>
      </trkpt>
      <trkpt lat="46.35921" lon="6.84017">
        <ele>1445.3187956998</ele>
        <time>2012-06-09T12:34:38.000Z</time>
      </trkpt>
      <trkpt lat="46.35926" lon="6.84027">
        <ele>1446.0931569898</ele>
        <time>2012-06-09T12:34:41.000Z</time>
      </trkpt>
      <trkpt lat="46.35934" lon="6.84036">
        <ele>1447.2952098929</ele>
        <time>2012-06-09T12:34:44.000Z</time>
      </trkpt>
      <trkpt lat="46.35941" lon="6.84045">
        <ele>1448.406646925</ele>
        <time>2012-06-09T12:34:47.000Z</time>
      </trkpt>
      <trkpt lat="46.3595" lon="6.84052">
        <ele>1449.3946528475</ele>
        <time>2012-06-09T12:34:50.000Z</time>
      </trkpt>
      <trkpt lat="46.35957" lon="6.84061">
        <ele>1450.2962569933</ele>
        <time>2012-06-09T12:34:53.000Z</time>
      </trkpt>
      <trkpt lat="46.35965" lon="6.84073">
        <ele>1450.5373798953</ele>
        <time>2012-06-09T12:34:57.000Z</time>
      </trkpt>
      <trkpt lat="46.3597" lon="6.84086">
        <ele>1450.5261659267</ele>
        <time>2012-06-09T12:35:01.000Z</time>
      </trkpt>
      <trkpt lat="46.35976" lon="6.84099">
        <ele>1450.2783161487</ele>
        <time>2012-06-09T12:35:05.000Z</time>
      </trkpt>
      <trkpt lat="46.35984" lon="6.84114">
        <ele>1449.9548213041</ele>
        <time>2012-06-09T12:35:08.000Z</time>
      </trkpt>
      <trkpt lat="46.35989" lon="6.84125">
        <ele>1449.6083749129</ele>
        <time>2012-06-09T12:35:10.000Z</time>
      </trkpt>
      <trkpt lat="46.35991" lon="6.84139">
        <ele>1449.185862439</ele>
        <time>2012-06-09T12:35:12.000Z</time>
      </trkpt>
      <trkpt lat="46.35996" lon="6.84154">
        <ele>1448.8001037073</ele>
        <time>2012-06-09T12:35:14.000Z</time>
      </trkpt>
      <trkpt lat="46.36005" lon="6.84167">
        <ele>1448.4100725951</ele>
        <time>2012-06-09T12:35:16.000Z</time>
      </trkpt>
      <trkpt lat="46.36017" lon="6.84177">
        <ele>1447.9870508166</ele>
        <time>2012-06-09T12:35:18.000Z</time>
      </trkpt>
      <trkpt lat="46.3603" lon="6.84184">
        <ele>1447.4209355716</ele>
        <time>2012-06-09T12:35:20.000Z</time>
      </trkpt>
      <trkpt lat="46.36043" lon="6.84195">
        <ele>1446.7246549001</ele>
        <time>2012-06-09T12:35:22.000Z</time>
      </trkpt>
      <trkpt lat="46.36057" lon="6.84204">
        <ele>1445.9672584301</ele>
        <time>2012-06-09T12:35:24.000Z</time>
      </trkpt>
      <trkpt lat="46.36074" lon="6.84214">
        <ele>1445.1670809011</ele>
        <time>2012-06-09T12:35:26.000Z</time>
      </trkpt>
      <trkpt lat="46.36083" lon="6.84216">
        <ele>1444.4269566307</ele>
        <time>2012-06-09T12:35:27.000Z</time>
      </trkpt>
      <trkpt lat="46.36099" lon="6.84224">
        <ele>1443.6988696415</ele>
        <time>2012-06-09T12:35:29.000Z</time>
      </trkpt>
      <trkpt lat="46.36113" lon="6.84236">
        <ele>1442.9792087491</ele>
        <time>2012-06-09T12:35:31.000Z</time>
      </trkpt>
      <trkpt lat="46.36126" lon="6.8425">
        <ele>1442.4154461243</ele>
        <time>2012-06-09T12:35:33.000Z</time>
      </trkpt>
      <trkpt lat="46.36135" lon="6.84266">
        <ele>1441.900812287</ele>
        <time>2012-06-09T12:35:35.000Z</time>
      </trkpt>
      <trkpt lat="46.36143" lon="6.84286">
        <ele>1441.2705686009</ele>
        <time>2012-06-09T12:35:37.000Z</time>
      </trkpt>
      <trkpt lat="46.36154" lon="6.84301">
        <ele>1440.5893980207</ele>
        <time>2012-06-09T12:35:39.000Z</time>
      </trkpt>
      <trkpt lat="46.36168" lon="6.84312">
        <ele>1439.0625786145</ele>
        <time>2012-06-09T12:35:41.000Z</time>
      </trkpt>
      <trkpt lat="46.36182" lon="6.84325">
        <ele>1437.4538050301</ele>
        <time>2012-06-09T12:35:43.000Z</time>
      </trkpt>
      <trkpt lat="46.36194" lon="6.84341">
        <ele>1436.0276635211</ele>
        <time>2012-06-09T12:35:45.000Z</time>
      </trkpt>
      <trkpt lat="46.36205" lon="6.8436">
        <ele>1434.5793644648</ele>
        <time>2012-06-09T12:35:47.000Z</time>
      </trkpt>
      <trkpt lat="46.36216" lon="6.8438">
        <ele>1433.0555551253</ele>
        <time>2012-06-09T12:35:49.000Z</time>
      </trkpt>
      <trkpt lat="46.36223" lon="6.8439">
        <ele>1431.6888885877</ele>
        <time>2012-06-09T12:35:50.000Z</time>
      </trkpt>
      <trkpt lat="46.36229" lon="6.844">
        <ele>1430.4622220114</ele>
        <time>2012-06-09T12:35:51.000Z</time>
      </trkpt>
      <trkpt lat="46.36235" lon="6.84411">
        <ele>1429.333555408</ele>
        <time>2012-06-09T12:35:52.000Z</time>
      </trkpt>
      <trkpt lat="46.36241" lon="6.84421">
        <ele>1428.3634887856</ele>
        <time>2012-06-09T12:35:53.000Z</time>
      </trkpt>
      <trkpt lat="46.36246" lon="6.84432">
        <ele>1427.5944421499</ele>
        <time>2012-06-09T12:35:54.000Z</time>
      </trkpt>
      <trkpt lat="46.36258" lon="6.84451">
        <ele>1426.6361095049</ele>
        <time>2012-06-09T12:35:56.000Z</time>
      </trkpt>
      <trkpt lat="46.36271" lon="6.84462">
        <ele>1425.7252766535</ele>
        <time>2012-06-09T12:35:58.000Z</time>
      </trkpt>
      <trkpt lat="46.36281" lon="6.8447">
        <ele>1424.7276936574</ele>
        <time>2012-06-09T12:36:00.000Z</time>
      </trkpt>
      <trkpt lat="46.36273" lon="6.84476">
        <ele>1422.7393855602</ele>
        <time>2012-06-09T12:36:05.000Z</time>
      </trkpt>
      <trkpt lat="46.36264" lon="6.84469">
        <ele>1420.9575698921</ele>
        <time>2012-06-09T12:36:07.000Z</time>
      </trkpt>
      <trkpt lat="46.36251" lon="6.84463">
        <ele>1419.3502989245</ele>
        <time>2012-06-09T12:36:09.000Z</time>
      </trkpt>
      <trkpt lat="46.36239" lon="6.84452">
        <ele>1417.8352092471</ele>
        <time>2012-06-09T12:36:11.000Z</time>
      </trkpt>
      <trkpt lat="46.36226" lon="6.84439">
        <ele>1416.414646473</ele>
        <time>2012-06-09T12:36:13.000Z</time>
      </trkpt>
      <trkpt lat="46.36214" lon="6.84425">
        <ele>1415.1202525311</ele>
        <time>2012-06-09T12:36:15.000Z</time>
      </trkpt>
      <trkpt lat="46.36201" lon="6.84413">
        <ele>1414.0041767718</ele>
        <time>2012-06-09T12:36:17.000Z</time>
      </trkpt>
      <trkpt lat="46.36192" lon="6.84408">
        <ele>1413.1029237402</ele>
        <time>2012-06-09T12:36:18.000Z</time>
      </trkpt>
      <trkpt lat="46.36177" lon="6.84396">
        <ele>1412.0820466182</ele>
        <time>2012-06-09T12:36:20.000Z</time>
      </trkpt>
      <trkpt lat="46.36168" lon="6.84384">
        <ele>1411.0074326327</ele>
        <time>2012-06-09T12:36:21.000Z</time>
      </trkpt>
      <trkpt lat="46.36159" lon="6.84379">
        <ele>1410.1052028429</ele>
        <time>2012-06-09T12:36:22.000Z</time>
      </trkpt>
      <trkpt lat="46.3615" lon="6.84375">
        <ele>1409.35364199</ele>
        <time>2012-06-09T12:36:23.000Z</time>
      </trkpt>
      <trkpt lat="46.3614" lon="6.84372">
        <ele>1408.677549393</ele>
        <time>2012-06-09T12:36:24.000Z</time>
      </trkpt>
      <trkpt lat="46.36131" lon="6.84367">
        <ele>1408.0542845751</ele>
        <time>2012-06-09T12:36:25.000Z</time>
      </trkpt>
      <trkpt lat="46.36122" lon="6.84362">
        <ele>1407.4679992026</ele>
        <time>2012-06-09T12:36:26.000Z</time>
      </trkpt>
      <trkpt lat="46.36113" lon="6.84356">
        <ele>1406.9375994418</ele>
        <time>2012-06-09T12:36:27.000Z</time>
      </trkpt>
      <trkpt lat="46.36103" lon="6.84352">
        <ele>1406.4163196093</ele>
        <time>2012-06-09T12:36:28.000Z</time>
      </trkpt>
      <trkpt lat="46.36095" lon="6.84348">
        <ele>1405.8714237265</ele>
        <time>2012-06-09T12:36:29.000Z</time>
      </trkpt>
      <trkpt lat="46.36085" lon="6.84345">
        <ele>1405.3399966085</ele>
        <time>2012-06-09T12:36:30.000Z</time>
      </trkpt>
      <trkpt lat="46.36076" lon="6.84342">
        <ele>1404.817997626</ele>
        <time>2012-06-09T12:36:31.000Z</time>
      </trkpt>
      <trkpt lat="46.36066" lon="6.84338">
        <ele>1404.3025983382</ele>
        <time>2012-06-09T12:36:32.000Z</time>
      </trkpt>
      <trkpt lat="46.36057" lon="6.84334">
        <ele>1403.7918188367</ele>
        <time>2012-06-09T12:36:33.000Z</time>
      </trkpt>
      <trkpt lat="46.36046" lon="6.84333">
        <ele>1403.2842731857</ele>
        <time>2012-06-09T12:36:34.000Z</time>
      </trkpt>
      <trkpt lat="46.36037" lon="6.8433">
        <ele>1402.74899123</ele>
        <time>2012-06-09T12:36:35.000Z</time>
      </trkpt>
      <trkpt lat="46.36027" lon="6.84326">
        <ele>1402.284293861</ele>
        <time>2012-06-09T12:36:36.000Z</time>
      </trkpt>
      <trkpt lat="46.36012" lon="6.8432">
        <ele>1401.5090057027</ele>
        <time>2012-06-09T12:36:38.000Z</time>
      </trkpt>
      <trkpt lat="46.36001" lon="6.84314">
        <ele>1400.0363039919</ele>
        <time>2012-06-09T12:36:40.000Z</time>
      </trkpt>
      <trkpt lat="46.36003" lon="6.84327">
        <ele>1397.7154127943</ele>
        <time>2012-06-09T12:36:46.000Z</time>
      </trkpt>
      <trkpt lat="46.36014" lon="6.84334">
        <ele>1395.880788956</ele>
        <time>2012-06-09T12:36:48.000Z</time>
      </trkpt>
      <trkpt lat="46.36027" lon="6.84342">
        <ele>1394.1465522692</ele>
        <time>2012-06-09T12:36:50.000Z</time>
      </trkpt>
      <trkpt lat="46.36041" lon="6.84351">
        <ele>1392.6325865885</ele>
        <time>2012-06-09T12:36:52.000Z</time>
      </trkpt>
      <trkpt lat="46.36054" lon="6.84361">
        <ele>1391.2728106119</ele>
        <time>2012-06-09T12:36:54.000Z</time>
      </trkpt>
      <trkpt lat="46.36067" lon="6.84373">
        <ele>1390.0209674283</ele>
        <time>2012-06-09T12:36:56.000Z</time>
      </trkpt>
      <trkpt lat="46.36081" lon="6.84389">
        <ele>1388.9346771998</ele>
        <time>2012-06-09T12:36:58.000Z</time>
      </trkpt>
      <trkpt lat="46.36094" lon="6.84406">
        <ele>1387.9942740399</ele>
        <time>2012-06-09T12:37:00.000Z</time>
      </trkpt>
      <trkpt lat="46.36108" lon="6.8442">
        <ele>1387.1559918279</ele>
        <time>2012-06-09T12:37:02.000Z</time>
      </trkpt>
      <trkpt lat="46.36123" lon="6.8444">
        <ele>1386.2391942795</ele>
        <time>2012-06-09T12:37:04.000Z</time>
      </trkpt>
      <trkpt lat="46.36131" lon="6.84449">
        <ele>1385.3874359957</ele>
        <time>2012-06-09T12:37:05.000Z</time>
      </trkpt>
      <trkpt lat="46.3614" lon="6.84456">
        <ele>1384.551205197</ele>
        <time>2012-06-09T12:37:06.000Z</time>
      </trkpt>
      <trkpt lat="46.36148" lon="6.84464">
        <ele>1383.7858436379</ele>
        <time>2012-06-09T12:37:07.000Z</time>
      </trkpt>
      <trkpt lat="46.36155" lon="6.84472">
        <ele>1383.0400905465</ele>
        <time>2012-06-09T12:37:08.000Z</time>
      </trkpt>
      <trkpt lat="46.36165" lon="6.84485">
        <ele>1382.0380633826</ele>
        <time>2012-06-09T12:37:10.000Z</time>
      </trkpt>
      <trkpt lat="46.36174" lon="6.84502">
        <ele>1381.0066443678</ele>
        <time>2012-06-09T12:37:12.000Z</time>
      </trkpt>
      <trkpt lat="46.36187" lon="6.84518">
        <ele>1379.8946510575</ele>
        <time>2012-06-09T12:37:14.000Z</time>
      </trkpt>
      <trkpt lat="46.362" lon="6.84533">
        <ele>1378.9062557402</ele>
        <time>2012-06-09T12:37:16.000Z</time>
      </trkpt>
      <trkpt lat="46.36207" lon="6.84543">
        <ele>1377.9743790182</ele>
        <time>2012-06-09T12:37:17.000Z</time>
      </trkpt>
      <trkpt lat="46.36219" lon="6.84562">
        <ele>1376.9320653127</ele>
        <time>2012-06-09T12:37:19.000Z</time>
      </trkpt>
      <trkpt lat="46.36226" lon="6.84573">
        <ele>1375.8424457189</ele>
        <time>2012-06-09T12:37:20.000Z</time>
      </trkpt>
      <trkpt lat="46.36234" lon="6.84584">
        <ele>1374.8097120032</ele>
        <time>2012-06-09T12:37:21.000Z</time>
      </trkpt>
      <trkpt lat="46.36246" lon="6.84602">
        <ele>1373.8467984023</ele>
        <time>2012-06-09T12:37:23.000Z</time>
      </trkpt>
      <trkpt lat="46.3626" lon="6.84614">
        <ele>1372.9027588816</ele>
        <time>2012-06-09T12:37:25.000Z</time>
      </trkpt>
      <trkpt lat="46.36267" lon="6.84623">
        <ele>1371.7919312171</ele>
        <time>2012-06-09T12:37:27.000Z</time>
      </trkpt>
      <trkpt lat="46.36257" lon="6.84625">
        <ele>1370.534351852</ele>
        <time>2012-06-09T12:37:31.000Z</time>
      </trkpt>
      <trkpt lat="46.3625" lon="6.84618">
        <ele>1369.0240462964</ele>
        <time>2012-06-09T12:37:33.000Z</time>
      </trkpt>
      <trkpt lat="46.3624" lon="6.84608">
        <ele>1367.6668324075</ele>
        <time>2012-06-09T12:37:35.000Z</time>
      </trkpt>
      <trkpt lat="46.36229" lon="6.84599">
        <ele>1366.4767826852</ele>
        <time>2012-06-09T12:37:37.000Z</time>
      </trkpt>
      <trkpt lat="46.36218" lon="6.84591">
        <ele>1365.4337478797</ele>
        <time>2012-06-09T12:37:39.000Z</time>
      </trkpt>
      <trkpt lat="46.36207" lon="6.84584">
        <ele>1364.4636235158</ele>
        <time>2012-06-09T12:37:41.000Z</time>
      </trkpt>
      <trkpt lat="46.36198" lon="6.84573">
        <ele>1363.514536461</ele>
        <time>2012-06-09T12:37:43.000Z</time>
      </trkpt>
      <trkpt lat="46.36186" lon="6.84563">
        <ele>1362.6701755227</ele>
        <time>2012-06-09T12:37:45.000Z</time>
      </trkpt>
      <trkpt lat="46.36173" lon="6.84553">
        <ele>1361.9291228659</ele>
        <time>2012-06-09T12:37:47.000Z</time>
      </trkpt>
      <trkpt lat="46.36159" lon="6.84547">
        <ele>1361.1703860061</ele>
        <time>2012-06-09T12:37:49.000Z</time>
      </trkpt>
      <trkpt lat="46.36151" lon="6.84539">
        <ele>1360.4292702043</ele>
        <time>2012-06-09T12:37:50.000Z</time>
      </trkpt>
      <trkpt lat="46.36141" lon="6.84526">
        <ele>1359.580489143</ele>
        <time>2012-06-09T12:37:52.000Z</time>
      </trkpt>
      <trkpt lat="46.36134" lon="6.8451">
        <ele>1358.6863424001</ele>
        <time>2012-06-09T12:37:54.000Z</time>
      </trkpt>
      <trkpt lat="46.36124" lon="6.84504">
        <ele>1357.9104396801</ele>
        <time>2012-06-09T12:37:56.000Z</time>
      </trkpt>
      <trkpt lat="46.36113" lon="6.8451">
        <ele>1357.2773077761</ele>
        <time>2012-06-09T12:37:58.000Z</time>
      </trkpt>
      <trkpt lat="46.361" lon="6.8451">
        <ele>1356.6241154432</ele>
        <time>2012-06-09T12:38:00.000Z</time>
      </trkpt>
      <trkpt lat="46.36088" lon="6.84509">
        <ele>1356.0168808103</ele>
        <time>2012-06-09T12:38:02.000Z</time>
      </trkpt>
      <trkpt lat="46.36077" lon="6.84505">
        <ele>1355.3218165672</ele>
        <time>2012-06-09T12:38:04.000Z</time>
      </trkpt>
      <trkpt lat="46.36065" lon="6.84494">
        <ele>1354.445271597</ele>
        <time>2012-06-09T12:38:06.000Z</time>
      </trkpt>
      <trkpt lat="46.36049" lon="6.84487">
        <ele>1353.4716901179</ele>
        <time>2012-06-09T12:38:08.000Z</time>
      </trkpt>
      <trkpt lat="46.36032" lon="6.84488">
        <ele>1352.4601830825</ele>
        <time>2012-06-09T12:38:10.000Z</time>
      </trkpt>
      <trkpt lat="46.36023" lon="6.8449">
        <ele>1351.5421281578</ele>
        <time>2012-06-09T12:38:11.000Z</time>
      </trkpt>
      <trkpt lat="46.36013" lon="6.84493">
        <ele>1350.7494897104</ele>
        <time>2012-06-09T12:38:12.000Z</time>
      </trkpt>
      <trkpt lat="46.35997" lon="6.84495">
        <ele>1349.8946427973</ele>
        <time>2012-06-09T12:38:14.000Z</time>
      </trkpt>
      <trkpt lat="46.35986" lon="6.84483">
        <ele>1349.0562499581</ele>
        <time>2012-06-09T12:38:16.000Z</time>
      </trkpt>
      <trkpt lat="46.35974" lon="6.84475">
        <ele>1348.2293749707</ele>
        <time>2012-06-09T12:38:18.000Z</time>
      </trkpt>
      <trkpt lat="46.35961" lon="6.84467">
        <ele>1347.6205624795</ele>
        <time>2012-06-09T12:38:20.000Z</time>
      </trkpt>
      <trkpt lat="46.35946" lon="6.84458">
        <ele>1346.6543937356</ele>
        <time>2012-06-09T12:38:22.000Z</time>
      </trkpt>
      <trkpt lat="46.35937" lon="6.84445">
        <ele>1345.5580756149</ele>
        <time>2012-06-09T12:38:23.000Z</time>
      </trkpt>
      <trkpt lat="46.35929" lon="6.84437">
        <ele>1344.6406529305</ele>
        <time>2012-06-09T12:38:24.000Z</time>
      </trkpt>
      <trkpt lat="46.35919" lon="6.84428">
        <ele>1343.6084570513</ele>
        <time>2012-06-09T12:38:26.000Z</time>
      </trkpt>
      <trkpt lat="46.35913" lon="6.84411">
        <ele>1342.6459199359</ele>
        <time>2012-06-09T12:38:28.000Z</time>
      </trkpt>
      <trkpt lat="46.35908" lon="6.84392">
        <ele>1341.5221439551</ele>
        <time>2012-06-09T12:38:30.000Z</time>
      </trkpt>
      <trkpt lat="46.35903" lon="6.84372">
        <ele>1340.5255007686</ele>
        <time>2012-06-09T12:38:32.000Z</time>
      </trkpt>
      <trkpt lat="46.35897" lon="6.84352">
        <ele>1339.497850538</ele>
        <time>2012-06-09T12:38:34.000Z</time>
      </trkpt>
      <trkpt lat="46.35887" lon="6.8433">
        <ele>1338.5684953766</ele>
        <time>2012-06-09T12:38:36.000Z</time>
      </trkpt>
      <trkpt lat="46.35875" lon="6.84313">
        <ele>1337.6479467636</ele>
        <time>2012-06-09T12:38:38.000Z</time>
      </trkpt>
      <trkpt lat="46.35862" lon="6.84299">
        <ele>1336.5835627345</ele>
        <time>2012-06-09T12:38:40.000Z</time>
      </trkpt>
      <trkpt lat="46.35852" lon="6.84287">
        <ele>1335.2084939142</ele>
        <time>2012-06-09T12:38:42.000Z</time>
      </trkpt>
      <trkpt lat="46.35841" lon="6.84279">
        <ele>1333.9459457399</ele>
        <time>2012-06-09T12:38:44.000Z</time>
      </trkpt>
      <trkpt lat="46.35829" lon="6.84279">
        <ele>1332.7321620179</ele>
        <time>2012-06-09T12:38:46.000Z</time>
      </trkpt>
      <trkpt lat="46.35817" lon="6.84282">
        <ele>1331.4025134126</ele>
        <time>2012-06-09T12:38:49.000Z</time>
      </trkpt>
      <trkpt lat="46.35807" lon="6.84276">
        <ele>1329.4517593888</ele>
        <time>2012-06-09T12:38:51.000Z</time>
      </trkpt>
      <trkpt lat="46.35798" lon="6.84267">
        <ele>1327.6662315722</ele>
        <time>2012-06-09T12:38:53.000Z</time>
      </trkpt>
      <trkpt lat="46.35792" lon="6.84257">
        <ele>1325.7263621005</ele>
        <time>2012-06-09T12:38:55.000Z</time>
      </trkpt>
      <trkpt lat="46.35785" lon="6.84246">
        <ele>1324.2184534704</ele>
        <time>2012-06-09T12:38:57.000Z</time>
      </trkpt>
      <trkpt lat="46.35781" lon="6.84235">
        <ele>1323.0129174292</ele>
        <time>2012-06-09T12:38:59.000Z</time>
      </trkpt>
      <trkpt lat="46.35774" lon="6.84218">
        <ele>1321.5690422005</ele>
        <time>2012-06-09T12:39:02.000Z</time>
      </trkpt>
      <trkpt lat="46.35766" lon="6.84207">
        <ele>1320.1083295403</ele>
        <time>2012-06-09T12:39:04.000Z</time>
      </trkpt>
      <trkpt lat="46.3576" lon="6.84197">
        <ele>1318.8458306782</ele>
        <time>2012-06-09T12:39:06.000Z</time>
      </trkpt>
      <trkpt lat="46.35754" lon="6.84187">
        <ele>1317.5120814748</ele>
        <time>2012-06-09T12:39:08.000Z</time>
      </trkpt>
      <trkpt lat="46.35746" lon="6.84178">
        <ele>1316.2184570323</ele>
        <time>2012-06-09T12:39:10.000Z</time>
      </trkpt>
      <trkpt lat="46.35736" lon="6.84172">
        <ele>1314.7129199226</ele>
        <time>2012-06-09T12:39:13.000Z</time>
      </trkpt>
      <trkpt lat="46.35727" lon="6.84169">
        <ele>1313.0890439458</ele>
        <time>2012-06-09T12:39:16.000Z</time>
      </trkpt>
      <trkpt lat="46.35718" lon="6.84166">
        <ele>1311.5623307621</ele>
        <time>2012-06-09T12:39:17.000Z</time>
      </trkpt>
      <trkpt lat="46.35704" lon="6.84159">
        <ele>1309.8336315335</ele>
        <time>2012-06-09T12:39:19.000Z</time>
      </trkpt>
      <trkpt lat="46.35692" lon="6.84152">
        <ele>1308.0235420734</ele>
        <time>2012-06-09T12:39:22.000Z</time>
      </trkpt>
      <trkpt lat="46.35683" lon="6.84144">
        <ele>1306.4264794514</ele>
        <time>2012-06-09T12:39:24.000Z</time>
      </trkpt>
      <trkpt lat="46.35671" lon="6.84136">
        <ele>1304.948535616</ele>
        <time>2012-06-09T12:39:26.000Z</time>
      </trkpt>
      <trkpt lat="46.35663" lon="6.84127">
        <ele>1304.0639749312</ele>
        <time>2012-06-09T12:39:27.000Z</time>
      </trkpt>
      <trkpt lat="46.35648" lon="6.84115">
        <ele>1303.0547824518</ele>
        <time>2012-06-09T12:39:29.000Z</time>
      </trkpt>
      <trkpt lat="46.3564" lon="6.84109">
        <ele>1302.2283477163</ele>
        <time>2012-06-09T12:39:30.000Z</time>
      </trkpt>
      <trkpt lat="46.35626" lon="6.84107">
        <ele>1301.2298434014</ele>
        <time>2012-06-09T12:39:32.000Z</time>
      </trkpt>
      <trkpt lat="46.35614" lon="6.84114">
        <ele>1300.230890381</ele>
        <time>2012-06-09T12:39:34.000Z</time>
      </trkpt>
      <trkpt lat="46.35604" lon="6.84127">
        <ele>1298.9916232667</ele>
        <time>2012-06-09T12:39:36.000Z</time>
      </trkpt>
      <trkpt lat="46.35595" lon="6.84144">
        <ele>1297.2541362867</ele>
        <time>2012-06-09T12:39:38.000Z</time>
      </trkpt>
      <trkpt lat="46.35584" lon="6.84159">
        <ele>1295.4978954007</ele>
        <time>2012-06-09T12:39:40.000Z</time>
      </trkpt>
      <trkpt lat="46.35569" lon="6.8417">
        <ele>1293.8485267805</ele>
        <time>2012-06-09T12:39:42.000Z</time>
      </trkpt>
      <trkpt lat="46.35558" lon="6.84176">
        <ele>1292.2439687463</ele>
        <time>2012-06-09T12:39:44.000Z</time>
      </trkpt>
      <trkpt lat="46.3555" lon="6.84178">
        <ele>1290.1307781224</ele>
        <time>2012-06-09T12:39:57.000Z</time>
      </trkpt>
      <trkpt lat="46.35557" lon="6.84188">
        <ele>1288.9215446857</ele>
        <time>2012-06-09T12:44:02.000Z</time>
      </trkpt>
      <trkpt lat="46.35565" lon="6.84201">
        <ele>1287.29508128</ele>
        <time>2012-06-09T12:44:05.000Z</time>
      </trkpt>
      <trkpt lat="46.35575" lon="6.84206">
        <ele>1285.826556896</ele>
        <time>2012-06-09T12:44:07.000Z</time>
      </trkpt>
      <trkpt lat="46.35587" lon="6.84214">
        <ele>1284.2885898272</ele>
        <time>2012-06-09T12:44:10.000Z</time>
      </trkpt>
      <trkpt lat="46.35598" lon="6.84216">
        <ele>1282.522012879</ele>
        <time>2012-06-09T12:44:13.000Z</time>
      </trkpt>
      <trkpt lat="46.35609" lon="6.84221">
        <ele>1280.7754090153</ele>
        <time>2012-06-09T12:44:16.000Z</time>
      </trkpt>
      <trkpt lat="46.35618" lon="6.84225">
        <ele>1279.4927863107</ele>
        <time>2012-06-09T12:44:19.000Z</time>
      </trkpt>
      <trkpt lat="46.35629" lon="6.84217">
        <ele>1278.5049504175</ele>
        <time>2012-06-09T12:44:22.000Z</time>
      </trkpt>
      <trkpt lat="46.35637" lon="6.8421">
        <ele>1277.5734652923</ele>
        <time>2012-06-09T12:44:25.000Z</time>
      </trkpt>
      <trkpt lat="46.35648" lon="6.84215">
        <ele>1276.3514257046</ele>
        <time>2012-06-09T12:44:28.000Z</time>
      </trkpt>
      <trkpt lat="46.35659" lon="6.84222">
        <ele>1274.9859979932</ele>
        <time>2012-06-09T12:44:31.000Z</time>
      </trkpt>
      <trkpt lat="46.35668" lon="6.84229">
        <ele>1273.8501985952</ele>
        <time>2012-06-09T12:44:33.000Z</time>
      </trkpt>
      <trkpt lat="46.35678" lon="6.8424">
        <ele>1272.6951390167</ele>
        <time>2012-06-09T12:44:36.000Z</time>
      </trkpt>
      <trkpt lat="46.35688" lon="6.8425">
        <ele>1271.7665973117</ele>
        <time>2012-06-09T12:44:39.000Z</time>
      </trkpt>
      <trkpt lat="46.35697" lon="6.84258">
        <ele>1271.1766181182</ele>
        <time>2012-06-09T12:44:43.000Z</time>
      </trkpt>
      <trkpt lat="46.35706" lon="6.84267">
        <ele>1270.9736326827</ele>
        <time>2012-06-09T12:44:47.000Z</time>
      </trkpt>
      <trkpt lat="46.35711" lon="6.84279">
        <ele>1270.8915428779</ele>
        <time>2012-06-09T12:44:49.000Z</time>
      </trkpt>
      <trkpt lat="46.35719" lon="6.84292">
        <ele>1270.7740800145</ele>
        <time>2012-06-09T12:44:52.000Z</time>
      </trkpt>
      <trkpt lat="46.35727" lon="6.84302">
        <ele>1270.3918560102</ele>
        <time>2012-06-09T12:44:55.000Z</time>
      </trkpt>
      <trkpt lat="46.35733" lon="6.84314">
        <ele>1269.9442992071</ele>
        <time>2012-06-09T12:44:57.000Z</time>
      </trkpt>
      <trkpt lat="46.3574" lon="6.84328">
        <ele>1269.121009445</ele>
        <time>2012-06-09T12:45:00.000Z</time>
      </trkpt>
      <trkpt lat="46.35749" lon="6.8433">
        <ele>1268.0347066115</ele>
        <time>2012-06-09T12:45:03.000Z</time>
      </trkpt>
      <trkpt lat="46.35757" lon="6.84338">
        <ele>1266.854294628</ele>
        <time>2012-06-09T12:45:07.000Z</time>
      </trkpt>
      <trkpt lat="46.35762" lon="6.84355">
        <ele>1265.6980062396</ele>
        <time>2012-06-09T12:45:11.000Z</time>
      </trkpt>
      <trkpt lat="46.35769" lon="6.84364">
        <ele>1264.5886043677</ele>
        <time>2012-06-09T12:45:13.000Z</time>
      </trkpt>
      <trkpt lat="46.35775" lon="6.84375">
        <ele>1263.6320230574</ele>
        <time>2012-06-09T12:45:15.000Z</time>
      </trkpt>
      <trkpt lat="46.35777" lon="6.8439">
        <ele>1262.7224161402</ele>
        <time>2012-06-09T12:45:17.000Z</time>
      </trkpt>
      <trkpt lat="46.3578" lon="6.84405">
        <ele>1261.9656912981</ele>
        <time>2012-06-09T12:45:19.000Z</time>
      </trkpt>
      <trkpt lat="46.35786" lon="6.84421">
        <ele>1261.1659839087</ele>
        <time>2012-06-09T12:45:22.000Z</time>
      </trkpt>
      <trkpt lat="46.35793" lon="6.84435">
        <ele>1260.4261887361</ele>
        <time>2012-06-09T12:45:24.000Z</time>
      </trkpt>
      <trkpt lat="46.35799" lon="6.84451">
        <ele>1259.4883321153</ele>
        <time>2012-06-09T12:45:26.000Z</time>
      </trkpt>
      <trkpt lat="46.35808" lon="6.84458">
        <ele>1257.7818324807</ele>
        <time>2012-06-09T12:45:29.000Z</time>
      </trkpt>
      <trkpt lat="46.35818" lon="6.84462">
        <ele>1255.2972827365</ele>
        <time>2012-06-09T12:45:32.000Z</time>
      </trkpt>
      <trkpt lat="46.3583" lon="6.8447">
        <ele>1252.6880979155</ele>
        <time>2012-06-09T12:45:35.000Z</time>
      </trkpt>
      <trkpt lat="46.35839" lon="6.84479">
        <ele>1250.0816685409</ele>
        <time>2012-06-09T12:45:38.000Z</time>
      </trkpt>
      <trkpt lat="46.35848" lon="6.84489">
        <ele>1247.1771679786</ele>
        <time>2012-06-09T12:45:42.000Z</time>
      </trkpt>
      <trkpt lat="46.35854" lon="6.84501">
        <ele>1244.364017585</ele>
        <time>2012-06-09T12:45:45.000Z</time>
      </trkpt>
      <trkpt lat="46.35858" lon="6.84514">
        <ele>1241.5248123095</ele>
        <time>2012-06-09T12:45:49.000Z</time>
      </trkpt>
      <trkpt lat="46.35866" lon="6.84524">
        <ele>1238.4573686167</ele>
        <time>2012-06-09T12:46:01.000Z</time>
      </trkpt>
      <trkpt lat="46.35869" lon="6.84538">
        <ele>1235.9201580317</ele>
        <time>2012-06-09T12:46:03.000Z</time>
      </trkpt>
      <trkpt lat="46.35872" lon="6.84553">
        <ele>1233.7541106222</ele>
        <time>2012-06-09T12:46:05.000Z</time>
      </trkpt>
      <trkpt lat="46.35873" lon="6.84567">
        <ele>1231.8178774355</ele>
        <time>2012-06-09T12:46:07.000Z</time>
      </trkpt>
      <trkpt lat="46.35871" lon="6.8458">
        <ele>1230.0125142049</ele>
        <time>2012-06-09T12:46:09.000Z</time>
      </trkpt>
      <trkpt lat="46.35873" lon="6.84596">
        <ele>1228.3587599434</ele>
        <time>2012-06-09T12:46:11.000Z</time>
      </trkpt>
      <trkpt lat="46.35874" lon="6.84611">
        <ele>1226.7811319604</ele>
        <time>2012-06-09T12:46:13.000Z</time>
      </trkpt>
      <trkpt lat="46.35876" lon="6.84624">
        <ele>1225.2567923723</ele>
        <time>2012-06-09T12:46:15.000Z</time>
      </trkpt>
      <trkpt lat="46.35877" lon="6.84639">
        <ele>1223.8297546606</ele>
        <time>2012-06-09T12:46:17.000Z</time>
      </trkpt>
      <trkpt lat="46.35882" lon="6.84654">
        <ele>1222.5308282624</ele>
        <time>2012-06-09T12:46:19.000Z</time>
      </trkpt>
      <trkpt lat="46.35883" lon="6.84669">
        <ele>1221.2015797837</ele>
        <time>2012-06-09T12:46:22.000Z</time>
      </trkpt>
      <trkpt lat="46.3589" lon="6.84688">
        <ele>1220.1511058486</ele>
        <time>2012-06-09T12:46:24.000Z</time>
      </trkpt>
      <trkpt lat="46.35898" lon="6.84704">
        <ele>1219.055774094</ele>
        <time>2012-06-09T12:46:27.000Z</time>
      </trkpt>
      <trkpt lat="46.35906" lon="6.84714">
        <ele>1218.1090418658</ele>
        <time>2012-06-09T12:46:29.000Z</time>
      </trkpt>
      <trkpt lat="46.35912" lon="6.84729">
        <ele>1217.1763293061</ele>
        <time>2012-06-09T12:46:31.000Z</time>
      </trkpt>
      <trkpt lat="46.35917" lon="6.84742">
        <ele>1216.3134305142</ele>
        <time>2012-06-09T12:46:33.000Z</time>
      </trkpt>
      <trkpt lat="46.35926" lon="6.84757">
        <ele>1215.43940136</ele>
        <time>2012-06-09T12:46:35.000Z</time>
      </trkpt>
      <trkpt lat="46.3593" lon="6.8477">
        <ele>1214.557580952</ele>
        <time>2012-06-09T12:46:37.000Z</time>
      </trkpt>
      <trkpt lat="46.3594" lon="6.84784">
        <ele>1213.6103066664</ele>
        <time>2012-06-09T12:46:40.000Z</time>
      </trkpt>
      <trkpt lat="46.35949" lon="6.84798">
        <ele>1212.7072146665</ele>
        <time>2012-06-09T12:46:43.000Z</time>
      </trkpt>
      <trkpt lat="46.35959" lon="6.84812">
        <ele>1211.9250502665</ele>
        <time>2012-06-09T12:46:45.000Z</time>
      </trkpt>
      <trkpt lat="46.35971" lon="6.84824">
        <ele>1210.9575351866</ele>
        <time>2012-06-09T12:46:48.000Z</time>
      </trkpt>
      <trkpt lat="46.35983" lon="6.84828">
        <ele>1209.8302746306</ele>
        <time>2012-06-09T12:46:52.000Z</time>
      </trkpt>
      <trkpt lat="46.35995" lon="6.8483">
        <ele>1208.7711922414</ele>
        <time>2012-06-09T12:46:55.000Z</time>
      </trkpt>
      <trkpt lat="46.36004" lon="6.84832">
        <ele>1207.819834569</ele>
        <time>2012-06-09T12:47:03.000Z</time>
      </trkpt>
      <trkpt lat="46.36013" lon="6.84843">
        <ele>1207.2138841983</ele>
        <time>2012-06-09T12:47:08.000Z</time>
      </trkpt>
      <trkpt lat="46.3602" lon="6.84851">
        <ele>1206.5497189388</ele>
        <time>2012-06-09T12:47:15.000Z</time>
      </trkpt>
      <trkpt lat="46.36026" lon="6.84861">
        <ele>1205.9048032572</ele>
        <time>2012-06-09T12:47:23.000Z</time>
      </trkpt>
      <trkpt lat="46.36034" lon="6.84872">
        <ele>1205.27336228</ele>
        <time>2012-06-09T12:47:28.000Z</time>
      </trkpt>
      <trkpt lat="46.36039" lon="6.84886">
        <ele>1204.771353596</ele>
        <time>2012-06-09T12:47:30.000Z</time>
      </trkpt>
      <trkpt lat="46.36046" lon="6.84899">
        <ele>1204.2699475172</ele>
        <time>2012-06-09T12:47:33.000Z</time>
      </trkpt>
      <trkpt lat="46.36049" lon="6.84913">
        <ele>1203.708963262</ele>
        <time>2012-06-09T12:47:35.000Z</time>
      </trkpt>
      <trkpt lat="46.36057" lon="6.84927">
        <ele>1202.8962742834</ele>
        <time>2012-06-09T12:47:39.000Z</time>
      </trkpt>
      <trkpt lat="46.36064" lon="6.84946">
        <ele>1201.6673919984</ele>
        <time>2012-06-09T12:47:42.000Z</time>
      </trkpt>
      <trkpt lat="46.36071" lon="6.84955">
        <ele>1200.2971743989</ele>
        <time>2012-06-09T12:47:44.000Z</time>
      </trkpt>
      <trkpt lat="46.3608" lon="6.84967">
        <ele>1198.6480220792</ele>
        <time>2012-06-09T12:47:47.000Z</time>
      </trkpt>
      <trkpt lat="46.36086" lon="6.84979">
        <ele>1196.7436154555</ele>
        <time>2012-06-09T12:47:51.000Z</time>
      </trkpt>
      <trkpt lat="46.36093" lon="6.84992">
        <ele>1194.6005308188</ele>
        <time>2012-06-09T12:47:54.000Z</time>
      </trkpt>
      <trkpt lat="46.361" lon="6.85002">
        <ele>1192.5603715732</ele>
        <time>2012-06-09T12:47:56.000Z</time>
      </trkpt>
      <trkpt lat="46.36111" lon="6.85011">
        <ele>1190.7422601012</ele>
        <time>2012-06-09T12:47:58.000Z</time>
      </trkpt>
      <trkpt lat="46.36116" lon="6.8503">
        <ele>1189.0195820709</ele>
        <time>2012-06-09T12:48:00.000Z</time>
      </trkpt>
      <trkpt lat="46.36123" lon="6.85039">
        <ele>1186.1037074496</ele>
        <time>2012-06-09T12:48:05.000Z</time>
      </trkpt>
      <trkpt lat="46.36127" lon="6.85054">
        <ele>1183.5225952147</ele>
        <time>2012-06-09T12:48:08.000Z</time>
      </trkpt>
      <trkpt lat="46.36128" lon="6.85067">
        <ele>1181.3858166503</ele>
        <time>2012-06-09T12:48:10.000Z</time>
      </trkpt>
      <trkpt lat="46.36134" lon="6.85084">
        <ele>1179.2000716552</ele>
        <time>2012-06-09T12:48:12.000Z</time>
      </trkpt>
      <trkpt lat="46.36147" lon="6.85099">
        <ele>1176.4700501586</ele>
        <time>2012-06-09T12:48:14.000Z</time>
      </trkpt>
      <trkpt lat="46.36153" lon="6.85109">
        <ele>1174.2590351111</ele>
        <time>2012-06-09T12:48:16.000Z</time>
      </trkpt>
      <trkpt lat="46.36161" lon="6.85117">
        <ele>1171.1813245777</ele>
        <time>2012-06-09T12:48:18.000Z</time>
      </trkpt>
      <trkpt lat="46.36173" lon="6.85124">
        <ele>1168.3369272044</ele>
        <time>2012-06-09T12:48:21.000Z</time>
      </trkpt>
      <trkpt lat="46.36182" lon="6.85123">
        <ele>1165.9558490431</ele>
        <time>2012-06-09T12:48:22.000Z</time>
      </trkpt>
      <trkpt lat="46.36194" lon="6.85134">
        <ele>1162.7590943302</ele>
        <time>2012-06-09T12:48:24.000Z</time>
      </trkpt>
      <trkpt lat="46.36204" lon="6.85138">
        <ele>1158.9613660311</ele>
        <time>2012-06-09T12:48:28.000Z</time>
      </trkpt>
      <trkpt lat="46.36213" lon="6.85147">
        <ele>1155.2229562218</ele>
        <time>2012-06-09T12:48:31.000Z</time>
      </trkpt>
      <trkpt lat="46.3622" lon="6.85153">
        <ele>1151.4660693552</ele>
        <time>2012-06-09T12:48:33.000Z</time>
      </trkpt>
      <trkpt lat="46.36227" lon="6.85163">
        <ele>1147.2462485487</ele>
        <time>2012-06-09T12:48:36.000Z</time>
      </trkpt>
      <trkpt lat="46.36234" lon="6.8516">
        <ele>1142.7023739841</ele>
        <time>2012-06-09T12:48:42.000Z</time>
      </trkpt>
      <trkpt lat="46.36242" lon="6.85153">
        <ele>1137.9616617888</ele>
        <time>2012-06-09T12:50:50.000Z</time>
      </trkpt>
      <trkpt lat="46.36251" lon="6.85156">
        <ele>1134.1331632522</ele>
        <time>2012-06-09T12:50:52.000Z</time>
      </trkpt>
      <trkpt lat="46.36263" lon="6.85162">
        <ele>1130.9732142765</ele>
        <time>2012-06-09T12:50:54.000Z</time>
      </trkpt>
      <trkpt lat="46.36274" lon="6.85175">
        <ele>1128.2812499936</ele>
        <time>2012-06-09T12:50:56.000Z</time>
      </trkpt>
      <trkpt lat="46.36284" lon="6.85193">
        <ele>1125.8868749955</ele>
        <time>2012-06-09T12:50:58.000Z</time>
      </trkpt>
      <trkpt lat="46.36295" lon="6.85206">
        <ele>1123.7308124969</ele>
        <time>2012-06-09T12:51:00.000Z</time>
      </trkpt>
      <trkpt lat="46.36311" lon="6.85215">
        <ele>1121.8615687478</ele>
        <time>2012-06-09T12:51:02.000Z</time>
      </trkpt>
      <trkpt lat="46.36325" lon="6.85228">
        <ele>1120.1330981235</ele>
        <time>2012-06-09T12:51:04.000Z</time>
      </trkpt>
      <trkpt lat="46.36335" lon="6.85246">
        <ele>1118.5631686864</ele>
        <time>2012-06-09T12:51:06.000Z</time>
      </trkpt>
      <trkpt lat="46.36343" lon="6.85263">
        <ele>1117.0442180805</ele>
        <time>2012-06-09T12:51:08.000Z</time>
      </trkpt>
      <trkpt lat="46.36355" lon="6.85276">
        <ele>1115.5309526563</ele>
        <time>2012-06-09T12:51:10.000Z</time>
      </trkpt>
      <trkpt lat="46.3637" lon="6.85285">
        <ele>1113.6916668594</ele>
        <time>2012-06-09T12:51:12.000Z</time>
      </trkpt>
      <trkpt lat="46.36382" lon="6.85302">
        <ele>1111.5641668016</ele>
        <time>2012-06-09T12:51:14.000Z</time>
      </trkpt>
      <trkpt lat="46.36387" lon="6.85312">
        <ele>1109.7749167611</ele>
        <time>2012-06-09T12:51:15.000Z</time>
      </trkpt>
      <trkpt lat="46.36394" lon="6.85322">
        <ele>1108.0424417328</ele>
        <time>2012-06-09T12:51:16.000Z</time>
      </trkpt>
      <trkpt lat="46.36401" lon="6.85333">
        <ele>1106.409709213</ele>
        <time>2012-06-09T12:51:17.000Z</time>
      </trkpt>
      <trkpt lat="46.36408" lon="6.85343">
        <ele>1104.7867964491</ele>
        <time>2012-06-09T12:51:18.000Z</time>
      </trkpt>
      <trkpt lat="46.36415" lon="6.85353">
        <ele>1103.0507575143</ele>
        <time>2012-06-09T12:51:19.000Z</time>
      </trkpt>
      <trkpt lat="46.36422" lon="6.85363">
        <ele>1101.41553026</ele>
        <time>2012-06-09T12:51:20.000Z</time>
      </trkpt>
      <trkpt lat="46.3643" lon="6.85373">
        <ele>1099.760871182</ele>
        <time>2012-06-09T12:51:21.000Z</time>
      </trkpt>
      <trkpt lat="46.36437" lon="6.85383">
        <ele>1097.9426098274</ele>
        <time>2012-06-09T12:51:22.000Z</time>
      </trkpt>
      <trkpt lat="46.36445" lon="6.85393">
        <ele>1096.2498268792</ele>
        <time>2012-06-09T12:51:23.000Z</time>
      </trkpt>
      <trkpt lat="46.36453" lon="6.85404">
        <ele>1094.7348788154</ele>
        <time>2012-06-09T12:51:24.000Z</time>
      </trkpt>
      <trkpt lat="46.36459" lon="6.85414">
        <ele>1093.3444151708</ele>
        <time>2012-06-09T12:51:25.000Z</time>
      </trkpt>
      <trkpt lat="46.36464" lon="6.85425">
        <ele>1092.1610906196</ele>
        <time>2012-06-09T12:51:26.000Z</time>
      </trkpt>
      <trkpt lat="46.36473" lon="6.8544">
        <ele>1090.6127634337</ele>
        <time>2012-06-09T12:51:28.000Z</time>
      </trkpt>
      <trkpt lat="46.36484" lon="6.8545">
        <ele>1088.7489344036</ele>
        <time>2012-06-09T12:51:30.000Z</time>
      </trkpt>
      <trkpt lat="46.36498" lon="6.85456">
        <ele>1086.7542540825</ele>
        <time>2012-06-09T12:51:32.000Z</time>
      </trkpt>
      <trkpt lat="46.36514" lon="6.85461">
        <ele>1084.7879778578</ele>
        <time>2012-06-09T12:51:34.000Z</time>
      </trkpt>
      <trkpt lat="46.36531" lon="6.85468">
        <ele>1082.9315845004</ele>
        <time>2012-06-09T12:51:36.000Z</time>
      </trkpt>
      <trkpt lat="46.36546" lon="6.8548">
        <ele>1080.9421091503</ele>
        <time>2012-06-09T12:51:38.000Z</time>
      </trkpt>
      <trkpt lat="46.3656" lon="6.85491">
        <ele>1078.7094764052</ele>
        <time>2012-06-09T12:51:40.000Z</time>
      </trkpt>
      <trkpt lat="46.36575" lon="6.85499">
        <ele>1076.7566334836</ele>
        <time>2012-06-09T12:51:42.000Z</time>
      </trkpt>
      <trkpt lat="46.36586" lon="6.85508">
        <ele>1075.0296434386</ele>
        <time>2012-06-09T12:51:44.000Z</time>
      </trkpt>
      <trkpt lat="46.36583" lon="6.85524">
        <ele>1073.160750407</ele>
        <time>2012-06-09T12:51:47.000Z</time>
      </trkpt>
      <trkpt lat="46.36573" lon="6.85524">
        <ele>1071.3425252849</ele>
        <time>2012-06-09T12:51:49.000Z</time>
      </trkpt>
      <trkpt lat="46.36564" lon="6.85517">
        <ele>1069.4097676994</ele>
        <time>2012-06-09T12:51:51.000Z</time>
      </trkpt>
      <trkpt lat="46.36554" lon="6.85508">
        <ele>1067.6968373896</ele>
        <time>2012-06-09T12:51:53.000Z</time>
      </trkpt>
      <trkpt lat="46.36543" lon="6.85497">
        <ele>1066.0177861727</ele>
        <time>2012-06-09T12:51:55.000Z</time>
      </trkpt>
      <trkpt lat="46.36531" lon="6.8549">
        <ele>1064.4224503209</ele>
        <time>2012-06-09T12:51:57.000Z</time>
      </trkpt>
      <trkpt lat="46.36517" lon="6.85488">
        <ele>1062.9157152246</ele>
        <time>2012-06-09T12:51:59.000Z</time>
      </trkpt>
      <trkpt lat="46.36503" lon="6.85487">
        <ele>1061.5610006572</ele>
        <time>2012-06-09T12:52:01.000Z</time>
      </trkpt>
      <trkpt lat="46.36491" lon="6.85484">
        <ele>1060.2527004601</ele>
        <time>2012-06-09T12:52:03.000Z</time>
      </trkpt>
      <trkpt lat="46.36478" lon="6.85483">
        <ele>1059.366890322</ele>
        <time>2012-06-09T12:52:05.000Z</time>
      </trkpt>
      <trkpt lat="46.36466" lon="6.85486">
        <ele>1058.4468232254</ele>
        <time>2012-06-09T12:52:07.000Z</time>
      </trkpt>
      <trkpt lat="46.36454" lon="6.85491">
        <ele>1057.3227762578</ele>
        <time>2012-06-09T12:52:09.000Z</time>
      </trkpt>
      <trkpt lat="46.36442" lon="6.85496">
        <ele>1056.4759433805</ele>
        <time>2012-06-09T12:52:11.000Z</time>
      </trkpt>
      <trkpt lat="46.36432" lon="6.85496">
        <ele>1055.7331603663</ele>
        <time>2012-06-09T12:52:13.000Z</time>
      </trkpt>
      <trkpt lat="46.36434" lon="6.8551">
        <ele>1054.7332122564</ele>
        <time>2012-06-09T12:52:20.000Z</time>
      </trkpt>
      <trkpt lat="46.36444" lon="6.85517">
        <ele>1053.9732485795</ele>
        <time>2012-06-09T12:52:23.000Z</time>
      </trkpt>
      <trkpt lat="46.36456" lon="6.85524">
        <ele>1053.5312740056</ele>
        <time>2012-06-09T12:52:26.000Z</time>
      </trkpt>
      <trkpt lat="46.36467" lon="6.85529">
        <ele>1053.311891804</ele>
        <time>2012-06-09T12:52:29.000Z</time>
      </trkpt>
      <trkpt lat="46.36477" lon="6.85534">
        <ele>1053.3983242628</ele>
        <time>2012-06-09T12:52:32.000Z</time>
      </trkpt>
      <trkpt lat="46.36485" lon="6.85545">
        <ele>1053.6088269839</ele>
        <time>2012-06-09T12:52:35.000Z</time>
      </trkpt>
      <trkpt lat="46.36488" lon="6.8556">
        <ele>1053.9961788888</ele>
        <time>2012-06-09T12:52:38.000Z</time>
      </trkpt>
      <trkpt lat="46.3649" lon="6.85576">
        <ele>1054.3873252221</ele>
        <time>2012-06-09T12:52:41.000Z</time>
      </trkpt>
      <trkpt lat="46.36491" lon="6.85592">
        <ele>1054.6611276555</ele>
        <time>2012-06-09T12:52:44.000Z</time>
      </trkpt>
      <trkpt lat="46.36491" lon="6.85607">
        <ele>1054.8827893588</ele>
        <time>2012-06-09T12:52:47.000Z</time>
      </trkpt>
      <trkpt lat="46.36489" lon="6.85621">
        <ele>1055.2779525512</ele>
        <time>2012-06-09T12:52:50.000Z</time>
      </trkpt>
      <trkpt lat="46.36485" lon="6.85634">
        <ele>1055.6445667858</ele>
        <time>2012-06-09T12:52:54.000Z</time>
      </trkpt>
      <trkpt lat="46.36477" lon="6.85636">
        <ele>1055.0911967501</ele>
        <time>2012-06-09T12:53:00.000Z</time>
      </trkpt>
      <trkpt lat="46.36484" lon="6.85626">
        <ele>1055.1838377251</ele>
        <time>2012-06-09T12:57:15.000Z</time>
      </trkpt>
      <trkpt lat="46.36487" lon="6.85612">
        <ele>1054.9486864075</ele>
        <time>2012-06-09T12:57:19.000Z</time>
      </trkpt>
      <trkpt lat="46.36489" lon="6.85599">
        <ele>1054.5440804853</ele>
        <time>2012-06-09T12:57:22.000Z</time>
      </trkpt>
      <trkpt lat="46.36488" lon="6.85584">
        <ele>1054.2908563397</ele>
        <time>2012-06-09T12:57:26.000Z</time>
      </trkpt>
      <trkpt lat="46.36488" lon="6.8557">
        <ele>1054.1435994378</ele>
        <time>2012-06-09T12:57:30.000Z</time>
      </trkpt>
      <trkpt lat="46.36487" lon="6.85555">
        <ele>1053.9805196065</ele>
        <time>2012-06-09T12:57:34.000Z</time>
      </trkpt>
      <trkpt lat="46.36484" lon="6.85542">
        <ele>1053.8363637245</ele>
        <time>2012-06-09T12:57:38.000Z</time>
      </trkpt>
      <trkpt lat="46.36477" lon="6.85532">
        <ele>1053.7954546072</ele>
        <time>2012-06-09T12:57:42.000Z</time>
      </trkpt>
      <trkpt lat="46.36469" lon="6.85526">
        <ele>1053.856818225</ele>
        <time>2012-06-09T12:57:46.000Z</time>
      </trkpt>
      <trkpt lat="46.36458" lon="6.85522">
        <ele>1054.0197727575</ele>
        <time>2012-06-09T12:57:50.000Z</time>
      </trkpt>
      <trkpt lat="46.36449" lon="6.85518">
        <ele>1054.2538409303</ele>
        <time>2012-06-09T12:57:54.000Z</time>
      </trkpt>
      <trkpt lat="46.36438" lon="6.8551">
        <ele>1054.3576886512</ele>
        <time>2012-06-09T12:57:58.000Z</time>
      </trkpt>
      <trkpt lat="46.36429" lon="6.85505">
        <ele>1054.1303820558</ele>
        <time>2012-06-09T12:58:02.000Z</time>
      </trkpt>
      <trkpt lat="46.3642" lon="6.85495">
        <ele>1054.3612674391</ele>
        <time>2012-06-09T12:58:06.000Z</time>
      </trkpt>
      <trkpt lat="46.36415" lon="6.85484">
        <ele>1054.4628872074</ele>
        <time>2012-06-09T12:58:10.000Z</time>
      </trkpt>
      <trkpt lat="46.36409" lon="6.8547">
        <ele>1054.5340210451</ele>
        <time>2012-06-09T12:58:15.000Z</time>
      </trkpt>
      <trkpt lat="46.36404" lon="6.85459">
        <ele>1054.3738147316</ele>
        <time>2012-06-09T12:58:19.000Z</time>
      </trkpt>
      <trkpt lat="46.36398" lon="6.85449">
        <ele>1053.8716703121</ele>
        <time>2012-06-09T12:58:24.000Z</time>
      </trkpt>
      <trkpt lat="46.3639" lon="6.8544">
        <ele>1053.4901692185</ele>
        <time>2012-06-09T12:58:48.000Z</time>
      </trkpt>
      <trkpt lat="46.36382" lon="6.8543">
        <ele>1053.2231184529</ele>
        <time>2012-06-09T12:58:53.000Z</time>
      </trkpt>
      <trkpt lat="46.36375" lon="6.85419">
        <ele>1052.9761829171</ele>
        <time>2012-06-09T12:58:57.000Z</time>
      </trkpt>
      <trkpt lat="46.36367" lon="6.85409">
        <ele>1052.7433280419</ele>
        <time>2012-06-09T12:59:00.000Z</time>
      </trkpt>
      <trkpt lat="46.3636" lon="6.85399">
        <ele>1052.4603296294</ele>
        <time>2012-06-09T12:59:03.000Z</time>
      </trkpt>
      <trkpt lat="46.36356" lon="6.85387">
        <ele>1052.1722307406</ele>
        <time>2012-06-09T12:59:07.000Z</time>
      </trkpt>
      <trkpt lat="46.36353" lon="6.85373">
        <ele>1051.7905615184</ele>
        <time>2012-06-09T12:59:10.000Z</time>
      </trkpt>
      <trkpt lat="46.36349" lon="6.85359">
        <ele>1051.3733930629</ele>
        <time>2012-06-09T12:59:13.000Z</time>
      </trkpt>
      <trkpt lat="46.36342" lon="6.85347">
        <ele>1051.021375144</ele>
        <time>2012-06-09T12:59:16.000Z</time>
      </trkpt>
      <trkpt lat="46.36333" lon="6.8534">
        <ele>1050.6849626008</ele>
        <time>2012-06-09T12:59:19.000Z</time>
      </trkpt>
      <trkpt lat="46.36321" lon="6.85336">
        <ele>1050.2994738206</ele>
        <time>2012-06-09T12:59:23.000Z</time>
      </trkpt>
      <trkpt lat="46.36311" lon="6.85332">
        <ele>1049.9096316744</ele>
        <time>2012-06-09T12:59:26.000Z</time>
      </trkpt>
      <trkpt lat="46.36303" lon="6.85319">
        <ele>1049.6067421721</ele>
        <time>2012-06-09T12:59:29.000Z</time>
      </trkpt>
      <trkpt lat="46.36296" lon="6.85303">
        <ele>1049.3347195205</ele>
        <time>2012-06-09T12:59:32.000Z</time>
      </trkpt>
      <trkpt lat="46.36287" lon="6.8529">
        <ele>1049.0243036643</ele>
        <time>2012-06-09T12:59:35.000Z</time>
      </trkpt>
      <trkpt lat="46.36279" lon="6.85283">
        <ele>1048.717012565</ele>
        <time>2012-06-09T12:59:37.000Z</time>
      </trkpt>
      <trkpt lat="46.36269" lon="6.85276">
        <ele>1048.3519087955</ele>
        <time>2012-06-09T12:59:39.000Z</time>
      </trkpt>
      <trkpt lat="46.3626" lon="6.85269">
        <ele>1047.8863361569</ele>
        <time>2012-06-09T12:59:41.000Z</time>
      </trkpt>
      <trkpt lat="46.3625" lon="6.85261">
        <ele>1047.3504353098</ele>
        <time>2012-06-09T12:59:43.000Z</time>
      </trkpt>
      <trkpt lat="46.3624" lon="6.85254">
        <ele>1046.7653047169</ele>
        <time>2012-06-09T12:59:45.000Z</time>
      </trkpt>
      <trkpt lat="46.36229" lon="6.85251">
        <ele>1045.9957133018</ele>
        <time>2012-06-09T12:59:47.000Z</time>
      </trkpt>
      <trkpt lat="46.36218" lon="6.85251">
        <ele>1045.0669993113</ele>
        <time>2012-06-09T12:59:49.000Z</time>
      </trkpt>
      <trkpt lat="46.36207" lon="6.85251">
        <ele>1044.0568995179</ele>
        <time>2012-06-09T12:59:51.000Z</time>
      </trkpt>
      <trkpt lat="46.36196" lon="6.85248">
        <ele>1043.4098296625</ele>
        <time>2012-06-09T12:59:53.000Z</time>
      </trkpt>
      <trkpt lat="46.36185" lon="6.85245">
        <ele>1042.8668807638</ele>
        <time>2012-06-09T12:59:55.000Z</time>
      </trkpt>
      <trkpt lat="46.36174" lon="6.85242">
        <ele>1042.7568165346</ele>
        <time>2012-06-09T12:59:57.000Z</time>
      </trkpt>
      <trkpt lat="46.36163" lon="6.85239">
        <ele>1042.4397715742</ele>
        <time>2012-06-09T13:00:00.000Z</time>
      </trkpt>
      <trkpt lat="46.36154" lon="6.85237">
        <ele>1042.157840102</ele>
        <time>2012-06-09T13:00:03.000Z</time>
      </trkpt>
      <trkpt lat="46.36144" lon="6.85236">
        <ele>1041.8104880714</ele>
        <time>2012-06-09T13:00:06.000Z</time>
      </trkpt>
      <trkpt lat="46.36132" lon="6.85237">
        <ele>1041.47734165</ele>
        <time>2012-06-09T13:00:09.000Z</time>
      </trkpt>
      <trkpt lat="46.3612" lon="6.85238">
        <ele>1041.334139155</ele>
        <time>2012-06-09T13:00:12.000Z</time>
      </trkpt>
      <trkpt lat="46.36107" lon="6.85242">
        <ele>1041.0838974085</ele>
        <time>2012-06-09T13:00:15.000Z</time>
      </trkpt>
      <trkpt lat="46.36095" lon="6.8525">
        <ele>1040.7587281859</ele>
        <time>2012-06-09T13:00:18.000Z</time>
      </trkpt>
      <trkpt lat="46.36082" lon="6.85252">
        <ele>1040.6811097302</ele>
        <time>2012-06-09T13:00:21.000Z</time>
      </trkpt>
      <trkpt lat="46.36074" lon="6.85247">
        <ele>1040.8367768111</ele>
        <time>2012-06-09T13:00:23.000Z</time>
      </trkpt>
      <trkpt lat="46.36068" lon="6.85236">
        <ele>1041.0957437678</ele>
        <time>2012-06-09T13:00:25.000Z</time>
      </trkpt>
      <trkpt lat="46.36065" lon="6.85223">
        <ele>1041.3670206374</ele>
        <time>2012-06-09T13:00:27.000Z</time>
      </trkpt>
      <trkpt lat="46.36064" lon="6.85206">
        <ele>1041.4969144462</ele>
        <time>2012-06-09T13:00:29.000Z</time>
      </trkpt>
      <trkpt lat="46.3606" lon="6.85188">
        <ele>1041.6178401123</ele>
        <time>2012-06-09T13:00:31.000Z</time>
      </trkpt>
      <trkpt lat="46.36055" lon="6.85175">
        <ele>1041.7624880786</ele>
        <time>2012-06-09T13:00:33.000Z</time>
      </trkpt>
      <trkpt lat="46.36047" lon="6.8516">
        <ele>1041.8037416551</ele>
        <time>2012-06-09T13:00:35.000Z</time>
      </trkpt>
      <trkpt lat="46.36041" lon="6.85146">
        <ele>1041.7726191585</ele>
        <time>2012-06-09T13:00:37.000Z</time>
      </trkpt>
      <trkpt lat="46.36036" lon="6.8513">
        <ele>1041.660833411</ele>
        <time>2012-06-09T13:00:39.000Z</time>
      </trkpt>
      <trkpt lat="46.36029" lon="6.85112">
        <ele>1041.4625833877</ele>
        <time>2012-06-09T13:00:41.000Z</time>
      </trkpt>
      <trkpt lat="46.3602" lon="6.85098">
        <ele>1041.2338083714</ele>
        <time>2012-06-09T13:00:43.000Z</time>
      </trkpt>
      <trkpt lat="46.36011" lon="6.85093">
        <ele>1041.01366586</ele>
        <time>2012-06-09T13:00:45.000Z</time>
      </trkpt>
      <trkpt lat="46.36001" lon="6.8509">
        <ele>1040.799566102</ele>
        <time>2012-06-09T13:00:47.000Z</time>
      </trkpt>
      <trkpt lat="46.35993" lon="6.85081">
        <ele>1040.6496962714</ele>
        <time>2012-06-09T13:00:49.000Z</time>
      </trkpt>
      <trkpt lat="46.35981" lon="6.85077">
        <ele>1040.45478739</ele>
        <time>2012-06-09T13:00:52.000Z</time>
      </trkpt>
      <trkpt lat="46.3597" lon="6.85075">
        <ele>1040.258351173</ele>
        <time>2012-06-09T13:00:55.000Z</time>
      </trkpt>
      <trkpt lat="46.35955" lon="6.85079">
        <ele>1040.0908458211</ele>
        <time>2012-06-09T13:00:57.000Z</time>
      </trkpt>
      <trkpt lat="46.35946" lon="6.85079">
        <ele>1039.9435920748</ele>
        <time>2012-06-09T13:00:58.000Z</time>
      </trkpt>
      <trkpt lat="46.35935" lon="6.85078">
        <ele>1039.7505144523</ele>
        <time>2012-06-09T13:01:00.000Z</time>
      </trkpt>
      <trkpt lat="46.35923" lon="6.85057">
        <ele>1039.4953601166</ele>
        <time>2012-06-09T13:01:02.000Z</time>
      </trkpt>
      <trkpt lat="46.35911" lon="6.85043">
        <ele>1039.1967520816</ele>
        <time>2012-06-09T13:01:04.000Z</time>
      </trkpt>
      <trkpt lat="46.35898" lon="6.85029">
        <ele>1038.8677264571</ele>
        <time>2012-06-09T13:01:06.000Z</time>
      </trkpt>
      <trkpt lat="46.35886" lon="6.85012">
        <ele>1038.45740852</ele>
        <time>2012-06-09T13:01:08.000Z</time>
      </trkpt>
      <trkpt lat="46.35874" lon="6.84998">
        <ele>1037.840185964</ele>
        <time>2012-06-09T13:01:10.000Z</time>
      </trkpt>
      <trkpt lat="46.35862" lon="6.84989">
        <ele>1037.1381301748</ele>
        <time>2012-06-09T13:01:12.000Z</time>
      </trkpt>
      <trkpt lat="46.35869" lon="6.84996">
        <ele>1035.8366911224</ele>
        <time>2012-06-09T13:01:19.000Z</time>
      </trkpt>
      <trkpt lat="46.3588" lon="6.85004">
        <ele>1034.7756837857</ele>
        <time>2012-06-09T13:01:22.000Z</time>
      </trkpt>
      <trkpt lat="46.35889" lon="6.85007">
        <ele>1034.00297865</ele>
        <time>2012-06-09T13:01:24.000Z</time>
      </trkpt>
      <trkpt lat="46.35895" lon="6.85017">
        <ele>1033.432085055</ele>
        <time>2012-06-09T13:01:26.000Z</time>
      </trkpt>
      <trkpt lat="46.35902" lon="6.8503">
        <ele>1033.0024595385</ele>
        <time>2012-06-09T13:01:28.000Z</time>
      </trkpt>
      <trkpt lat="46.35906" lon="6.85043">
        <ele>1032.6717216769</ele>
        <time>2012-06-09T13:01:29.000Z</time>
      </trkpt>
      <trkpt lat="46.35913" lon="6.85077">
        <ele>1032.3802051739</ele>
        <time>2012-06-09T13:01:31.000Z</time>
      </trkpt>
      <trkpt lat="46.3592" lon="6.85101">
        <ele>1032.1461436217</ele>
        <time>2012-06-09T13:01:33.000Z</time>
      </trkpt>
      <trkpt lat="46.35927" lon="6.85124">
        <ele>1031.9823005352</ele>
        <time>2012-06-09T13:01:35.000Z</time>
      </trkpt>
      <trkpt lat="46.3594" lon="6.85136">
        <ele>1031.8076103746</ele>
        <time>2012-06-09T13:01:37.000Z</time>
      </trkpt>
      <trkpt lat="46.35957" lon="6.85142">
        <ele>1030.6953272622</ele>
        <time>2012-06-09T13:01:39.000Z</time>
      </trkpt>
      <trkpt lat="46.35974" lon="6.85145">
        <ele>1029.3767290836</ele>
        <time>2012-06-09T13:01:41.000Z</time>
      </trkpt>
      <trkpt lat="46.35991" lon="6.85148">
        <ele>1027.9737103585</ele>
        <time>2012-06-09T13:01:43.000Z</time>
      </trkpt>
      <trkpt lat="46.36003" lon="6.85154">
        <ele>1026.5115972509</ele>
        <time>2012-06-09T13:01:45.000Z</time>
      </trkpt>
      <trkpt lat="46.36008" lon="6.85168">
        <ele>1025.3081180757</ele>
        <time>2012-06-09T13:01:46.000Z</time>
      </trkpt>
      <trkpt lat="46.36005" lon="6.85189">
        <ele>1024.285682653</ele>
        <time>2012-06-09T13:01:47.000Z</time>
      </trkpt>
      <trkpt lat="46.36008" lon="6.85202">
        <ele>1023.3599778571</ele>
        <time>2012-06-09T13:01:48.000Z</time>
      </trkpt>
      <trkpt lat="46.36008" lon="6.85218">
        <ele>1022.4719845</ele>
        <time>2012-06-09T13:01:49.000Z</time>
      </trkpt>
      <trkpt lat="46.36007" lon="6.85236">
        <ele>1021.67038915</ele>
        <time>2012-06-09T13:01:50.000Z</time>
      </trkpt>
      <trkpt lat="46.36005" lon="6.85251">
        <ele>1020.929272405</ele>
        <time>2012-06-09T13:01:51.000Z</time>
      </trkpt>
      <trkpt lat="46.36004" lon="6.85278">
        <ele>1020.0204906835</ele>
        <time>2012-06-09T13:01:53.000Z</time>
      </trkpt>
      <trkpt lat="46.36004" lon="6.85291">
        <ele>1019.2043434784</ele>
        <time>2012-06-09T13:01:54.000Z</time>
      </trkpt>
      <trkpt lat="46.3601" lon="6.85313">
        <ele>1018.3030404349</ele>
        <time>2012-06-09T13:01:56.000Z</time>
      </trkpt>
      <trkpt lat="46.3601" lon="6.8533">
        <ele>1017.5521283044</ele>
        <time>2012-06-09T13:01:57.000Z</time>
      </trkpt>
      <trkpt lat="46.36017" lon="6.85353">
        <ele>1016.3664898131</ele>
        <time>2012-06-09T13:01:58.000Z</time>
      </trkpt>
      <trkpt lat="46.3602" lon="6.85372">
        <ele>1015.1765428692</ele>
        <time>2012-06-09T13:01:59.000Z</time>
      </trkpt>
      <trkpt lat="46.36028" lon="6.85386">
        <ele>1013.8935800084</ele>
        <time>2012-06-09T13:02:01.000Z</time>
      </trkpt>
      <trkpt lat="46.36043" lon="6.85395">
        <ele>1012.3955060059</ele>
        <time>2012-06-09T13:02:03.000Z</time>
      </trkpt>
      <trkpt lat="46.36058" lon="6.85398">
        <ele>1010.6568542041</ele>
        <time>2012-06-09T13:02:05.000Z</time>
      </trkpt>
      <trkpt lat="46.36072" lon="6.85401">
        <ele>1008.7797979429</ele>
        <time>2012-06-09T13:02:07.000Z</time>
      </trkpt>
      <trkpt lat="46.36084" lon="6.85405">
        <ele>1006.68585856</ele>
        <time>2012-06-09T13:02:09.000Z</time>
      </trkpt>
      <trkpt lat="46.36096" lon="6.85406">
        <ele>1004.500100992</ele>
        <time>2012-06-09T13:02:11.000Z</time>
      </trkpt>
      <trkpt lat="46.36109" lon="6.85416">
        <ele>1002.3100706944</ele>
        <time>2012-06-09T13:02:13.000Z</time>
      </trkpt>
      <trkpt lat="46.3612" lon="6.8543">
        <ele>1000.1470494861</ele>
        <time>2012-06-09T13:02:15.000Z</time>
      </trkpt>
      <trkpt lat="46.36132" lon="6.85445">
        <ele>997.91293464026</ele>
        <time>2012-06-09T13:02:17.000Z</time>
      </trkpt>
      <trkpt lat="46.36144" lon="6.85459">
        <ele>995.68905424818</ele>
        <time>2012-06-09T13:02:19.000Z</time>
      </trkpt>
      <trkpt lat="46.36156" lon="6.8547">
        <ele>993.44233797373</ele>
        <time>2012-06-09T13:02:21.000Z</time>
      </trkpt>
      <trkpt lat="46.36171" lon="6.85471">
        <ele>991.14963658161</ele>
        <time>2012-06-09T13:02:23.000Z</time>
      </trkpt>
      <trkpt lat="46.36187" lon="6.85468">
        <ele>988.79474560713</ele>
        <time>2012-06-09T13:02:25.000Z</time>
      </trkpt>
      <trkpt lat="46.36199" lon="6.85465">
        <ele>986.75632192499</ele>
        <time>2012-06-09T13:02:27.000Z</time>
      </trkpt>
      <trkpt lat="46.36194" lon="6.85477">
        <ele>983.82942534749</ele>
        <time>2012-06-09T13:04:33.000Z</time>
      </trkpt>
      <trkpt lat="46.36188" lon="6.85486">
        <ele>981.27059774324</ele>
        <time>2012-06-09T13:04:37.000Z</time>
      </trkpt>
      <trkpt lat="46.36179" lon="6.85494">
        <ele>978.48941842027</ele>
        <time>2012-06-09T13:04:43.000Z</time>
      </trkpt>
      <trkpt lat="46.3617" lon="6.85505">
        <ele>975.43259289419</ele>
        <time>2012-06-09T13:04:47.000Z</time>
      </trkpt>
      <trkpt lat="46.36162" lon="6.85511">
        <ele>972.42281502593</ele>
        <time>2012-06-09T13:04:52.000Z</time>
      </trkpt>
      <trkpt lat="46.36157" lon="6.85523">
        <ele>969.08597051815</ele>
        <time>2012-06-09T13:04:58.000Z</time>
      </trkpt>
      <trkpt lat="46.36149" lon="6.85535">
        <ele>965.25017936271</ele>
        <time>2012-06-09T13:05:01.000Z</time>
      </trkpt>
      <trkpt lat="46.36138" lon="6.85541">
        <ele>960.88512555389</ele>
        <time>2012-06-09T13:05:04.000Z</time>
      </trkpt>
      <trkpt lat="46.36129" lon="6.85543">
        <ele>956.89958788773</ele>
        <time>2012-06-09T13:05:06.000Z</time>
      </trkpt>
      <trkpt lat="46.36116" lon="6.85543">
        <ele>953.44971152141</ele>
        <time>2012-06-09T13:05:08.000Z</time>
      </trkpt>
      <trkpt lat="46.36105" lon="6.85541">
        <ele>950.31479806499</ele>
        <time>2012-06-09T13:05:10.000Z</time>
      </trkpt>
      <trkpt lat="46.36094" lon="6.85541">
        <ele>947.31035864549</ele>
        <time>2012-06-09T13:05:13.000Z</time>
      </trkpt>
      <trkpt lat="46.3608" lon="6.85534">
        <ele>944.30725105184</ele>
        <time>2012-06-09T13:05:16.000Z</time>
      </trkpt>
      <trkpt lat="46.36073" lon="6.85526">
        <ele>941.36507573629</ele>
        <time>2012-06-09T13:05:19.000Z</time>
      </trkpt>
      <trkpt lat="46.36065" lon="6.85518">
        <ele>938.0755530154</ele>
        <time>2012-06-09T13:05:24.000Z</time>
      </trkpt>
      <trkpt lat="46.36056" lon="6.85517">
        <ele>935.38288711078</ele>
        <time>2012-06-09T13:05:27.000Z</time>
      </trkpt>
      <trkpt lat="46.36046" lon="6.85525">
        <ele>932.68802097755</ele>
        <time>2012-06-09T13:05:31.000Z</time>
      </trkpt>
      <trkpt lat="46.36036" lon="6.85529">
        <ele>930.29161468428</ele>
        <time>2012-06-09T13:05:34.000Z</time>
      </trkpt>
      <trkpt lat="46.36028" lon="6.85534">
        <ele>927.984130279</ele>
        <time>2012-06-09T13:05:37.000Z</time>
      </trkpt>
      <trkpt lat="46.36015" lon="6.85544">
        <ele>925.7088911953</ele>
        <time>2012-06-09T13:05:40.000Z</time>
      </trkpt>
      <trkpt lat="46.36006" lon="6.85548">
        <ele>923.66622383671</ele>
        <time>2012-06-09T13:05:42.000Z</time>
      </trkpt>
      <trkpt lat="46.35996" lon="6.85547">
        <ele>921.4563566857</ele>
        <time>2012-06-09T13:05:45.000Z</time>
      </trkpt>
      <trkpt lat="46.35986" lon="6.8555">
        <ele>919.30944967999</ele>
        <time>2012-06-09T13:05:48.000Z</time>
      </trkpt>
      <trkpt lat="46.35978" lon="6.85546">
        <ele>916.72661477599</ele>
        <time>2012-06-09T13:05:53.000Z</time>
      </trkpt>
      <trkpt lat="46.35979" lon="6.85563">
        <ele>913.50863034319</ele>
        <time>2012-06-09T13:05:59.000Z</time>
      </trkpt>
      <trkpt lat="46.35989" lon="6.85562">
        <ele>910.62604124024</ele>
        <time>2012-06-09T13:06:03.000Z</time>
      </trkpt>
      <trkpt lat="46.3598" lon="6.85557">
        <ele>908.33822886817</ele>
        <time>2012-06-09T13:06:51.000Z</time>
      </trkpt>
      <trkpt lat="46.3597" lon="6.85555">
        <ele>906.58676020772</ele>
        <time>2012-06-09T13:06:56.000Z</time>
      </trkpt>
      <trkpt lat="46.3596" lon="6.85555">
        <ele>905.1207321454</ele>
        <time>2012-06-09T13:07:01.000Z</time>
      </trkpt>
      <trkpt lat="46.35958" lon="6.85568">
        <ele>903.70451250178</ele>
        <time>2012-06-09T13:07:07.000Z</time>
      </trkpt>
      <trkpt lat="46.35959" lon="6.85582">
        <ele>902.47315875125</ele>
        <time>2012-06-09T13:07:10.000Z</time>
      </trkpt>
      <trkpt lat="46.3596" lon="6.85597">
        <ele>901.37121112587</ele>
        <time>2012-06-09T13:07:15.000Z</time>
      </trkpt>
      <trkpt lat="46.35955" lon="6.8561">
        <ele>900.44984778811</ele>
        <time>2012-06-09T13:07:17.000Z</time>
      </trkpt>
      <trkpt lat="46.35956" lon="6.85626">
        <ele>899.29489345168</ele>
        <time>2012-06-09T13:07:21.000Z</time>
      </trkpt>
      <trkpt lat="46.35952" lon="6.85637">
        <ele>897.49642541617</ele>
        <time>2012-06-09T13:07:26.000Z</time>
      </trkpt>
      <trkpt lat="46.35942" lon="6.85635">
        <ele>894.97749779132</ele>
        <time>2012-06-09T13:07:30.000Z</time>
      </trkpt>
      <trkpt lat="46.35935" lon="6.85619">
        <ele>892.04424845393</ele>
        <time>2012-06-09T13:07:34.000Z</time>
      </trkpt>
      <trkpt lat="46.35927" lon="6.85605">
        <ele>889.00097391775</ele>
        <time>2012-06-09T13:07:37.000Z</time>
      </trkpt>
      <trkpt lat="46.35918" lon="6.85598">
        <ele>885.79068174242</ele>
        <time>2012-06-09T13:07:39.000Z</time>
      </trkpt>
      <trkpt lat="46.35909" lon="6.85586">
        <ele>882.6734772197</ele>
        <time>2012-06-09T13:07:42.000Z</time>
      </trkpt>
      <trkpt lat="46.35906" lon="6.85571">
        <ele>879.56143405379</ele>
        <time>2012-06-09T13:07:44.000Z</time>
      </trkpt>
      <trkpt lat="46.35904" lon="6.85561">
        <ele>875.49300383765</ele>
        <time>2012-06-09T13:07:52.000Z</time>
      </trkpt>
      <trkpt lat="46.359" lon="6.8555">
        <ele>870.66510268636</ele>
        <time>2012-06-09T13:08:12.000Z</time>
      </trkpt>
      <trkpt lat="46.35892" lon="6.85542">
        <ele>865.27557188045</ele>
        <time>2012-06-09T13:08:25.000Z</time>
      </trkpt>
      <trkpt lat="46.35887" lon="6.85531">
        <ele>860.81290031631</ele>
        <time>2012-06-09T13:08:35.000Z</time>
      </trkpt>
      <trkpt lat="46.35879" lon="6.85523">
        <ele>857.35903022142</ele>
        <time>2012-06-09T13:08:54.000Z</time>
      </trkpt>
      <trkpt lat="46.3587" lon="6.8552">
        <ele>854.79132115499</ele>
        <time>2012-06-09T13:09:17.000Z</time>
      </trkpt>
      <trkpt lat="46.35862" lon="6.85522">
        <ele>852.1839248085</ele>
        <time>2012-06-09T13:10:41.000Z</time>
      </trkpt>
      <trkpt lat="46.35857" lon="6.85534">
        <ele>849.81874736595</ele>
        <time>2012-06-09T13:10:47.000Z</time>
      </trkpt>
      <trkpt lat="46.35849" lon="6.85546">
        <ele>847.89312315616</ele>
        <time>2012-06-09T13:10:50.000Z</time>
      </trkpt>
      <trkpt lat="46.35844" lon="6.85558">
        <ele>846.45518620931</ele>
        <time>2012-06-09T13:10:53.000Z</time>
      </trkpt>
      <trkpt lat="46.35844" lon="6.85572">
        <ele>845.11863034652</ele>
        <time>2012-06-09T13:10:56.000Z</time>
      </trkpt>
      <trkpt lat="46.35842" lon="6.8559">
        <ele>843.85304124256</ele>
        <time>2012-06-09T13:10:58.000Z</time>
      </trkpt>
      <trkpt lat="46.35839" lon="6.85604">
        <ele>842.72712886979</ele>
        <time>2012-06-09T13:11:00.000Z</time>
      </trkpt>
      <trkpt lat="46.35832" lon="6.85614">
        <ele>841.66899020886</ele>
        <time>2012-06-09T13:11:03.000Z</time>
      </trkpt>
      <trkpt lat="46.35826" lon="6.85626">
        <ele>840.0282931462</ele>
        <time>2012-06-09T13:11:07.000Z</time>
      </trkpt>
      <trkpt lat="46.35823" lon="6.85641">
        <ele>837.67980520234</ele>
        <time>2012-06-09T13:11:09.000Z</time>
      </trkpt>
      <trkpt lat="46.35828" lon="6.85649">
        <ele>834.08586364164</ele>
        <time>2012-06-09T13:11:13.000Z</time>
      </trkpt>
      <trkpt lat="46.35827" lon="6.85656">
        <ele>828.69010454915</ele>
        <time>2012-06-09T13:12:25.000Z</time>
      </trkpt>
      <trkpt lat="46.35823" lon="6.85645">
        <ele>823.0530731844</ele>
        <time>2012-06-09T13:13:38.000Z</time>
      </trkpt>
      <trkpt lat="46.35814" lon="6.85634">
        <ele>818.47715122908</ele>
        <time>2012-06-09T13:13:41.000Z</time>
      </trkpt>
      <trkpt lat="46.35804" lon="6.85631">
        <ele>814.46400586036</ele>
        <time>2012-06-09T13:13:44.000Z</time>
      </trkpt>
      <trkpt lat="46.358" lon="6.85617">
        <ele>810.48480410225</ele>
        <time>2012-06-09T13:13:48.000Z</time>
      </trkpt>
      <trkpt lat="46.35799" lon="6.85604">
        <ele>807.15936287158</ele>
        <time>2012-06-09T13:13:50.000Z</time>
      </trkpt>
      <trkpt lat="46.35794" lon="6.85589">
        <ele>804.1715540101</ele>
        <time>2012-06-09T13:13:52.000Z</time>
      </trkpt>
      <trkpt lat="46.35787" lon="6.85573">
        <ele>801.45008780707</ele>
        <time>2012-06-09T13:13:54.000Z</time>
      </trkpt>
      <trkpt lat="46.35779" lon="6.85556">
        <ele>798.79506146495</ele>
        <time>2012-06-09T13:13:56.000Z</time>
      </trkpt>
      <trkpt lat="46.35774" lon="6.85545">
        <ele>796.57654302547</ele>
        <time>2012-06-09T13:13:58.000Z</time>
      </trkpt>
      <trkpt lat="46.35769" lon="6.85534">
        <ele>793.94358011783</ele>
        <time>2012-06-09T13:15:10.000Z</time>
      </trkpt>
      <trkpt lat="46.35774" lon="6.85546">
        <ele>791.62050608248</ele>
        <time>2012-06-09T13:15:18.000Z</time>
      </trkpt>
      <trkpt lat="46.35777" lon="6.85558">
        <ele>789.99435425773</ele>
        <time>2012-06-09T13:15:23.000Z</time>
      </trkpt>
      <trkpt lat="46.35783" lon="6.85571">
        <ele>789.03604798041</ele>
        <time>2012-06-09T13:15:29.000Z</time>
      </trkpt>
      <trkpt lat="46.35791" lon="6.85566">
        <ele>787.31523358629</ele>
        <time>2012-06-09T13:15:53.000Z</time>
      </trkpt>
      <trkpt lat="46.35783" lon="6.85561">
        <ele>785.4506635104</ele>
        <time>2012-06-09T13:16:39.000Z</time>
      </trkpt>
      <trkpt lat="46.35773" lon="6.85559">
        <ele>783.84546445728</ele>
        <time>2012-06-09T13:16:50.000Z</time>
      </trkpt>
      <trkpt lat="46.35764" lon="6.85554">
        <ele>782.4518251201</ele>
        <time>2012-06-09T13:17:19.000Z</time>
      </trkpt>
      <trkpt lat="46.35766" lon="6.8557">
        <ele>781.23627758407</ele>
        <time>2012-06-09T13:17:50.000Z</time>
      </trkpt>
      <trkpt lat="46.35762" lon="6.85583">
        <ele>780.38539430885</ele>
        <time>2012-06-09T13:17:53.000Z</time>
      </trkpt>
      <trkpt lat="46.35762" lon="6.85598">
        <ele>779.72977601619</ele>
        <time>2012-06-09T13:17:58.000Z</time>
      </trkpt>
      <trkpt lat="46.35762" lon="6.85613">
        <ele>779.00084321134</ele>
        <time>2012-06-09T13:18:02.000Z</time>
      </trkpt>
      <trkpt lat="46.35752" lon="6.85607">
        <ele>778.31059024793</ele>
        <time>2012-06-09T13:18:09.000Z</time>
      </trkpt>
      <trkpt lat="46.35741" lon="6.85604">
        <ele>777.64741317355</ele>
        <time>2012-06-09T13:18:13.000Z</time>
      </trkpt>
      <trkpt lat="46.35735" lon="6.85614">
        <ele>776.67318922149</ele>
        <time>2012-06-09T13:18:41.000Z</time>
      </trkpt>
      <trkpt lat="46.35737" lon="6.85631">
        <ele>775.96123245504</ele>
        <time>2012-06-09T13:18:48.000Z</time>
      </trkpt>
      <trkpt lat="46.35742" lon="6.85642">
        <ele>775.43286271853</ele>
        <time>2012-06-09T13:18:53.000Z</time>
      </trkpt>
      <trkpt lat="46.35741" lon="6.85657">
        <ele>775.03300390297</ele>
        <time>2012-06-09T13:18:59.000Z</time>
      </trkpt>
      <trkpt lat="46.35731" lon="6.85659">
        <ele>774.60310273208</ele>
        <time>2012-06-09T13:19:05.000Z</time>
      </trkpt>
      <trkpt lat="46.35721" lon="6.85661">
        <ele>774.12217191246</ele>
        <time>2012-06-09T13:19:12.000Z</time>
      </trkpt>
      <trkpt lat="46.35717" lon="6.85673">
        <ele>773.60552033872</ele>
        <time>2012-06-09T13:19:19.000Z</time>
      </trkpt>
      <trkpt lat="46.35709" lon="6.85683">
        <ele>773.0938642371</ele>
        <time>2012-06-09T13:19:23.000Z</time>
      </trkpt>
      <trkpt lat="46.35709" lon="6.85697">
        <ele>772.64570496597</ele>
        <time>2012-06-09T13:19:26.000Z</time>
      </trkpt>
      <trkpt lat="46.35716" lon="6.85707">
        <ele>772.06199347618</ele>
        <time>2012-06-09T13:19:32.000Z</time>
      </trkpt>
      <trkpt lat="46.35719" lon="6.85723">
        <ele>771.53339543333</ele>
        <time>2012-06-09T13:19:35.000Z</time>
      </trkpt>
      <trkpt lat="46.35712" lon="6.85738">
        <ele>770.92337680333</ele>
        <time>2012-06-09T13:19:37.000Z</time>
      </trkpt>
      <trkpt lat="46.35712" lon="6.85751">
        <ele>769.56636376233</ele>
        <time>2012-06-09T13:19:41.000Z</time>
      </trkpt>
      <trkpt lat="46.35716" lon="6.85762">
        <ele>767.92645463363</ele>
        <time>2012-06-09T13:19:43.000Z</time>
      </trkpt>
      <trkpt lat="46.35717" lon="6.85775">
        <ele>766.11851824354</ele>
        <time>2012-06-09T13:19:48.000Z</time>
      </trkpt>
      <trkpt lat="46.35714" lon="6.85767">
        <ele>762.60296277048</ele>
        <time>2012-06-09T13:20:18.000Z</time>
      </trkpt>
      <trkpt lat="46.35715" lon="6.85779">
        <ele>758.22207393934</ele>
        <time>2012-06-09T13:20:39.000Z</time>
      </trkpt>
      <trkpt lat="46.35717" lon="6.85793">
        <ele>754.43545175753</ele>
        <time>2012-06-09T13:20:43.000Z</time>
      </trkpt>
      <trkpt lat="46.35719" lon="6.85788">
        <ele>748.93481623027</ele>
        <time>2012-06-09T13:21:27.000Z</time>
      </trkpt>
      <trkpt lat="46.35723" lon="6.858">
        <ele>744.48437136119</ele>
        <time>2012-06-09T13:21:45.000Z</time>
      </trkpt>
      <trkpt lat="46.35726" lon="6.85814">
        <ele>740.49905995283</ele>
        <time>2012-06-09T13:21:53.000Z</time>
      </trkpt>
      <trkpt lat="46.35738" lon="6.85806">
        <ele>735.69934196698</ele>
        <time>2012-06-09T13:21:56.000Z</time>
      </trkpt>
      <trkpt lat="46.35749" lon="6.8582">
        <ele>730.53953937689</ele>
        <time>2012-06-09T13:21:57.000Z</time>
      </trkpt>
      <trkpt lat="46.35757" lon="6.85826">
        <ele>725.66767756382</ele>
        <time>2012-06-09T13:22:00.000Z</time>
      </trkpt>
      <trkpt lat="46.35759" lon="6.85831">
        <ele>719.34737429468</ele>
        <time>2012-06-09T13:22:06.000Z</time>
      </trkpt>
      <trkpt lat="46.35766" lon="6.85831">
        <ele>712.79316200627</ele>
        <time>2012-06-09T13:22:09.000Z</time>
      </trkpt>
      <trkpt lat="46.35769" lon="6.85842">
        <ele>706.91521340439</ele>
        <time>2012-06-09T13:22:11.000Z</time>
      </trkpt>
      <trkpt lat="46.35764" lon="6.85851">
        <ele>701.33064938307</ele>
        <time>2012-06-09T13:22:12.000Z</time>
      </trkpt>
      <trkpt lat="46.35769" lon="6.85864">
        <ele>696.28145456815</ele>
        <time>2012-06-09T13:22:16.000Z</time>
      </trkpt>
      <trkpt lat="46.35776" lon="6.85876">
        <ele>691.57701819771</ele>
        <time>2012-06-09T13:22:22.000Z</time>
      </trkpt>
      <trkpt lat="46.35778" lon="6.8589">
        <ele>687.77391273839</ele>
        <time>2012-06-09T13:22:25.000Z</time>
      </trkpt>
      <trkpt lat="46.35786" lon="6.85907">
        <ele>684.45173891688</ele>
        <time>2012-06-09T13:22:27.000Z</time>
      </trkpt>
      <trkpt lat="46.35798" lon="6.85906">
        <ele>681.34621724181</ele>
        <time>2012-06-09T13:22:29.000Z</time>
      </trkpt>
      <trkpt lat="46.35798" lon="6.85927">
        <ele>678.57235206927</ele>
        <time>2012-06-09T13:22:31.000Z</time>
      </trkpt>
      <trkpt lat="46.35801" lon="6.8594">
        <ele>676.03064644849</ele>
        <time>2012-06-09T13:22:33.000Z</time>
      </trkpt>
      <trkpt lat="46.35812" lon="6.85928">
        <ele>673.08145251394</ele>
        <time>2012-06-09T13:22:35.000Z</time>
      </trkpt>
      <trkpt lat="46.35819" lon="6.85938">
        <ele>669.90701675976</ele>
        <time>2012-06-09T13:22:38.000Z</time>
      </trkpt>
      <trkpt lat="46.35828" lon="6.85945">
        <ele>666.42491173183</ele>
        <time>2012-06-09T13:22:43.000Z</time>
      </trkpt>
      <trkpt lat="46.35832" lon="6.85956">
        <ele>662.96743821228</ele>
        <time>2012-06-09T13:22:46.000Z</time>
      </trkpt>
      <trkpt lat="46.35836" lon="6.85973">
        <ele>659.7372067486</ele>
        <time>2012-06-09T13:22:49.000Z</time>
      </trkpt>
      <trkpt lat="46.35847" lon="6.8598">
        <ele>655.85604472402</ele>
        <time>2012-06-09T13:22:54.000Z</time>
      </trkpt>
      <trkpt lat="46.35842" lon="6.85993">
        <ele>652.35923130681</ele>
        <time>2012-06-09T13:22:56.000Z</time>
      </trkpt>
      <trkpt lat="46.35834" lon="6.85998">
        <ele>648.53146191477</ele>
        <time>2012-06-09T13:23:00.000Z</time>
      </trkpt>
      <trkpt lat="46.35831" lon="6.86015">
        <ele>644.20202334034</ele>
        <time>2012-06-09T13:23:05.000Z</time>
      </trkpt>
      <trkpt lat="46.35833" lon="6.86027">
        <ele>640.30141633824</ele>
        <time>2012-06-09T13:23:08.000Z</time>
      </trkpt>
      <trkpt lat="46.35841" lon="6.86032">
        <ele>636.19099143677</ele>
        <time>2012-06-09T13:25:41.000Z</time>
      </trkpt>
      <trkpt lat="46.35846" lon="6.86044">
        <ele>633.19369400574</ele>
        <time>2012-06-09T13:25:48.000Z</time>
      </trkpt>
      <trkpt lat="46.35843" lon="6.86065">
        <ele>631.03558580402</ele>
        <time>2012-06-09T13:25:50.000Z</time>
      </trkpt>
      <trkpt lat="46.35841" lon="6.8608">
        <ele>629.43491006281</ele>
        <time>2012-06-09T13:25:52.000Z</time>
      </trkpt>
      <trkpt lat="46.35842" lon="6.86094">
        <ele>628.25443704397</ele>
        <time>2012-06-09T13:25:54.000Z</time>
      </trkpt>
      <trkpt lat="46.35851" lon="6.86125">
        <ele>627.30810593078</ele>
        <time>2012-06-09T13:25:56.000Z</time>
      </trkpt>
      <trkpt lat="46.35857" lon="6.86143">
        <ele>626.46567415154</ele>
        <time>2012-06-09T13:25:58.000Z</time>
      </trkpt>
      <trkpt lat="46.35862" lon="6.86157">
        <ele>625.75597190608</ele>
        <time>2012-06-09T13:26:00.000Z</time>
      </trkpt>
      <trkpt lat="46.35861" lon="6.86174">
        <ele>625.13918033426</ele>
        <time>2012-06-09T13:26:02.000Z</time>
      </trkpt>
      <trkpt lat="46.3586" lon="6.86194">
        <ele>624.58742623398</ele>
        <time>2012-06-09T13:26:05.000Z</time>
      </trkpt>
      <trkpt lat="46.35865" lon="6.86208">
        <ele>624.02119836379</ele>
        <time>2012-06-09T13:26:07.000Z</time>
      </trkpt>
      <trkpt lat="46.35864" lon="6.8623">
        <ele>623.35483885465</ele>
        <time>2012-06-09T13:26:10.000Z</time>
      </trkpt>
      <trkpt lat="46.3587" lon="6.86255">
        <ele>622.04838719826</ele>
        <time>2012-06-09T13:26:12.000Z</time>
      </trkpt>
      <trkpt lat="46.35877" lon="6.86276">
        <ele>620.44387103878</ele>
        <time>2012-06-09T13:26:14.000Z</time>
      </trkpt>
      <trkpt lat="46.35886" lon="6.86293">
        <ele>618.78070972714</ele>
        <time>2012-06-09T13:26:15.000Z</time>
      </trkpt>
      <trkpt lat="46.35891" lon="6.86313">
        <ele>617.136496809</ele>
        <time>2012-06-09T13:26:17.000Z</time>
      </trkpt>
      <trkpt lat="46.35896" lon="6.8633">
        <ele>615.4755477663</ele>
        <time>2012-06-09T13:26:19.000Z</time>
      </trkpt>
      <trkpt lat="46.35902" lon="6.86344">
        <ele>613.86288343641</ele>
        <time>2012-06-09T13:26:21.000Z</time>
      </trkpt>
      <trkpt lat="46.35902" lon="6.86365">
        <ele>612.28401840549</ele>
        <time>2012-06-09T13:26:23.000Z</time>
      </trkpt>
      <trkpt lat="46.35904" lon="6.86379">
        <ele>610.84881288384</ele>
        <time>2012-06-09T13:26:24.000Z</time>
      </trkpt>
      <trkpt lat="46.35914" lon="6.86392">
        <ele>608.97416901869</ele>
        <time>2012-06-09T13:26:27.000Z</time>
      </trkpt>
      <trkpt lat="46.35927" lon="6.86399">
        <ele>607.03191831308</ele>
        <time>2012-06-09T13:26:29.000Z</time>
      </trkpt>
      <trkpt lat="46.35932" lon="6.86418">
        <ele>605.31234281916</ele>
        <time>2012-06-09T13:26:31.000Z</time>
      </trkpt>
      <trkpt lat="46.35937" lon="6.86432">
        <ele>603.65863997341</ele>
        <time>2012-06-09T13:26:33.000Z</time>
      </trkpt>
      <trkpt lat="46.35938" lon="6.86448">
        <ele>601.75104798139</ele>
        <time>2012-06-09T13:26:36.000Z</time>
      </trkpt>
      <trkpt lat="46.35942" lon="6.86462">
        <ele>598.13573358697</ele>
        <time>2012-06-09T13:26:39.000Z</time>
      </trkpt>
      <trkpt lat="46.35938" lon="6.86475">
        <ele>594.91501351088</ele>
        <time>2012-06-09T13:26:41.000Z</time>
      </trkpt>
      <trkpt lat="46.35943" lon="6.86487">
        <ele>590.68050945762</ele>
        <time>2012-06-09T13:26:45.000Z</time>
      </trkpt>
      <trkpt lat="46.35953" lon="6.86493">
        <ele>586.30635662033</ele>
        <time>2012-06-09T13:26:48.000Z</time>
      </trkpt>
      <trkpt lat="46.35962" lon="6.86503">
        <ele>582.19444963423</ele>
        <time>2012-06-09T13:26:51.000Z</time>
      </trkpt>
      <trkpt lat="46.35973" lon="6.86509">
        <ele>577.60611474396</ele>
        <time>2012-06-09T13:26:54.000Z</time>
      </trkpt>
      <trkpt lat="46.3598" lon="6.86514">
        <ele>572.83428032077</ele>
        <time>2012-06-09T13:26:58.000Z</time>
      </trkpt>
      <trkpt lat="46.35977" lon="6.86526">
        <ele>568.65399622454</ele>
        <time>2012-06-09T13:27:01.000Z</time>
      </trkpt>
      <trkpt lat="46.35974" lon="6.86541">
        <ele>564.85779735718</ele>
        <time>2012-06-09T13:27:04.000Z</time>
      </trkpt>
      <trkpt lat="46.35972" lon="6.86555">
        <ele>560.91045815003</ele>
        <time>2012-06-09T13:27:09.000Z</time>
      </trkpt>
      <trkpt lat="46.35973" lon="6.86566">
        <ele>556.79732070502</ele>
        <time>2012-06-09T13:27:13.000Z</time>
      </trkpt>
      <trkpt lat="46.35975" lon="6.86583">
        <ele>552.86812449351</ele>
        <time>2012-06-09T13:27:16.000Z</time>
      </trkpt>
      <trkpt lat="46.35983" lon="6.86589">
        <ele>548.28768714546</ele>
        <time>2012-06-09T13:27:19.000Z</time>
      </trkpt>
      <trkpt lat="46.35981" lon="6.86605">
        <ele>543.58138100182</ele>
        <time>2012-06-09T13:27:22.000Z</time>
      </trkpt>
      <trkpt lat="46.35982" lon="6.86621">
        <ele>538.84696670127</ele>
        <time>2012-06-09T13:27:26.000Z</time>
      </trkpt>
      <trkpt lat="46.35982" lon="6.86636">
        <ele>534.66287669089</ele>
        <time>2012-06-09T13:27:30.000Z</time>
      </trkpt>
      <trkpt lat="46.35984" lon="6.8665">
        <ele>530.53401368362</ele>
        <time>2012-06-09T13:27:34.000Z</time>
      </trkpt>
      <trkpt lat="46.35983" lon="6.86666">
        <ele>526.50380957854</ele>
        <time>2012-06-09T13:27:38.000Z</time>
      </trkpt>
      <trkpt lat="46.35983" lon="6.86679">
        <ele>522.54266670498</ele>
        <time>2012-06-09T13:27:41.000Z</time>
      </trkpt>
      <trkpt lat="46.35975" lon="6.8667">
        <ele>517.78986669348</ele>
        <time>2012-06-09T13:27:46.000Z</time>
      </trkpt>
      <trkpt lat="46.35966" lon="6.86671">
        <ele>513.62290668544</ele>
        <time>2012-06-09T13:27:48.000Z</time>
      </trkpt>
      <trkpt lat="46.3596" lon="6.86683">
        <ele>509.65603467981</ele>
        <time>2012-06-09T13:27:50.000Z</time>
      </trkpt>
      <trkpt lat="46.35958" lon="6.86697">
        <ele>505.16922427586</ele>
        <time>2012-06-09T13:27:52.000Z</time>
      </trkpt>
      <trkpt lat="46.35955" lon="6.86715">
        <ele>501.18845699311</ele>
        <time>2012-06-09T13:27:54.000Z</time>
      </trkpt>
      <trkpt lat="46.35961" lon="6.86725">
        <ele>496.75191989517</ele>
        <time>2012-06-09T13:27:55.000Z</time>
      </trkpt>
      <trkpt lat="46.35969" lon="6.86743">
        <ele>492.02634392662</ele>
        <time>2012-06-09T13:27:57.000Z</time>
      </trkpt>
      <trkpt lat="46.35974" lon="6.86759">
        <ele>487.72844074864</ele>
        <time>2012-06-09T13:27:59.000Z</time>
      </trkpt>
      <trkpt lat="46.35981" lon="6.86765">
        <ele>482.88990852404</ele>
        <time>2012-06-09T13:28:02.000Z</time>
      </trkpt>
      <trkpt lat="46.35989" lon="6.86771">
        <ele>478.78293596683</ele>
        <time>2012-06-09T13:28:56.000Z</time>
      </trkpt>
      <trkpt lat="46.35991" lon="6.8679">
        <ele>475.90805517678</ele>
        <time>2012-06-09T13:29:00.000Z</time>
      </trkpt>
      <trkpt lat="46.35992" lon="6.86803">
        <ele>473.86563862375</ele>
        <time>2012-06-09T13:29:06.000Z</time>
      </trkpt>
      <trkpt lat="46.36002" lon="6.86801">
        <ele>472.46594703662</ele>
        <time>2012-06-09T13:29:21.000Z</time>
      </trkpt>
      <trkpt lat="46.36008" lon="6.86812">
        <ele>471.33616292564</ele>
        <time>2012-06-09T13:30:14.000Z</time>
      </trkpt>
      <trkpt lat="46.36025" lon="6.8683">
        <ele>470.36531404795</ele>
        <time>2012-06-09T13:30:16.000Z</time>
      </trkpt>
      <trkpt lat="46.36034" lon="6.86838">
        <ele>469.53571983356</ele>
        <time>2012-06-09T13:30:17.000Z</time>
      </trkpt>
      <trkpt lat="46.36045" lon="6.86846">
        <ele>468.62500388349</ele>
        <time>2012-06-09T13:30:19.000Z</time>
      </trkpt>
      <trkpt lat="46.3605" lon="6.8686">
        <ele>466.90750271845</ele>
        <time>2012-06-09T13:30:23.000Z</time>
      </trkpt>
      <trkpt lat="46.36054" lon="6.86877">
        <ele>464.92525190291</ele>
        <time>2012-06-09T13:30:26.000Z</time>
      </trkpt>
      <trkpt lat="46.36058" lon="6.86891">
        <ele>463.05767633204</ele>
        <time>2012-06-09T13:30:28.000Z</time>
      </trkpt>
      <trkpt lat="46.36062" lon="6.86908">
        <ele>461.39037343243</ele>
        <time>2012-06-09T13:30:30.000Z</time>
      </trkpt>
      <trkpt lat="46.36064" lon="6.86926">
        <ele>459.8632614027</ele>
        <time>2012-06-09T13:30:32.000Z</time>
      </trkpt>
      <trkpt lat="46.36069" lon="6.86949">
        <ele>458.40428298189</ele>
        <time>2012-06-09T13:30:34.000Z</time>
      </trkpt>
      <trkpt lat="46.36073" lon="6.86971">
        <ele>457.02299808732</ele>
        <time>2012-06-09T13:30:36.000Z</time>
      </trkpt>
      <trkpt lat="46.36075" lon="6.86985">
        <ele>455.90609866113</ele>
        <time>2012-06-09T13:30:37.000Z</time>
      </trkpt>
      <trkpt lat="46.36084" lon="6.87006">
        <ele>454.79426906279</ele>
        <time>2012-06-09T13:30:39.000Z</time>
      </trkpt>
      <trkpt lat="46.36094" lon="6.87019">
        <ele>453.68598834395</ele>
        <time>2012-06-09T13:30:41.000Z</time>
      </trkpt>
      <trkpt lat="46.36098" lon="6.87041">
        <ele>452.49019184077</ele>
        <time>2012-06-09T13:30:43.000Z</time>
      </trkpt>
      <trkpt lat="46.36096" lon="6.87058">
        <ele>450.99313428854</ele>
        <time>2012-06-09T13:30:47.000Z</time>
      </trkpt>
      <trkpt lat="46.36095" lon="6.87074">
        <ele>449.61519400198</ele>
        <time>2012-06-09T13:30:49.000Z</time>
      </trkpt>
      <trkpt lat="46.36092" lon="6.87091">
        <ele>448.32063580138</ele>
        <time>2012-06-09T13:30:51.000Z</time>
      </trkpt>
      <trkpt lat="46.36075" lon="6.87115">
        <ele>447.05444506097</ele>
        <time>2012-06-09T13:30:53.000Z</time>
      </trkpt>
      <trkpt lat="46.36068" lon="6.87126">
        <ele>444.96811154268</ele>
        <time>2012-06-09T13:30:58.000Z</time>
      </trkpt>
      <trkpt lat="46.36061" lon="6.87134">
        <ele>442.51767807987</ele>
        <time>2012-06-09T13:31:27.000Z</time>
      </trkpt>
      <trkpt lat="46.3607" lon="6.87132">
        <ele>438.52237465591</ele>
        <time>2012-06-09T13:31:32.000Z</time>
      </trkpt>
      <trkpt lat="46.36079" lon="6.87125">
        <ele>434.97566225914</ele>
        <time>2012-06-09T13:31:34.000Z</time>
      </trkpt>
      <trkpt lat="46.3609" lon="6.87128">
        <ele>431.8629635814</ele>
        <time>2012-06-09T13:31:36.000Z</time>
      </trkpt>
      <trkpt lat="46.36099" lon="6.87132">
        <ele>429.14407450698</ele>
        <time>2012-06-09T13:31:38.000Z</time>
      </trkpt>
      <trkpt lat="46.3611" lon="6.87136">
        <ele>426.37085215488</ele>
        <time>2012-06-09T13:31:41.000Z</time>
      </trkpt>
      <trkpt lat="46.36118" lon="6.87145">
        <ele>423.61959650842</ele>
        <time>2012-06-09T13:31:43.000Z</time>
      </trkpt>
      <trkpt lat="46.36124" lon="6.87159">
        <ele>421.03371755589</ele>
        <time>2012-06-09T13:31:46.000Z</time>
      </trkpt>
      <trkpt lat="46.36131" lon="6.87172">
        <ele>418.92360228913</ele>
        <time>2012-06-09T13:31:49.000Z</time>
      </trkpt>
      <trkpt lat="46.36137" lon="6.87185">
        <ele>416.90652160239</ele>
        <time>2012-06-09T13:31:53.000Z</time>
      </trkpt>
      <trkpt lat="46.36142" lon="6.87196">
        <ele>415.55456512167</ele>
        <time>2012-06-09T13:31:56.000Z</time>
      </trkpt>
      <trkpt lat="46.36148" lon="6.87207">
        <ele>414.54819558517</ele>
        <time>2012-06-09T13:31:58.000Z</time>
      </trkpt>
      <trkpt lat="46.36152" lon="6.87229">
        <ele>413.87373690962</ele>
        <time>2012-06-09T13:32:01.000Z</time>
      </trkpt>
      <trkpt lat="46.36158" lon="6.87246">
        <ele>413.37161583673</ele>
        <time>2012-06-09T13:32:03.000Z</time>
      </trkpt>
      <trkpt lat="46.36161" lon="6.87266">
        <ele>413.02013108571</ele>
        <time>2012-06-09T13:32:05.000Z</time>
      </trkpt>
      <trkpt lat="46.36163" lon="6.87289">
        <ele>412.80409176</ele>
        <time>2012-06-09T13:32:07.000Z</time>
      </trkpt>
      <trkpt lat="46.36163" lon="6.87306">
        <ele>412.622864232</ele>
        <time>2012-06-09T13:32:08.000Z</time>
      </trkpt>
      <trkpt lat="46.36168" lon="6.87327">
        <ele>412.4660049624</ele>
        <time>2012-06-09T13:32:09.000Z</time>
      </trkpt>
      <trkpt lat="46.36181" lon="6.87339">
        <ele>412.20620347368</ele>
        <time>2012-06-09T13:32:11.000Z</time>
      </trkpt>
      <trkpt lat="46.36189" lon="6.87351">
        <ele>411.93434243158</ele>
        <time>2012-06-09T13:32:13.000Z</time>
      </trkpt>
      <trkpt lat="46.36198" lon="6.87331">
        <ele>411.3240397021</ele>
        <time>2012-06-09T13:32:14.000Z</time>
      </trkpt>
      <trkpt lat="46.3621" lon="6.87319">
        <ele>410.71682779147</ele>
        <time>2012-06-09T13:32:15.000Z</time>
      </trkpt>
      <trkpt lat="46.36186" lon="6.87326">
        <ele>410.14177945403</ele>
        <time>2012-06-09T13:32:16.000Z</time>
      </trkpt>
      <trkpt lat="46.36193" lon="6.87345">
        <ele>409.31924561782</ele>
        <time>2012-06-09T13:32:17.000Z</time>
      </trkpt>
      <trkpt lat="46.36191" lon="6.87361">
        <ele>408.20347193247</ele>
        <time>2012-06-09T13:32:18.000Z</time>
      </trkpt>
      <trkpt lat="46.36188" lon="6.87377">
        <ele>406.19243035273</ele>
        <time>2012-06-09T13:32:21.000Z</time>
      </trkpt>
      <trkpt lat="46.36184" lon="6.87392">
        <ele>403.58470124691</ele>
        <time>2012-06-09T13:32:24.000Z</time>
      </trkpt>
      <trkpt lat="46.3618" lon="6.87406">
        <ele>401.09929087284</ele>
        <time>2012-06-09T13:32:26.000Z</time>
      </trkpt>
      <trkpt lat="46.36175" lon="6.87422">
        <ele>398.69950361099</ele>
        <time>2012-06-09T13:32:28.000Z</time>
      </trkpt>
      <trkpt lat="46.36173" lon="6.87438">
        <ele>396.20965252769</ele>
        <time>2012-06-09T13:32:30.000Z</time>
      </trkpt>
      <trkpt lat="46.36173" lon="6.87455">
        <ele>393.62675676938</ele>
        <time>2012-06-09T13:32:32.000Z</time>
      </trkpt>
      <trkpt lat="46.36175" lon="6.87472">
        <ele>390.97872973857</ele>
        <time>2012-06-09T13:32:34.000Z</time>
      </trkpt>
      <trkpt lat="46.36177" lon="6.8749">
        <ele>388.495110817</ele>
        <time>2012-06-09T13:32:36.000Z</time>
      </trkpt>
      <trkpt lat="46.36177" lon="6.87507">
        <ele>386.1565775719</ele>
        <time>2012-06-09T13:32:38.000Z</time>
      </trkpt>
      <trkpt lat="46.36178" lon="6.87525">
        <ele>383.97960430033</ele>
        <time>2012-06-09T13:32:40.000Z</time>
      </trkpt>
      <trkpt lat="46.3618" lon="6.87538">
        <ele>382.03572301023</ele>
        <time>2012-06-09T13:32:42.000Z</time>
      </trkpt>
      <trkpt lat="46.36185" lon="6.8755">
        <ele>380.19500610716</ele>
        <time>2012-06-09T13:32:44.000Z</time>
      </trkpt>
      <trkpt lat="46.36191" lon="6.87565">
        <ele>378.57650427501</ele>
        <time>2012-06-09T13:32:46.000Z</time>
      </trkpt>
      <trkpt lat="46.36203" lon="6.87578">
        <ele>376.90355299251</ele>
        <time>2012-06-09T13:32:48.000Z</time>
      </trkpt>
      <trkpt lat="46.36213" lon="6.87598">
        <ele>375.25248709476</ele>
        <time>2012-06-09T13:32:50.000Z</time>
      </trkpt>
      <trkpt lat="46.36218" lon="6.87609">
        <ele>373.91674096633</ele>
        <time>2012-06-09T13:32:51.000Z</time>
      </trkpt>
      <trkpt lat="46.36222" lon="6.87621">
        <ele>372.77171867643</ele>
        <time>2012-06-09T13:32:52.000Z</time>
      </trkpt>
      <trkpt lat="46.36226" lon="6.87633">
        <ele>371.3702030735</ele>
        <time>2012-06-09T13:32:53.000Z</time>
      </trkpt>
      <trkpt lat="46.36233" lon="6.87658">
        <ele>369.33914215145</ele>
        <time>2012-06-09T13:32:55.000Z</time>
      </trkpt>
      <trkpt lat="46.36237" lon="6.87683">
        <ele>366.80739950602</ele>
        <time>2012-06-09T13:32:57.000Z</time>
      </trkpt>
      <trkpt lat="46.36241" lon="6.87702">
        <ele>364.25517965421</ele>
        <time>2012-06-09T13:32:59.000Z</time>
      </trkpt>
    </trkseg>
  </trk>
</gpx>